GFSSW_850_thetae_000.txt.gz
Theta_e
316 316 317 316 316 317 317 317 317 318 318 319 320 321 322 324 323 321 320 320 320 320 325 321 321 327 335 339 342 341 335 338 339 340 341 346 351 350 351 350 348 348 348 348 348
314 315 316 316 316 316 316 317 317 317 318 318 319 321 321 323 323 321 320 319 320 321 320 320 320 322 326 329 336 337 338 338 336 336 343 345 349 351 349 349 350 349 347 347 348
310 311 312 315 315 315 315 316 316 317 317 318 319 320 321 321 323 319 321 320 319 319 320 320 323 324 325 328 336 338 338 337 337 339 344 344 349 349 347 348 350 348 347 348 349
309 309 309 311 313 314 315 316 316 317 317 317 318 319 320 320 319 321 323 323 322 322 320 320 324 322 325 326 328 336 337 339 338 341 343 343 346 348 345 346 346 347 343 348 348
308 308 308 309 310 312 313 315 316 317 317 318 318 318 318 320 322 321 319 321 321 321 320 320 323 323 328 328 328 328 328 337 340 341 341 343 346 348 345 348 348 346 345 347 347
308 308 309 309 309 310 312 313 315 317 318 319 318 318 318 317 323 321 321 322 322 321 320 322 323 324 329 329 326 328 335 338 340 339 341 344 346 347 347 348 349 346 347 347 347
308 308 309 310 310 310 311 312 313 316 318 319 319 319 320 322 326 324 322 324 324 320 320 322 325 328 328 327 328 337 337 337 338 340 345 345 347 347 348 348 350 351 350 349 349
307 308 308 309 310 311 311 312 313 315 317 319 320 323 325 326 328 323 321 324 324 323 321 322 323 322 325 328 334 335 336 340 338 340 344 342 346 347 348 349 351 353 353 352 351
307 307 308 309 309 310 312 312 313 314 316 320 324 325 325 326 325 327 322 325 324 322 322 322 321 323 325 324 333 332 339 339 341 339 342 343 346 347 347 348 350 353 353 352 352
306 306 308 308 309 310 312 312 313 316 322 327 327 325 325 326 327 326 327 327 324 321 322 322 321 320 318 323 337 337 340 337 342 338 341 342 344 347 346 346 348 349 350 351 352
305 306 307 307 308 309 311 312 317 319 317 321 321 324 325 324 324 326 327 327 324 319 316 318 318 319 322 322 327 332 337 341 340 338 340 342 344 348 346 345 345 346 347 348 350
304 305 306 307 308 308 310 312 315 313 311 318 319 318 320 320 323 324 325 326 322 319 317 319 318 318 321 324 326 333 332 337 334 336 340 343 345 347 346 345 345 345 346 346 348
303 304 305 306 308 309 309 310 311 310 311 316 318 318 320 320 321 323 324 325 319 318 316 316 319 320 325 325 325 326 326 326 336 338 341 344 346 344 346 346 345 345 345 345 346
302 303 304 306 308 308 309 309 309 309 314 317 320 322 322 322 323 321 324 326 318 318 316 316 318 322 324 327 325 326 324 327 334 338 339 339 342 342 343 345 343 344 344 345 346
302 302 303 303 304 307 307 307 309 316 320 320 323 325 323 323 322 323 324 325 322 319 317 318 319 321 326 326 325 327 325 327 332 334 337 344 338 337 342 344 343 342 343 344 345
302 302 302 304 305 307 308 310 313 315 320 320 325 322 322 323 322 323 325 326 326 320 317 319 320 320 321 325 327 324 322 322 323 328 334 336 340 335 344 346 344 343 344 344 344
302 302 303 303 306 306 306 307 314 316 318 320 321 320 320 320 322 322 321 320 321 320 319 320 319 322 324 324 325 321 322 324 327 333 333 331 340 338 335 342 342 342 344 345 346
302 302 304 305 306 306 305 307 316 317 317 317 320 318 320 319 320 322 319 322 319 318 317 318 319 320 322 323 323 322 322 323 326 328 335 332 341 340 337 336 341 342 343 344 346
302 303 305 306 310 308 307 307 312 317 320 321 318 320 320 319 321 321 320 319 320 316 319 316 318 320 322 323 323 322 322 321 321 322 325 328 327 329 330 332 336 340 342 343 344
301 302 306 311 315 309 307 306 309 315 318 315 319 319 320 319 319 319 320 320 319 318 316 317 320 318 321 324 322 322 320 324 318 326 329 326 327 330 330 332 332 336 340 342 343
300 303 305 315 312 309 305 305 309 313 313 313 317 318 318 318 319 319 319 320 321 321 315 316 316 319 320 321 322 323 322 319 319 320 324 325 325 323 327 330 332 334 338 340 341
300 299 309 311 311 306 306 306 311 312 314 315 315 315 315 317 316 317 318 319 321 319 318 315 317 319 318 320 321 322 321 321 325 322 320 321 324 324 326 327 332 333 336 337 338
301 302 306 311 311 310 309 313 315 318 318 319 316 314 315 317 319 316 317 319 321 320 320 316 314 319 319 318 321 322 321 318 317 318 322 325 325 325 326 330 334 334 336 337 337
303 303 311 311 309 307 306 308 313 316 317 318 318 318 317 319 317 318 322 325 328 327 331 327 314 319 322 320 320 324 324 321 320 321 322 324 325 327 330 332 333 336 336 337 337
305 305 308 308 309 308 306 308 313 315 315 317 317 318 319 318 321 318 319 322 327 329 324 315 319 317 322 318 322 323 324 323 323 322 325 326 324 326 329 330 331 338 337 336 336
306 308 307 308 309 305 308 309 313 313 313 314 317 320 319 319 321 323 323 325 328 330 327 315 318 315 322 319 320 322 322 325 324 324 323 324 324 323 327 330 331 335 338 338 338
302 303 305 308 308 308 307 310 311 312 313 313 314 316 321 323 319 323 325 324 328 327 330 324 316 316 321 319 319 321 322 322 324 323 324 325 325 323 328 330 331 333 337 339 340

GFSSW_850_thetae_003.txt.gz
Theta_e
313 314 315 315 315 316 317 317 317 317 317 318 319 320 322 322 322 322 322 321 320 320 326 326 327 330 335 343 344 340 342 342 342 348 347 348 348 351 350 350 349 349 349 346 346
309 310 311 312 313 314 315 317 317 317 317 317 318 319 320 321 322 322 320 320 320 320 321 324 323 327 329 330 336 340 344 342 340 343 346 348 348 350 352 349 348 350 350 347 348
308 309 309 309 310 311 313 314 316 317 318 318 318 318 319 319 321 320 322 320 319 319 321 321 321 321 326 328 334 340 343 340 339 340 345 348 348 349 349 349 348 350 351 349 349
308 309 309 309 310 310 310 312 313 315 317 318 318 319 319 318 323 321 321 321 320 319 321 321 323 324 325 326 330 337 338 339 339 342 344 347 348 348 347 344 346 350 350 350 349
308 308 309 309 310 310 310 311 311 313 315 317 318 318 319 318 320 321 321 320 319 320 320 322 322 323 325 328 329 332 332 336 338 342 344 346 348 348 348 345 348 349 351 350 350
307 308 308 309 310 310 311 311 311 312 314 316 318 318 318 320 320 323 322 321 322 320 321 321 323 323 325 331 332 329 332 334 340 342 343 346 347 346 346 349 350 351 351 350 350
306 307 307 308 309 310 311 312 312 312 314 315 316 318 320 320 321 323 326 324 323 322 321 321 322 325 328 330 327 338 341 341 341 342 345 345 350 349 347 350 350 350 350 351 351
306 306 307 308 309 309 310 312 312 312 313 315 316 320 322 320 324 328 325 321 324 322 321 321 324 324 325 328 336 340 342 344 343 344 345 344 345 347 349 350 350 349 350 351 351
305 306 307 308 308 309 310 312 313 313 313 315 321 323 326 324 326 326 326 322 322 323 322 321 323 324 325 331 339 340 342 344 345 344 347 346 346 347 349 350 350 350 350 350 351
304 305 306 307 307 309 309 312 313 313 318 323 325 326 324 325 327 325 326 324 322 322 322 321 322 324 326 332 335 340 343 344 345 344 347 347 347 349 349 349 350 351 351 351 352
304 305 306 306 306 308 309 312 314 316 315 319 321 323 323 323 324 324 326 325 321 320 323 321 323 323 326 330 334 338 342 343 344 342 345 347 346 349 349 348 349 351 352 352 351
302 303 305 306 306 307 309 307 309 310 311 315 316 316 317 318 320 321 324 325 323 324 319 321 321 324 326 328 329 340 342 343 342 342 344 345 346 347 349 348 348 349 350 351 351
302 302 303 305 307 309 307 309 312 308 310 313 315 316 320 318 319 320 321 324 325 326 322 321 321 322 326 328 328 333 339 342 343 340 343 346 346 348 349 348 347 347 347 348 349
302 302 303 304 306 306 309 308 307 308 317 320 320 322 322 321 322 321 321 325 322 327 323 323 321 322 325 328 330 332 335 339 343 343 346 343 345 347 348 351 349 347 347 347 347
301 302 302 302 303 305 305 307 308 313 321 321 322 323 322 324 321 323 322 324 326 324 323 323 320 322 324 326 329 333 331 335 340 342 341 345 344 341 347 350 351 348 347 346 346
301 302 301 302 304 306 306 306 313 320 320 322 325 323 323 324 324 323 323 324 325 325 321 324 321 322 324 327 329 328 330 331 335 337 338 337 342 338 348 348 347 347 346 346 346
301 302 302 302 304 305 305 306 317 320 319 321 323 322 322 323 324 323 324 325 327 328 328 326 324 322 322 325 329 329 331 333 334 337 336 335 343 340 340 343 344 345 345 345 345
301 302 303 303 304 305 305 311 316 318 319 319 321 321 321 321 323 323 325 325 327 328 328 328 326 325 324 324 327 329 331 334 336 336 334 336 340 339 340 338 340 343 344 344 345
301 303 304 305 307 310 307 309 313 316 321 323 322 321 321 321 321 323 324 325 325 326 327 326 327 323 323 326 328 329 331 331 333 329 333 335 339 335 337 338 338 340 343 345 345
301 302 304 310 313 312 309 309 311 317 320 317 320 321 322 321 321 322 324 324 326 326 328 325 325 323 324 324 326 328 329 330 330 337 336 334 335 333 339 340 341 341 342 343 345
300 301 304 314 313 308 311 309 310 312 316 316 317 319 321 319 320 321 322 323 322 324 326 327 324 322 323 324 325 326 328 329 331 331 335 335 334 336 342 345 342 342 341 343 345
299 302 306 310 313 310 311 310 310 313 312 314 316 318 318 318 318 319 321 323 322 322 323 325 326 326 324 324 324 326 328 330 332 334 331 332 332 333 335 338 339 338 339 340 345
302 301 303 309 312 314 313 313 314 316 317 318 316 317 318 318 318 320 321 322 322 323 327 322 325 327 327 326 324 325 326 328 330 331 337 332 332 334 333 334 334 337 340 339 342
302 305 307 310 308 311 312 313 313 314 317 318 319 320 321 322 322 323 322 324 326 324 324 326 329 329 328 327 326 325 326 327 328 331 331 332 331 334 336 337 337 337 338 340 339
303 306 308 313 312 313 310 310 311 313 315 315 320 320 321 322 322 322 322 322 322 324 330 330 330 330 331 329 326 325 324 327 329 331 332 330 333 334 340 342 340 338 342 339 340
304 307 305 307 308 311 310 311 313 314 314 315 317 318 319 322 322 323 324 325 327 330 333 324 333 325 327 328 327 326 325 326 328 328 330 331 333 333 335 336 338 338 341 340 338
301 301 303 304 308 309 311 311 312 311 313 313 314 314 315 318 318 318 320 323 327 330 335 337 333 335 331 326 325 327 327 327 329 330 330 332 333 336 333 335 337 338 340 341 338

GFSSW_850_thetae_006.txt.gz
Theta_e
309 310 311 312 313 314 316 316 316 317 318 319 320 320 319 320 321 322 322 323 321 320 320 327 337 342 342 341 341 343 345 343 343 345 345 343 345 347 347 349 349 348 347 347 347
308 308 309 309 310 312 313 314 316 316 317 318 319 320 319 319 320 321 323 320 320 320 324 335 336 340 336 332 335 341 345 343 341 342 346 344 344 348 349 348 348 349 347 347 346
308 308 308 309 309 310 310 312 313 315 316 317 317 319 319 319 321 323 323 320 320 320 329 331 330 334 329 328 332 337 343 342 341 340 344 344 345 347 345 348 346 349 348 347 347
309 309 309 309 309 309 310 310 311 313 315 317 317 317 318 318 323 320 321 322 321 319 328 328 326 328 326 329 330 336 336 337 340 341 343 346 345 346 344 343 344 346 348 348 348
307 308 309 309 309 309 310 311 311 312 313 315 317 317 316 322 322 321 321 321 320 320 324 325 324 326 328 330 330 333 334 333 335 339 341 345 346 346 345 345 345 347 349 348 348
306 307 308 308 309 310 310 311 311 312 312 313 315 315 315 322 321 320 323 322 327 324 323 323 324 324 327 329 332 333 333 334 334 339 342 346 347 347 346 344 349 349 350 348 348
306 306 307 308 309 309 310 310 311 312 312 312 314 314 317 321 321 320 321 326 329 326 324 323 323 324 326 330 330 332 336 340 340 341 345 345 350 349 347 347 351 350 350 349 349
305 306 307 307 307 309 309 311 312 312 313 312 313 316 323 323 320 323 327 326 323 328 325 324 323 324 326 330 332 334 337 341 343 344 346 346 346 348 348 348 351 350 350 349 349
304 305 306 306 307 308 309 311 312 313 313 313 317 321 326 325 325 327 327 325 324 325 324 323 323 325 327 331 335 337 339 339 346 345 348 348 345 347 348 349 350 350 348 349 350
302 303 305 306 306 308 309 311 312 313 315 319 323 327 326 325 328 326 328 324 324 326 324 323 324 327 329 332 336 338 339 339 341 347 348 349 346 349 349 349 348 350 349 348 349
302 303 304 305 306 307 309 310 319 322 320 323 323 326 324 324 325 326 327 323 323 325 325 323 325 326 330 332 334 336 339 340 340 346 348 347 346 347 350 349 349 350 350 349 348
302 302 303 304 305 307 308 310 312 310 314 316 316 317 319 321 321 322 325 326 324 326 325 324 324 326 328 331 333 336 337 339 340 345 346 345 347 346 347 350 348 348 350 351 350
302 302 303 304 305 308 307 311 309 308 314 318 317 317 319 318 321 322 324 326 327 326 325 325 324 326 327 329 332 335 337 338 342 345 345 345 347 346 345 348 348 347 347 350 350
302 302 302 304 307 305 311 308 307 308 319 323 322 323 322 323 324 323 323 325 326 326 326 324 325 325 325 328 332 335 335 337 340 344 346 345 346 343 345 349 349 349 347 346 349
301 302 302 301 302 306 308 306 306 312 323 324 324 324 325 326 326 325 323 323 326 327 327 326 324 324 324 326 330 334 335 336 337 342 343 346 347 343 344 346 349 349 349 346 344
301 302 302 303 303 305 305 305 312 322 323 323 325 326 326 326 326 325 323 324 324 326 327 327 325 325 325 326 328 332 334 336 337 338 343 344 344 341 342 344 343 345 347 347 344
302 302 302 302 306 303 304 309 318 321 322 323 324 326 326 325 326 327 326 325 327 329 328 326 325 324 324 326 327 331 335 339 340 340 341 341 343 341 338 338 340 338 342 347 346
303 303 304 304 303 303 305 312 317 320 321 323 324 325 325 325 325 326 326 325 326 328 329 328 326 325 325 325 329 330 334 337 340 338 338 339 341 339 338 337 336 336 340 345 347
302 304 305 304 305 307 310 312 317 318 320 320 322 323 325 325 323 326 326 327 326 327 329 329 328 326 325 326 327 331 334 334 336 337 337 336 338 337 337 338 338 338 341 343 346
301 304 306 307 308 312 312 312 315 316 319 322 322 323 323 324 324 325 326 326 327 327 329 329 330 328 327 326 327 329 332 334 336 342 340 337 337 339 338 337 336 338 341 343 345
304 305 307 308 314 314 314 313 314 314 315 319 320 321 322 323 324 325 325 326 326 327 329 329 329 328 327 326 326 328 330 333 335 335 337 339 338 336 337 337 337 336 340 341 344
304 307 307 313 315 314 315 315 314 315 313 315 318 319 320 322 324 324 324 325 326 327 329 330 330 330 326 326 326 328 329 333 335 339 336 337 335 335 336 336 335 335 334 335 342
305 304 305 307 311 312 315 314 315 315 315 315 315 317 319 320 322 322 323 322 322 326 329 330 331 332 331 326 326 326 328 330 332 335 342 337 336 334 335 335 334 339 339 339 344
304 307 307 311 309 312 314 315 316 314 315 316 317 317 317 319 320 321 323 322 323 324 327 330 329 331 331 331 328 327 326 327 329 335 335 335 336 335 334 335 334 335 338 340 345
304 307 309 309 314 315 316 316 315 315 316 316 318 319 319 319 321 322 323 324 326 326 330 334 335 332 330 329 329 328 327 326 327 329 334 334 334 335 335 335 334 333 334 340 346
304 307 307 307 307 309 309 313 314 314 316 318 319 318 319 320 321 322 322 323 323 327 328 331 336 334 333 331 330 329 329 327 327 327 328 330 332 333 333 332 332 332 333 339 345
304 303 303 304 305 307 309 310 311 314 314 314 317 317 319 321 321 322 323 324 327 327 329 332 335 338 336 333 332 332 331 330 328 327 328 329 330 331 331 333 334 334 337 339 344

GFSSW_850_thetae_009.txt.gz
Theta_e
309 309 309 309 310 312 313 315 316 317 317 317 318 319 319 320 320 320 325 326 325 321 320 337 340 336 339 340 340 339 345 345 344 346 342 340 341 342 344 345 346 347 349 350 351
308 309 309 309 309 310 310 311 313 315 316 317 317 318 319 319 320 323 322 323 322 320 321 333 335 336 338 338 339 341 347 344 341 345 343 341 340 342 343 344 346 346 349 350 351
308 309 309 309 309 310 310 310 311 312 314 316 317 317 317 319 323 325 324 321 320 320 327 331 332 336 337 336 335 338 347 344 341 340 343 341 341 341 342 344 345 346 348 349 351
307 308 309 309 310 310 310 311 311 311 312 313 316 317 317 317 326 327 322 321 321 320 330 330 332 333 336 334 333 338 339 339 341 340 342 342 342 341 339 341 343 345 346 348 350
306 306 307 309 309 310 310 311 311 312 312 312 313 314 315 324 323 324 322 321 321 324 331 328 330 331 335 333 334 336 337 336 337 339 339 343 343 341 340 340 342 346 346 347 349
306 306 307 307 308 309 310 311 312 312 312 312 312 312 314 324 323 324 324 324 327 328 327 327 329 329 330 333 334 335 335 335 336 336 339 343 343 343 341 341 344 347 346 346 347
305 306 306 307 307 308 309 310 312 313 313 313 313 312 320 323 323 323 326 327 328 327 327 325 326 327 328 332 332 334 336 337 338 337 340 341 343 343 342 344 344 346 346 345 346
304 305 305 306 307 308 308 309 312 313 314 313 313 313 323 325 326 324 323 324 326 327 326 325 324 326 328 330 333 335 336 339 340 339 339 341 345 344 344 344 344 346 347 346 346
303 304 304 305 306 308 309 309 311 313 313 314 316 324 325 327 326 325 325 326 326 325 327 326 326 325 327 330 333 336 337 339 341 340 343 343 346 345 345 343 344 344 346 346 347
302 303 304 304 305 307 309 310 312 313 317 316 324 329 326 327 327 328 327 326 325 327 326 326 325 328 329 332 334 338 338 340 345 340 345 344 347 347 346 345 343 344 344 346 346
302 303 304 304 305 306 309 314 321 327 326 326 329 326 327 326 329 326 328 326 324 327 327 325 326 327 329 332 334 337 339 339 340 340 343 345 345 346 347 347 344 344 343 344 345
302 302 304 304 305 306 309 314 316 313 315 317 320 321 323 323 324 326 327 326 325 328 328 327 326 328 330 332 334 336 338 340 340 340 342 344 345 346 350 347 347 345 344 344 344
302 302 303 305 306 312 310 314 313 313 316 319 320 321 321 321 322 324 324 327 327 327 328 327 327 327 329 332 334 336 337 339 340 345 344 345 346 345 345 348 347 346 346 345 344
303 302 302 305 309 309 314 314 312 313 319 323 323 322 322 322 323 322 324 325 329 328 327 328 328 327 328 331 333 335 335 337 339 343 347 342 346 346 344 345 349 348 347 346 344
304 304 302 302 304 309 312 311 311 314 324 327 326 325 325 326 329 327 325 325 328 328 328 328 327 328 328 329 332 333 335 337 338 342 347 342 343 345 343 345 346 348 348 346 345
304 304 303 305 308 310 310 310 313 321 325 327 327 327 328 328 327 328 326 325 326 328 328 328 328 327 328 329 331 332 334 336 337 339 342 344 344 345 345 344 345 345 347 348 347
303 303 304 303 308 311 310 312 318 322 326 326 326 327 327 327 328 328 327 327 328 328 329 329 328 329 327 327 329 331 334 337 339 339 339 340 344 348 344 343 342 342 342 345 348
302 303 306 308 310 307 309 314 318 323 324 326 326 328 327 328 328 328 328 327 327 328 329 330 329 329 328 327 328 330 333 335 340 340 339 339 341 342 343 340 339 339 338 340 346
303 306 308 310 310 309 311 314 318 321 324 325 326 326 328 328 328 327 329 328 328 328 329 331 331 329 329 328 327 329 333 334 336 338 339 339 339 340 341 341 339 338 337 337 342
304 308 309 310 312 311 314 315 318 320 322 323 325 326 327 328 328 327 329 329 329 328 329 330 332 330 329 328 327 327 330 333 338 343 341 338 339 340 341 340 338 339 337 337 339
308 308 310 311 313 314 315 316 316 316 318 320 322 325 326 326 327 328 327 328 328 329 328 328 331 331 331 329 328 327 328 332 334 336 339 340 340 338 341 340 339 339 336 337 338
307 312 310 312 316 315 318 317 316 318 318 318 319 322 325 326 326 327 327 328 328 328 329 329 330 333 331 331 329 328 328 329 336 340 336 340 338 338 338 338 338 337 336 336 337
307 309 309 308 311 314 315 317 317 318 319 319 319 319 321 323 325 326 326 327 326 328 329 330 330 332 334 331 330 329 329 329 330 335 343 340 338 338 338 337 337 337 336 335 337
306 311 310 309 309 311 312 315 316 317 318 318 319 319 318 320 322 323 325 326 326 326 327 330 332 332 334 334 331 329 328 328 329 332 334 335 337 338 338 337 336 335 335 337 338
306 309 309 312 312 312 313 315 316 318 318 317 319 318 319 319 320 321 323 325 325 325 327 329 332 332 332 332 332 331 328 327 328 330 333 333 335 337 340 338 337 335 334 334 335
306 307 307 308 309 310 310 311 312 314 315 316 318 319 319 319 320 320 322 324 326 325 327 329 332 333 332 331 330 330 331 329 328 328 329 330 332 334 335 336 336 334 334 334 334
304 306 306 306 308 309 308 310 311 311 312 314 315 318 321 320 319 321 323 323 325 328 329 331 333 337 337 334 334 333 331 331 331 330 329 329 330 331 334 337 338 335 334 334 334

GFSSW_850_thetae_012.txt.gz
Theta_e
309 309 310 310 310 310 310 311 312 313 315 316 317 316 316 318 320 320 321 325 327 323 322 332 340 339 339 337 341 342 345 348 344 342 339 340 340 344 346 347 350 350 348 350 350
309 310 310 310 310 310 311 311 311 312 312 314 316 317 316 316 318 319 319 323 324 325 321 327 333 338 336 338 340 344 347 345 344 343 341 340 340 339 342 344 346 350 349 349 350
307 308 309 310 310 311 311 311 311 312 312 312 314 316 315 316 318 326 326 324 322 322 322 326 329 334 336 338 339 342 345 342 343 342 341 341 340 339 341 343 344 350 350 349 351
306 307 307 308 309 310 311 311 311 312 312 312 312 314 314 315 325 327 322 322 321 320 324 326 329 333 335 338 337 338 341 342 342 343 343 341 341 340 341 342 344 350 351 350 350
305 306 307 307 308 308 309 311 312 312 312 313 313 313 313 322 325 324 324 323 321 320 326 329 329 333 335 337 336 336 340 339 338 339 340 342 342 341 340 342 343 346 350 350 349
304 305 306 306 307 308 309 310 311 313 313 313 313 313 312 321 323 326 324 326 324 325 326 329 329 332 333 335 335 335 336 337 336 337 338 344 343 340 339 340 343 345 347 350 350
304 304 305 306 306 307 308 309 310 312 313 314 313 312 317 319 325 325 325 328 326 328 326 328 329 330 332 333 333 334 335 336 336 336 339 339 344 342 340 340 343 344 345 347 349
305 305 305 306 307 307 308 309 310 311 313 313 313 313 320 320 324 325 325 326 327 328 327 328 327 328 330 331 332 333 334 336 337 338 338 339 345 340 342 341 342 344 344 345 346
304 304 306 306 307 307 309 310 311 311 312 313 314 321 327 325 326 326 326 325 325 326 328 327 327 326 327 330 331 333 335 336 337 339 339 339 344 344 343 342 342 343 344 345 346
304 304 306 306 306 308 309 311 312 314 316 318 318 329 329 328 328 326 326 325 325 327 326 327 327 328 327 329 331 333 335 337 338 341 340 346 347 342 343 343 343 342 343 345 345
307 306 306 307 307 307 309 313 321 324 326 328 329 324 326 329 327 329 328 328 327 327 328 328 328 328 329 329 332 333 336 338 338 342 341 348 345 341 340 345 342 343 342 344 345
308 307 308 308 308 307 311 317 317 315 316 317 319 325 328 328 328 329 327 328 327 327 329 328 328 327 328 331 331 333 335 338 339 343 343 345 348 344 346 348 343 343 342 342 343
309 307 307 309 308 316 313 313 316 315 316 318 319 319 322 328 328 326 327 329 327 327 329 328 328 327 328 330 332 333 335 337 339 341 341 341 343 350 348 345 345 343 343 342 343
307 306 305 307 311 313 314 316 313 314 317 322 324 322 321 322 324 323 325 328 329 327 327 329 329 328 327 329 331 334 334 335 337 342 344 342 345 346 346 348 346 345 345 344 343
305 305 304 304 306 309 314 313 313 315 323 329 326 325 324 323 326 324 324 325 327 329 329 328 328 328 327 328 330 334 335 335 336 340 344 347 346 349 348 349 350 347 346 346 345
304 304 304 306 308 312 311 312 314 319 323 327 328 327 325 324 326 329 324 324 325 326 329 329 328 329 328 328 329 332 334 335 336 338 341 345 345 346 348 345 344 348 346 346 346
304 304 304 304 309 311 312 313 317 320 326 328 329 329 329 327 326 329 327 326 328 328 329 330 329 329 329 328 329 329 332 336 337 339 340 341 346 348 347 346 344 345 345 347 347
305 305 306 308 310 310 310 314 318 323 323 327 328 329 328 329 328 329 330 329 328 328 329 330 330 329 329 328 328 329 330 336 339 340 339 339 342 344 346 344 343 342 343 346 348
304 307 309 310 311 312 313 313 319 321 325 326 327 327 328 328 329 328 329 329 328 328 330 330 330 331 329 330 328 329 329 331 334 336 338 339 339 338 342 345 343 342 341 343 347
304 308 312 313 312 312 314 316 318 319 322 324 325 326 328 329 328 329 329 330 330 328 329 329 331 331 331 330 330 328 330 329 332 338 341 339 342 343 343 347 344 344 341 339 337
307 310 310 312 313 314 318 316 317 317 318 319 320 322 325 328 329 329 329 330 330 330 329 328 331 330 332 331 329 328 328 329 331 334 338 342 341 342 347 349 347 345 341 338 337
307 310 312 313 315 316 318 318 317 318 318 320 321 321 321 322 327 328 330 329 329 330 330 329 329 332 331 332 331 329 329 328 330 336 335 337 340 339 344 342 344 342 339 338 337
306 307 308 309 313 313 314 315 317 319 320 321 321 320 321 321 324 325 328 329 329 329 329 331 331 333 330 331 333 330 329 329 328 330 334 337 338 338 340 339 343 341 339 339 338
306 309 308 309 310 312 313 313 314 314 317 318 320 321 322 322 323 324 324 327 328 329 327 331 330 333 333 333 332 333 331 330 329 329 332 333 338 338 342 343 341 341 338 338 337
305 308 308 309 310 312 312 314 315 316 315 316 319 320 321 323 322 321 322 323 326 329 330 329 333 332 330 330 332 333 331 331 331 332 333 333 334 338 340 343 340 339 337 336 338
304 306 307 308 308 309 309 310 311 312 314 313 315 318 319 320 320 320 322 324 326 328 328 328 332 331 332 332 331 332 333 331 330 331 331 332 332 334 335 336 339 338 336 338 336
304 304 306 308 308 308 308 308 310 311 311 313 313 315 317 317 316 315 316 319 324 327 330 331 329 334 334 331 332 333 333 333 332 329 330 330 333 334 335 337 341 341 338 340 338

GFSSW_850_thetae_015.txt.gz
Theta_e
308 309 310 310 310 310 310 311 311 311 312 312 314 315 316 317 316 316 318 318 321 322 323 324 338 334 340 343 353 348 346 351 347 344 339 342 348 349 351 350 349 349 349 350 349
308 308 308 309 310 310 311 311 311 312 312 312 312 313 314 316 317 316 318 318 324 326 327 324 325 338 339 339 339 341 343 346 344 342 338 341 348 348 351 350 350 349 350 350 350
307 307 308 308 308 309 310 311 311 312 312 312 312 312 312 314 315 323 324 322 324 324 324 324 324 327 331 337 335 339 339 342 342 342 341 339 338 343 348 351 349 349 352 352 350
307 307 307 307 308 308 309 310 311 312 312 312 312 312 312 312 319 326 324 323 322 322 322 323 323 324 327 332 334 341 339 340 342 342 341 338 339 342 341 347 349 349 351 351 348
307 307 307 307 307 308 309 309 310 310 312 312 313 313 312 314 318 320 322 323 322 321 320 321 324 325 327 332 333 335 338 341 342 342 342 340 340 341 342 348 350 349 350 351 351
308 308 307 307 308 308 309 309 310 310 311 311 312 312 311 317 320 324 323 324 324 324 320 324 326 327 330 332 332 334 335 338 338 341 342 340 341 342 344 350 350 350 349 352 351
310 309 308 308 307 308 309 309 310 311 311 311 312 311 311 317 321 322 326 325 326 325 325 325 327 329 330 330 333 332 332 332 333 335 341 342 342 342 343 347 351 351 350 349 350
311 311 311 310 309 309 310 310 310 311 311 311 311 312 313 320 321 322 326 325 326 327 327 327 326 328 329 329 331 330 328 329 332 334 335 341 345 342 341 346 349 350 350 350 350
312 312 312 312 310 310 311 312 311 312 311 311 312 314 324 325 324 322 323 325 326 327 327 327 327 327 327 325 326 326 327 329 331 334 337 339 341 340 340 344 345 347 348 350 349
311 311 312 312 312 310 311 311 315 319 320 320 317 325 322 323 327 326 325 326 326 325 326 327 328 324 323 322 326 326 328 329 331 335 337 339 340 340 341 342 344 345 346 347 348
309 310 311 313 312 310 310 315 317 321 325 329 328 320 320 323 328 328 326 325 325 324 323 326 324 325 324 323 325 328 329 330 332 337 344 344 343 342 338 342 342 344 344 345 346
307 308 309 313 313 310 313 315 315 315 316 315 316 318 325 327 329 327 328 326 325 325 326 324 325 325 327 326 325 327 329 330 332 338 342 344 344 342 338 336 341 343 344 344 346
305 305 307 311 312 314 314 315 315 314 314 314 316 317 317 321 325 328 328 328 327 326 326 324 327 328 327 327 328 326 327 329 331 339 341 344 346 342 339 341 341 343 343 344 345
304 304 304 308 313 312 313 314 314 313 312 317 320 319 318 318 321 327 329 328 328 326 326 324 327 327 326 326 325 327 329 330 332 333 343 344 349 346 347 349 345 345 342 343 345
306 305 304 304 307 312 312 313 313 314 319 325 324 323 321 319 323 325 329 327 327 328 324 324 327 327 327 325 325 326 330 331 331 332 339 340 339 345 346 346 343 343 342 342 343
305 306 306 306 305 311 311 312 313 315 320 324 325 323 320 319 321 324 326 326 325 327 327 327 327 325 326 327 325 326 327 329 331 331 334 338 341 341 347 345 343 344 343 342 342
305 305 306 306 308 308 310 313 314 316 323 326 325 325 323 321 321 321 322 322 322 322 323 324 327 327 327 325 324 324 322 327 330 332 332 334 340 342 341 341 344 344 344 345 344
304 304 305 307 309 310 312 312 315 321 320 323 323 325 325 325 323 323 324 322 322 322 322 322 324 327 328 325 324 323 323 325 329 332 332 331 336 341 340 342 343 345 345 343 343
303 303 304 306 310 310 312 315 317 319 320 321 319 324 325 327 327 324 324 323 323 322 323 324 325 328 328 328 326 324 323 324 323 328 330 332 332 332 341 340 342 342 345 344 343
304 307 305 312 312 312 313 314 316 317 317 316 317 320 320 320 322 327 325 326 326 325 325 325 327 327 329 327 327 324 325 323 324 325 330 331 332 336 340 342 341 341 341 342 342
306 307 307 310 311 313 313 314 315 315 316 317 318 319 319 320 320 320 324 328 327 328 326 325 325 326 327 327 326 326 324 322 323 325 327 331 332 332 337 342 342 341 341 342 343
305 307 305 306 308 314 313 315 315 316 317 318 319 319 319 319 319 320 321 321 327 328 327 325 324 324 325 327 328 326 324 322 324 324 326 326 328 330 331 341 341 341 340 341 341
305 305 306 308 308 310 312 313 314 314 313 314 316 318 320 320 321 321 321 322 322 323 328 327 325 325 326 325 326 327 326 324 324 321 324 327 329 329 329 335 337 340 341 340 339
305 306 306 307 309 309 310 312 312 312 313 313 315 315 317 319 320 321 321 323 323 322 327 330 326 326 327 327 327 330 328 327 324 324 324 324 324 325 330 335 334 339 340 338 340
304 306 306 307 309 307 308 311 310 310 311 310 313 314 315 316 320 321 321 318 319 323 324 324 327 327 327 328 328 327 329 328 326 324 324 324 324 324 327 338 336 338 338 338 337
303 304 304 304 306 307 308 308 309 309 309 311 312 314 313 316 318 318 317 317 317 317 317 319 327 329 328 329 327 327 329 330 327 327 326 326 327 326 328 334 341 339 338 337 336
303 304 304 305 305 306 307 307 308 308 310 310 310 312 312 314 313 313 313 313 315 317 317 319 323 329 327 329 330 329 327 328 330 329 328 327 327 326 327 328 332 338 339 336 336

GFSSW_850_thetae_018.txt.gz
Theta_e
307 308 308 309 309 309 310 311 311 311 311 312 312 312 312 315 317 316 316 317 317 319 320 332 330 342 352 354 354 351 344 347 344 346 350 349 349 350 349 349 349 349 348 346 347
307 307 307 308 308 308 309 309 310 311 311 311 312 312 312 312 316 317 320 320 317 318 322 325 328 337 350 348 354 345 341 343 342 342 344 348 349 350 349 348 349 349 348 347 348
308 307 307 307 307 308 308 309 309 310 311 311 312 312 312 312 313 321 323 324 318 319 325 326 325 332 340 339 338 343 342 340 340 343 346 349 350 349 349 349 349 349 349 348 348
310 309 308 308 308 308 308 309 309 309 310 311 311 312 312 311 314 326 323 323 319 324 324 323 325 324 322 323 327 334 338 338 341 341 342 347 350 350 349 349 348 349 349 348 348
311 311 311 310 309 309 310 309 309 309 309 310 311 311 311 311 315 320 321 321 322 322 321 321 324 323 322 324 328 332 335 340 342 341 341 342 346 350 349 349 349 349 349 349 348
315 313 312 312 312 311 311 311 311 310 310 310 310 310 310 311 320 319 322 320 322 321 321 321 321 322 324 326 327 331 331 332 338 341 341 337 341 344 348 349 351 350 350 350 349
315 316 315 313 312 313 312 312 311 311 310 310 310 309 309 316 320 323 324 324 324 323 323 323 320 325 326 326 329 330 329 329 331 339 340 341 342 349 349 349 351 351 351 350 348
311 312 314 315 315 313 314 314 312 312 311 311 310 309 311 318 319 320 319 321 325 326 324 325 323 324 326 328 327 326 326 327 328 331 340 339 342 347 349 349 349 351 351 350 349
311 310 311 313 315 315 315 315 312 312 313 312 311 312 315 318 321 323 321 323 325 324 327 327 327 325 325 324 321 322 325 326 326 333 341 339 339 340 349 349 349 349 351 351 351
307 307 310 312 314 314 318 313 316 319 322 322 318 321 318 319 325 325 322 325 323 325 327 327 327 322 320 319 322 324 325 325 326 329 339 339 338 339 350 349 349 349 348 349 350
304 304 306 310 312 314 315 315 315 317 316 316 321 317 319 321 321 326 324 323 323 325 321 323 321 324 322 320 322 324 325 325 327 330 338 339 339 339 346 349 349 349 349 349 348
306 306 305 307 310 313 313 312 313 311 310 313 315 317 318 319 324 328 325 323 323 321 319 321 322 322 323 322 322 322 323 325 326 328 338 339 340 339 341 344 347 347 348 349 348
305 306 306 307 311 311 313 313 313 312 310 312 314 315 316 316 318 323 327 326 322 321 321 321 322 323 325 325 324 322 322 323 325 327 340 341 342 341 337 338 343 345 346 347 348
306 306 306 307 310 310 313 312 312 313 309 313 314 316 315 317 316 320 326 325 324 322 323 322 324 324 324 326 324 321 323 324 326 327 328 339 343 345 341 342 340 342 343 344 345
304 304 305 305 306 308 310 312 312 313 318 322 319 319 317 317 320 321 326 326 325 324 322 323 324 324 325 326 325 324 323 325 326 326 327 332 339 341 341 344 342 341 341 343 344
304 303 304 305 305 308 309 311 312 312 317 319 321 317 315 316 319 322 323 325 326 325 324 323 324 323 325 325 325 325 322 322 326 326 327 329 341 338 345 342 342 341 343 342 343
304 303 303 303 305 306 309 311 310 313 318 323 319 317 316 316 317 319 325 325 325 320 323 326 326 324 323 323 323 321 319 320 322 324 328 326 334 338 340 342 342 342 340 343 342
304 303 303 303 303 303 310 308 312 316 316 317 316 317 320 317 317 318 319 326 324 318 317 322 325 323 324 324 322 319 319 320 322 324 326 326 331 334 336 342 342 342 340 341 341
303 302 303 306 309 308 310 311 311 313 315 315 315 317 317 318 316 317 317 319 322 322 319 317 321 322 323 324 324 323 318 319 319 322 324 326 328 328 332 339 341 341 341 341 341
302 303 303 307 307 310 308 311 310 313 314 315 315 315 317 316 317 317 316 319 320 321 321 319 320 320 323 323 323 321 320 321 315 320 322 323 328 329 330 333 337 341 342 342 341
302 305 302 305 305 309 310 309 312 312 313 314 315 315 317 317 317 318 317 318 320 321 320 320 319 321 324 322 325 324 322 319 318 317 322 322 325 325 327 329 336 340 343 343 343
303 302 302 306 304 304 309 309 311 312 312 313 314 315 315 315 316 318 319 318 320 319 319 319 319 320 322 322 324 325 323 318 321 319 319 323 325 329 326 327 335 340 343 343 343
302 304 303 305 303 304 305 309 310 311 311 312 312 312 313 314 317 318 319 319 317 318 318 321 320 323 320 319 321 323 323 322 314 316 321 323 324 323 323 330 338 338 340 342 343
302 302 304 305 306 304 305 308 308 309 309 310 310 312 313 314 313 317 317 318 316 316 319 316 322 320 325 324 322 322 324 322 322 322 322 322 322 322 322 327 328 335 341 340 341
303 302 303 302 303 303 304 306 308 308 308 309 309 311 313 314 315 315 317 316 316 317 315 314 315 318 320 323 324 324 324 324 323 324 323 324 319 319 319 320 324 328 336 341 338
303 303 303 302 304 302 304 306 307 306 308 309 311 310 311 312 312 315 315 312 314 313 313 312 315 317 323 324 325 325 325 326 325 325 323 321 321 319 321 323 327 332 330 336 338
303 303 303 304 302 301 302 304 304 305 307 309 308 309 310 309 310 311 311 311 310 312 313 313 313 316 321 323 325 325 326 325 325 325 324 322 321 320 322 324 325 329 333 337 337

GFSSW_850_thetae_021.txt.gz
Theta_e
307 307 307 307 307 307 308 308 309 310 310 311 311 312 312 313 313 314 316 316 316 321 326 331 342 348 352 356 356 348 342 345 342 344 350 349 350 349 349 348 346 348 344 343 344
310 309 308 307 308 307 307 308 309 309 309 310 311 311 312 312 313 315 319 319 317 316 320 330 342 352 354 353 355 348 341 342 339 340 349 349 349 349 349 348 349 348 344 344 347
311 311 311 311 309 308 308 309 308 309 309 309 310 311 312 312 313 319 323 325 320 316 318 320 337 348 349 345 353 348 346 340 340 342 348 349 349 349 348 349 348 347 347 346 347
315 315 313 312 311 311 310 309 309 309 309 309 310 310 311 311 313 324 322 322 319 316 323 328 331 339 331 339 340 335 342 343 340 342 348 348 349 348 348 347 347 343 345 346 347
314 314 314 315 314 312 312 312 310 310 310 309 309 309 310 310 315 319 321 322 317 316 322 325 326 324 320 320 326 336 334 333 335 338 347 348 349 348 347 348 347 346 346 347 347
313 312 313 314 315 316 314 314 314 312 311 310 309 309 309 308 319 319 318 318 321 321 323 323 323 324 322 322 323 327 328 330 332 337 342 349 349 349 348 349 348 348 347 347 347
311 312 311 312 314 316 318 317 316 315 312 311 310 308 308 315 319 319 320 319 318 321 322 321 321 322 322 321 324 327 328 326 327 330 340 347 347 350 348 349 349 349 348 347 347
306 307 308 311 312 313 318 320 316 315 313 312 310 308 309 315 317 318 320 322 321 321 322 322 323 321 323 325 325 325 324 327 327 328 338 341 344 348 348 349 349 349 348 348 347
307 307 307 308 309 311 318 318 314 314 316 317 311 310 312 314 315 318 320 321 321 323 322 323 325 324 323 323 321 320 325 325 326 326 337 337 338 347 348 350 349 349 349 349 348
307 306 307 308 308 311 316 314 315 319 321 321 320 319 318 318 325 326 323 320 321 324 323 323 324 319 317 318 323 324 324 324 325 331 338 338 338 348 348 350 350 350 350 350 349
306 307 307 308 308 311 313 315 314 315 313 316 321 319 319 320 320 324 325 321 320 322 320 322 322 320 321 319 321 323 324 323 324 330 338 339 337 348 348 348 350 350 350 350 349
303 304 304 307 308 311 311 311 309 308 308 314 317 315 318 318 319 322 326 320 319 319 319 319 321 321 322 320 321 321 322 322 322 325 330 332 336 343 348 348 348 349 350 350 350
302 303 303 304 308 310 310 310 309 310 307 311 314 314 314 316 317 320 322 321 320 319 318 321 320 321 322 322 322 320 320 323 322 325 332 337 339 339 348 348 348 348 348 349 349
302 302 302 303 306 306 311 310 310 311 308 313 313 314 314 316 317 319 323 322 321 321 320 319 320 322 322 323 322 321 320 322 323 323 324 336 342 340 337 349 348 348 348 348 348
302 302 302 302 303 304 307 309 311 311 319 321 316 315 315 316 317 317 319 324 322 320 319 320 321 321 322 323 321 324 323 322 324 323 324 328 335 335 337 342 343 344 346 347 347
303 302 301 303 302 305 304 309 312 310 315 318 317 315 314 315 316 317 319 324 325 322 321 321 322 322 322 322 322 323 323 320 321 320 322 324 328 328 341 339 339 340 343 345 346
303 302 302 302 303 303 303 309 309 311 315 319 315 315 315 315 316 318 319 320 322 324 323 322 323 321 322 322 322 322 318 320 319 320 324 321 326 328 333 339 339 338 340 342 343
303 302 302 306 309 305 303 307 310 314 313 314 315 314 317 315 316 316 321 322 322 320 321 324 325 324 321 322 322 319 319 316 319 320 322 321 326 327 330 336 340 340 339 340 342
302 302 303 305 305 308 309 308 309 311 314 314 315 315 316 316 315 316 314 323 323 318 320 319 322 321 324 322 322 320 320 319 317 319 319 322 324 325 328 331 335 339 340 340 341
303 302 304 304 305 305 306 308 309 312 312 313 315 314 315 315 316 316 316 316 318 321 318 317 319 317 322 322 321 322 318 320 311 320 322 319 323 324 327 329 332 337 338 339 341
303 303 303 305 306 308 307 307 309 311 312 312 312 313 315 315 316 316 317 317 319 319 317 318 316 320 319 319 322 319 321 317 315 315 321 320 321 321 326 327 330 334 340 340 339
303 300 303 304 302 300 303 304 309 310 310 311 312 313 313 314 315 315 316 318 317 317 318 317 312 319 319 319 321 320 322 317 320 318 314 320 321 324 324 324 325 330 335 338 341
302 302 304 305 303 301 303 306 308 309 308 310 310 310 312 313 314 317 316 317 316 316 319 318 316 316 317 318 319 320 319 321 317 316 323 320 320 319 322 323 329 330 332 335 338
302 301 303 303 303 303 303 305 307 308 308 308 309 311 312 313 312 314 314 317 313 314 318 313 313 317 318 318 319 320 321 321 321 321 323 322 321 321 322 321 323 334 335 335 340
302 300 301 300 301 301 302 304 307 306 308 307 308 310 312 312 313 313 313 314 312 315 312 311 314 314 316 317 319 319 320 322 320 322 323 324 318 319 319 319 320 326 333 337 340
302 303 303 302 302 303 301 304 306 305 305 307 310 308 307 310 310 309 311 311 311 311 310 309 315 313 317 319 320 321 321 322 322 322 321 321 318 317 319 321 320 323 325 327 331
302 302 303 303 303 303 302 302 303 303 306 307 306 306 306 308 308 308 309 311 309 311 310 311 313 314 317 317 318 321 322 322 323 322 322 323 321 318 319 318 318 322 324 327 330

GFSSW_850_thetae_024.txt.gz
Theta_e
310 311 311 310 309 308 308 308 308 308 309 310 311 311 312 312 313 314 315 317 316 316 326 334 339 342 348 353 355 349 342 344 342 346 344 349 348 348 348 346 346 346 344 343 342
314 314 313 311 311 311 310 309 309 309 308 309 310 310 311 312 313 316 319 317 316 316 325 334 343 349 352 352 355 349 343 343 338 339 347 349 349 348 347 346 348 347 344 342 341
314 313 313 315 315 313 312 311 310 310 310 309 309 309 310 310 313 318 322 322 319 316 324 331 343 353 351 350 354 351 351 340 339 340 346 349 348 348 347 347 347 346 344 343 342
312 312 311 311 312 314 314 313 313 312 311 310 310 309 309 309 314 322 322 322 323 316 320 337 345 351 341 345 348 342 341 347 340 341 348 348 348 347 346 346 345 345 342 343 343
310 311 311 310 311 312 313 315 315 314 313 311 311 309 308 309 314 319 321 321 321 317 319 328 347 343 324 329 338 340 339 336 334 335 346 348 348 348 347 346 346 343 342 344 344
307 308 308 308 310 311 311 314 315 316 315 314 311 310 307 305 316 317 318 318 318 317 323 324 339 340 323 321 325 325 330 330 329 329 335 346 348 348 348 348 346 345 345 346 344
307 307 307 308 308 309 312 314 316 319 317 315 312 310 308 312 316 317 317 318 319 316 322 326 324 325 324 321 323 323 324 325 326 328 334 344 349 349 348 347 346 346 345 346 345
306 307 307 308 308 309 312 315 319 319 317 314 312 309 309 314 314 314 321 316 316 318 317 323 324 323 321 323 323 323 323 325 326 326 333 346 349 348 348 348 347 346 346 346 346
303 304 304 305 306 309 311 314 316 315 316 317 313 308 311 313 314 315 316 319 317 318 319 322 322 322 321 321 319 319 323 324 325 325 334 344 342 344 348 348 348 347 346 346 347
302 302 303 304 304 311 311 313 314 318 321 319 318 314 316 317 322 316 316 316 316 318 323 323 323 318 315 317 319 322 322 323 325 330 335 343 336 341 347 348 348 348 347 347 347
302 302 302 303 303 310 312 313 312 313 311 319 321 317 317 318 322 322 324 317 317 319 318 320 319 321 318 318 320 321 323 325 324 327 337 335 337 346 347 348 348 348 348 348 347
301 301 302 303 303 307 311 309 307 306 307 314 316 315 318 320 318 323 323 317 317 317 317 317 322 320 320 318 320 321 322 322 322 323 325 328 336 344 346 348 348 348 348 348 348
300 301 301 302 303 304 309 307 306 308 306 310 313 313 314 316 315 318 322 319 316 317 319 322 319 321 322 320 320 319 320 321 324 323 326 334 334 335 346 347 348 349 348 348 348
300 301 301 301 303 303 308 307 305 310 306 312 311 313 313 315 314 318 321 321 318 319 316 318 319 322 320 322 320 319 319 321 322 321 322 331 332 337 341 348 346 348 349 349 349
300 301 302 302 302 302 304 303 307 309 318 320 313 314 315 316 316 316 319 321 319 318 318 319 319 320 320 321 320 323 320 320 321 320 321 324 330 328 338 349 347 346 347 348 349
300 300 302 302 305 306 305 303 310 312 317 318 314 314 313 314 314 316 319 322 322 320 320 320 320 320 320 320 320 320 322 317 316 317 321 321 324 323 337 343 348 346 347 347 347
300 301 302 305 304 307 306 305 308 312 314 316 314 314 314 314 315 315 317 320 321 321 320 320 321 320 319 320 320 320 318 319 320 320 324 319 323 326 327 336 339 345 346 346 347
300 301 303 305 304 305 304 305 309 312 311 313 314 313 315 314 315 316 315 320 320 320 319 321 322 321 319 320 320 318 316 317 320 319 322 318 322 322 324 333 337 337 339 343 345
300 301 303 304 305 304 308 306 308 309 312 312 313 315 315 315 315 315 314 318 322 317 322 320 322 321 321 320 321 318 320 316 316 317 317 318 319 323 325 324 332 336 336 337 340
301 302 303 304 305 305 305 306 307 309 310 310 313 313 314 314 315 314 315 317 318 318 316 318 322 318 322 322 320 317 316 320 312 321 321 319 320 324 324 327 328 333 336 338 338
302 302 303 302 304 306 302 304 306 308 309 310 310 310 313 313 313 313 315 317 317 317 316 315 315 318 318 321 324 318 318 315 317 314 319 318 320 317 323 324 325 329 334 337 338
302 299 303 305 301 299 300 302 305 308 308 308 309 311 312 313 314 313 317 317 314 316 319 318 312 318 318 318 320 324 321 315 320 318 313 315 320 319 319 322 324 326 330 334 334
302 301 303 303 299 299 302 304 305 307 307 307 308 310 311 312 312 315 314 315 313 313 319 316 314 315 316 317 318 318 321 317 320 315 320 319 322 320 318 320 323 324 329 332 334
302 300 302 302 301 301 303 301 305 306 308 307 307 309 310 311 310 312 314 315 312 315 317 313 312 314 317 317 316 317 318 317 319 322 323 321 322 320 320 320 321 323 326 328 329
302 299 301 299 300 302 302 301 305 305 305 307 309 309 306 310 310 311 310 311 311 313 311 310 315 314 315 316 317 318 318 318 318 320 321 323 322 321 319 319 321 325 325 329 330
302 303 302 302 302 303 302 301 303 304 304 305 309 307 306 307 309 308 307 310 310 310 308 307 313 313 315 317 317 318 318 319 320 318 319 321 319 317 319 321 320 322 324 325 329
302 302 302 303 302 302 301 302 302 302 303 305 305 305 305 305 307 306 306 307 307 310 308 308 311 314 316 315 317 319 319 320 319 318 319 320 320 320 317 317 319 322 324 325 326

GFSSW_850_thetae_027.txt.gz
Theta_e
318 318 317 315 313 312 311 310 310 310 309 309 310 311 311 312 313 313 315 317 316 315 323 332 335 341 350 352 353 350 352 351 345 351 348 350 351 349 348 347 346 346 345 345 345
317 317 317 317 317 317 315 313 312 311 310 310 309 310 310 311 313 315 319 318 317 315 316 333 344 346 350 352 354 354 353 348 343 343 345 350 350 349 348 346 347 347 345 345 346
313 314 315 314 314 316 316 317 315 313 312 311 310 310 309 310 311 318 320 321 318 316 315 334 345 347 350 350 354 354 351 347 342 341 345 350 350 349 348 347 347 347 346 345 345
308 308 309 309 309 311 313 314 317 317 314 313 311 310 309 309 316 319 321 322 322 315 316 346 347 348 348 350 352 352 347 344 343 341 348 350 350 349 347 345 345 347 345 345 345
308 308 308 308 308 308 310 312 315 317 317 314 313 311 309 308 312 318 319 319 321 316 330 343 347 346 346 347 344 350 343 341 341 339 336 349 349 350 348 347 347 347 345 345 345
304 304 305 305 306 308 308 310 313 318 319 318 315 313 309 308 313 315 317 317 321 326 337 341 345 341 332 329 338 333 333 330 330 329 332 346 346 349 349 348 347 346 345 344 345
303 303 303 303 303 305 309 310 315 317 320 319 317 314 310 313 313 315 316 317 319 319 335 329 330 336 328 324 324 324 324 325 327 329 330 337 345 350 348 348 347 346 345 345 345
302 302 303 303 303 304 310 312 314 316 319 318 314 311 310 314 313 315 316 315 318 319 325 324 326 334 323 322 324 325 326 328 328 328 330 336 335 343 349 349 348 346 346 346 346
301 301 302 303 303 305 310 313 314 316 317 317 316 311 311 312 312 313 315 316 317 321 322 324 325 324 322 323 322 325 328 328 329 329 336 339 336 340 348 349 349 347 346 346 346
300 300 301 301 303 307 310 313 313 313 319 319 317 312 314 316 315 313 312 318 322 324 323 322 323 325 324 323 324 324 325 326 328 330 330 339 340 340 348 349 349 348 347 347 346
300 300 300 301 302 304 310 311 311 312 310 320 322 317 318 317 322 318 313 318 318 321 321 322 323 324 323 323 323 322 324 327 328 328 333 334 337 342 348 349 350 349 348 347 347
299 300 300 301 302 304 308 308 303 304 308 313 315 314 319 318 318 321 313 316 317 320 321 323 324 323 323 323 323 322 323 326 326 326 329 332 337 340 348 349 349 350 349 348 348
300 300 300 300 302 302 305 306 303 304 308 311 311 311 313 317 316 319 316 316 318 320 321 324 323 323 323 324 324 323 322 324 326 326 327 331 332 338 345 347 349 350 349 349 348
300 300 300 300 302 303 306 305 304 306 312 316 312 313 312 316 316 317 319 319 319 320 321 322 324 323 324 324 324 324 323 323 325 326 329 331 334 337 338 348 349 349 349 349 349
300 300 301 301 303 304 305 306 304 308 316 318 313 313 313 317 316 316 318 320 321 321 321 322 323 323 325 324 325 324 324 324 325 327 327 328 332 334 340 344 348 348 348 349 349
300 300 301 303 303 304 306 306 309 313 317 319 314 314 315 316 316 317 318 321 322 321 321 322 321 324 324 325 325 325 325 325 324 326 328 328 329 332 335 340 345 347 347 349 349
300 300 303 303 303 304 306 304 313 316 316 317 317 316 316 317 316 317 319 322 324 323 323 323 323 323 324 324 324 325 325 326 326 326 327 329 329 331 332 336 336 343 346 347 349
300 300 303 303 304 304 305 307 313 313 313 313 314 315 317 317 318 318 320 322 324 323 323 324 324 324 323 324 324 325 325 324 324 324 325 328 329 330 330 330 335 337 342 346 348
300 300 303 302 302 304 307 306 310 311 310 311 314 317 318 317 317 318 318 321 324 323 325 324 324 323 324 324 324 324 327 325 323 322 324 326 327 328 329 330 334 337 337 343 346
301 301 302 302 304 305 307 307 309 309 309 311 313 313 316 317 318 318 320 318 321 320 320 324 326 325 324 324 324 324 324 324 324 324 324 325 327 328 332 331 331 334 336 337 339
301 302 303 303 304 305 306 306 306 307 309 310 312 312 314 315 316 316 320 317 315 318 320 321 322 322 325 325 325 323 324 325 325 325 324 324 324 328 332 336 335 333 333 335 337
302 303 303 302 303 303 304 304 304 307 308 309 310 311 314 314 315 317 319 318 313 318 322 319 320 326 325 326 326 325 326 325 326 328 325 325 325 326 329 331 333 332 332 335 338
302 301 302 302 304 304 303 304 304 307 308 309 309 311 312 314 315 315 316 315 314 318 319 318 322 327 326 325 322 326 327 325 326 327 328 325 326 327 327 327 327 328 329 329 331
302 303 302 301 301 302 302 304 304 305 307 307 309 309 310 313 313 314 314 314 311 315 316 316 319 324 328 326 322 324 322 326 326 328 327 328 327 327 328 328 329 329 328 328 327
302 302 302 303 303 303 303 303 304 305 304 305 308 307 307 311 311 312 311 311 311 312 313 316 319 318 318 318 318 320 321 322 323 326 329 328 329 328 328 329 329 328 329 329 330
303 303 302 301 303 303 303 304 304 304 303 304 306 306 306 309 308 310 309 310 311 312 312 313 316 316 317 316 318 320 320 321 321 322 323 324 325 326 324 327 328 327 327 328 327
302 302 302 302 304 304 303 304 303 303 303 304 305 304 305 305 305 305 306 306 307 309 311 312 313 314 316 316 316 320 321 321 322 322 323 325 325 325 325 326 326 327 328 328 327

GFSSW_850_thetae_030.txt.gz
Theta_e
318 318 318 317 317 317 318 317 315 312 311 310 310 310 310 311 311 312 314 318 316 316 318 341 349 350 350 351 353 354 355 351 349 350 351 351 352 350 348 348 348 348 349 349 349
312 312 312 313 313 313 315 317 317 317 313 312 311 311 310 310 311 313 318 318 316 316 331 340 348 347 348 349 352 353 352 347 344 343 345 350 351 351 349 348 348 349 348 349 349
308 308 309 309 309 310 311 313 315 317 318 315 313 311 311 310 313 318 318 319 318 317 330 338 341 344 343 347 350 350 350 344 341 341 343 350 351 351 348 349 348 350 349 349 348
304 304 304 305 306 307 308 310 313 315 318 318 316 314 311 310 320 321 320 321 320 320 329 335 340 341 342 347 346 350 345 344 343 340 342 347 350 351 349 346 347 349 349 349 348
302 303 303 303 303 304 305 307 311 315 316 318 318 316 312 314 315 316 320 320 320 326 329 333 340 338 341 343 344 349 343 340 341 340 338 339 347 349 349 348 347 348 348 348 348
302 302 302 303 303 304 304 309 312 314 316 317 319 318 313 315 314 314 316 317 325 330 330 333 338 337 338 340 343 338 341 340 336 333 334 335 343 346 347 349 348 348 348 348 348
300 301 301 302 303 304 305 311 313 315 317 318 319 317 315 318 313 314 324 329 334 333 331 332 335 338 333 334 330 336 330 330 330 331 333 334 341 345 345 350 350 348 347 347 347
300 301 302 302 302 303 306 310 314 314 317 317 318 315 318 316 316 315 325 332 336 334 331 332 332 338 332 327 327 330 330 333 335 332 332 333 340 341 344 349 351 350 347 347 347
300 301 301 301 302 303 305 310 313 313 315 317 316 317 320 315 313 314 326 328 335 333 332 331 332 331 332 332 329 330 334 336 337 333 335 335 339 339 343 348 350 350 348 347 347
300 300 301 301 302 303 305 310 311 312 315 319 317 317 317 318 317 314 318 322 334 330 327 327 325 327 330 330 332 332 332 336 338 336 334 337 339 339 345 346 348 350 349 348 348
300 300 301 301 302 304 304 311 315 319 312 323 326 321 321 319 320 315 314 323 328 329 326 324 325 326 325 327 329 331 332 334 335 334 334 336 337 338 342 346 347 350 350 349 349
300 300 301 301 302 302 307 309 306 305 309 312 313 317 322 321 323 319 315 322 323 329 327 325 326 326 325 325 326 328 329 331 333 332 332 337 338 338 341 347 347 349 350 350 350
300 300 300 301 302 305 308 307 307 307 311 315 315 315 316 317 321 321 317 320 323 326 325 326 325 325 325 326 326 326 328 330 332 332 331 332 335 336 337 345 346 348 349 349 350
300 299 300 301 306 305 307 306 307 307 316 319 316 317 316 318 321 322 316 320 322 324 324 324 325 325 325 325 325 326 326 327 328 330 333 334 338 339 338 342 345 346 348 349 350
300 300 300 302 303 306 305 306 306 309 317 321 317 315 316 321 324 321 320 317 321 323 324 324 324 325 326 326 326 325 325 326 326 328 330 332 335 336 337 338 340 343 345 348 349
301 300 300 304 306 305 305 306 309 316 316 321 317 317 318 319 320 321 321 319 320 323 324 325 324 326 326 326 326 325 325 326 327 326 329 332 334 336 337 339 338 340 343 347 348
301 301 302 302 305 303 303 308 313 315 318 320 319 320 320 321 321 321 323 324 326 326 325 325 325 325 325 326 326 326 327 328 327 328 328 331 333 334 335 336 338 339 339 346 348
301 300 303 304 304 303 306 311 311 315 317 316 316 318 320 322 321 321 323 325 324 326 327 326 326 325 326 327 327 327 327 327 328 327 327 329 331 333 334 334 334 335 336 342 347
301 304 305 304 303 305 308 309 311 314 313 313 316 320 322 321 321 321 322 324 325 327 328 328 328 325 326 326 327 328 330 327 327 327 328 328 329 330 332 334 334 334 335 336 343
302 304 304 304 304 307 309 308 311 310 310 312 316 317 320 321 321 322 323 322 326 326 326 329 330 327 326 326 327 328 328 327 327 329 329 327 329 330 332 333 334 334 335 337 342
305 305 304 304 305 306 307 307 307 307 308 311 313 315 317 319 319 322 324 320 320 322 324 327 329 330 327 327 327 327 328 328 328 328 329 329 329 331 331 333 333 335 335 336 340
305 306 304 304 306 306 306 306 305 307 307 310 311 311 314 316 319 321 323 322 317 321 325 326 328 331 328 327 327 327 328 328 328 330 328 330 330 329 329 330 333 333 334 336 338
305 305 304 304 306 306 306 306 306 307 307 308 311 312 312 315 318 318 320 316 315 320 324 325 327 330 331 329 329 328 328 329 329 330 333 330 328 330 330 331 332 333 333 333 335
305 307 305 304 304 306 306 306 306 305 306 305 310 310 313 313 314 316 317 315 313 315 316 319 327 330 331 330 329 329 329 329 329 331 330 331 330 330 329 330 330 330 331 332 334
305 305 304 306 306 306 305 306 306 306 305 305 309 308 309 313 313 314 314 314 315 314 316 319 326 326 329 325 324 329 329 329 330 330 331 331 331 331 330 330 330 330 330 331 332
304 304 304 304 304 305 304 306 305 305 304 306 306 306 306 309 310 311 311 313 314 314 315 316 323 323 324 323 323 324 326 327 328 330 331 330 331 331 330 329 330 329 329 329 329
305 304 304 303 305 305 305 305 304 304 305 305 305 306 307 307 307 308 308 309 310 312 314 315 318 320 325 324 323 325 326 326 327 327 328 330 330 330 329 329 329 328 328 328 329

GFSSW_850_thetae_033.txt.gz
Theta_e
309 310 310 310 311 312 312 313 317 318 317 315 312 311 311 310 311 311 314 318 318 316 319 335 342 348 349 349 350 352 356 355 346 347 349 346 345 346 348 350 350 350 352 351 349
305 306 306 306 307 307 309 310 312 314 318 318 316 313 312 311 311 315 318 318 317 316 326 336 343 347 348 347 348 350 353 354 345 343 347 347 344 345 347 348 349 350 352 350 350
303 303 303 303 304 304 304 306 309 311 313 318 319 316 313 312 317 320 321 319 317 316 326 335 340 346 345 344 347 348 354 350 343 342 346 346 346 344 345 349 349 351 352 350 350
302 302 302 303 303 304 304 305 305 307 311 314 318 319 315 312 324 327 319 319 318 318 325 334 338 344 344 345 345 348 347 346 343 341 343 346 346 347 344 343 347 350 351 351 350
301 301 302 302 303 303 304 305 306 312 313 314 316 317 315 320 318 320 318 321 321 323 325 333 337 342 344 342 343 346 346 344 344 342 340 343 347 348 347 344 345 349 351 351 350
301 301 302 302 303 303 304 305 307 312 315 316 317 316 315 322 321 318 321 320 323 327 324 330 335 339 340 341 343 343 344 344 342 341 340 339 345 346 348 347 348 348 350 350 350
301 302 302 302 303 303 304 305 307 311 315 317 317 316 320 323 320 316 323 325 327 328 325 328 331 338 339 340 340 342 340 343 343 339 338 337 342 346 347 349 349 349 349 349 350
301 302 302 302 303 304 304 304 307 310 314 316 317 315 324 324 323 318 323 327 329 330 327 328 330 335 338 337 334 341 341 340 339 337 336 337 341 343 345 349 350 349 348 348 349
301 302 302 302 303 304 304 305 307 311 313 316 318 321 326 322 319 322 322 329 331 333 332 330 331 335 337 338 334 334 338 339 339 338 338 337 340 341 344 347 349 350 349 347 348
301 301 301 302 302 303 304 308 312 315 321 321 323 323 323 323 322 319 321 327 333 334 333 332 333 335 338 341 338 335 336 338 340 340 338 338 339 340 342 345 347 350 350 348 347
301 301 301 302 302 303 310 313 316 323 323 325 326 324 326 323 321 318 324 327 333 333 335 333 336 339 334 339 337 336 335 336 339 339 339 339 340 340 341 344 346 349 350 350 348
301 301 301 301 304 307 310 311 310 309 311 312 313 315 321 324 325 319 321 325 333 335 331 332 334 331 329 329 334 335 335 336 337 338 339 339 340 340 340 343 345 348 349 350 350
301 301 302 301 307 308 311 308 308 310 312 313 315 316 317 323 325 326 318 324 332 336 329 328 328 328 327 327 329 330 333 335 335 337 338 338 339 339 339 340 344 346 349 349 350
302 302 301 302 307 308 309 307 308 309 315 318 320 319 318 319 325 325 319 322 329 333 334 329 329 327 327 327 327 328 329 331 332 335 338 337 339 339 339 339 345 345 349 349 349
302 301 301 305 308 310 307 306 308 311 318 322 320 319 320 320 325 324 324 319 327 328 330 331 329 328 328 328 328 328 329 329 330 333 334 335 339 339 339 339 341 344 346 348 349
302 301 301 307 308 307 306 306 310 317 318 323 320 321 322 321 323 326 324 320 323 326 328 329 327 328 328 328 328 328 327 328 329 329 333 333 335 338 338 339 340 341 342 345 347
302 302 303 306 307 306 307 308 313 314 319 323 321 323 323 324 324 327 327 323 325 326 327 327 328 327 327 328 328 328 328 328 328 329 330 332 333 336 337 337 338 339 340 341 344
302 306 307 306 305 306 307 311 311 314 318 317 317 318 320 324 325 325 327 328 324 325 327 328 329 328 328 328 329 328 328 329 330 329 329 330 333 334 335 336 336 338 338 340 343
303 308 308 305 305 306 309 311 311 314 313 313 315 321 322 324 325 325 326 328 327 325 327 331 330 329 328 328 330 330 330 329 331 330 330 330 331 332 334 335 336 337 338 339 342
307 308 308 305 306 308 311 310 310 310 310 311 313 318 323 324 325 326 326 326 328 327 329 332 333 331 329 329 328 331 329 329 330 332 332 332 332 332 334 334 336 337 337 337 339
309 308 307 305 307 308 309 309 309 307 308 309 310 312 315 318 320 325 327 325 325 327 329 330 332 333 331 329 329 329 331 330 330 330 332 334 333 333 335 335 335 336 336 336 337
308 311 307 306 309 308 309 308 306 307 307 309 310 312 313 314 318 322 325 325 319 323 329 330 332 334 332 329 330 330 330 331 331 334 330 333 333 332 333 333 335 335 335 335 337
309 308 308 306 309 309 308 307 307 308 307 308 308 311 313 315 318 320 321 320 318 323 327 328 331 335 336 332 330 330 330 331 331 331 334 332 333 333 333 333 333 334 334 336 337
309 310 307 307 307 308 308 307 307 307 307 307 309 309 311 313 314 317 319 318 317 318 317 321 330 333 337 334 331 331 330 330 331 333 332 333 333 332 332 334 335 335 334 336 337
308 309 307 308 308 307 307 307 307 307 307 306 309 309 309 312 313 314 316 317 318 318 321 323 330 331 332 333 332 331 330 330 331 332 333 333 334 334 334 333 333 332 334 334 335
307 307 306 307 306 307 307 308 307 307 307 307 307 307 308 310 311 312 313 314 316 317 319 322 325 329 332 332 331 330 332 331 331 331 332 332 333 334 333 331 332 332 332 332 332
304 304 306 306 307 307 308 307 306 306 306 307 307 307 307 308 308 309 309 311 312 314 315 319 323 328 332 331 330 331 331 332 332 332 332 333 333 334 333 333 333 332 332 331 331

GFSSW_850_thetae_036.txt.gz
Theta_e
303 303 303 303 304 304 304 305 308 309 311 316 319 316 313 312 312 311 314 317 318 318 316 331 329 340 348 351 349 350 355 359 354 349 346 344 348 349 350 351 352 354 351 350 351
302 302 302 303 303 304 304 304 305 305 306 309 315 319 317 313 312 313 318 318 318 318 317 331 331 340 346 348 347 350 352 350 350 347 349 344 345 347 348 349 353 352 351 350 349
302 302 303 303 303 304 304 304 305 305 306 310 312 316 317 315 316 319 321 320 318 318 321 330 333 341 345 346 346 348 351 346 345 346 346 345 344 346 346 349 353 352 351 350 349
302 302 302 303 303 303 304 304 305 305 307 312 313 314 315 315 326 328 321 321 320 318 323 328 335 342 346 346 344 348 347 347 345 345 345 346 344 343 345 347 352 352 350 350 349
302 302 303 303 303 304 304 305 305 305 308 313 315 314 315 319 320 321 320 320 319 318 324 327 334 339 346 345 343 345 347 347 345 344 346 343 346 346 345 348 350 352 351 351 350
302 303 303 303 303 304 304 305 305 306 308 313 316 315 314 323 325 324 324 320 321 320 324 325 333 337 343 344 343 344 346 346 346 344 341 342 346 343 343 345 348 351 351 351 350
302 302 303 303 304 304 304 305 305 306 308 311 315 316 318 323 325 321 323 325 323 324 324 325 330 335 340 343 341 341 344 345 345 343 341 339 342 347 346 346 348 350 351 350 350
302 302 302 303 304 304 304 305 305 309 312 312 316 315 322 327 325 323 318 322 325 325 326 325 328 333 337 340 341 342 344 345 344 344 341 338 339 344 348 348 348 349 350 351 350
302 302 302 303 303 304 305 310 312 313 316 315 320 320 327 326 326 325 322 324 326 328 328 327 327 330 333 340 342 342 343 345 345 343 340 338 339 342 348 348 350 349 348 349 350
302 302 303 303 303 307 310 312 314 317 325 320 324 325 325 327 326 326 325 323 327 330 330 329 329 330 333 339 345 341 338 342 343 340 339 338 338 341 342 348 350 350 349 348 349
302 302 303 302 305 309 311 312 311 322 313 321 327 323 326 327 325 323 325 323 329 332 334 333 333 333 333 337 339 339 336 337 339 339 339 339 339 342 343 346 349 351 350 349 348
302 302 302 303 306 309 312 311 309 309 311 312 313 315 320 324 326 324 323 324 330 335 335 335 336 334 333 335 337 339 338 335 335 338 340 340 339 340 342 344 345 349 351 350 348
302 302 302 303 307 311 311 309 308 310 311 311 313 314 315 318 323 327 322 325 330 335 336 336 335 334 334 335 334 339 339 337 336 336 339 340 341 342 341 341 343 348 349 350 349
302 302 302 303 308 311 310 308 308 309 312 316 318 318 316 316 321 325 322 328 330 334 336 335 334 334 334 334 333 333 335 335 336 336 339 342 343 344 340 340 344 343 348 350 350
303 302 302 307 307 311 308 308 308 311 316 323 322 321 320 318 323 322 327 324 329 329 336 336 331 331 332 332 329 328 330 332 332 334 335 336 339 340 341 341 342 345 347 349 350
303 302 303 308 310 309 307 308 309 314 314 322 322 322 322 320 320 323 325 324 325 329 332 336 332 329 329 329 328 328 328 329 329 331 336 335 337 341 341 342 342 343 344 349 349
303 303 306 308 309 307 307 309 311 312 315 318 318 318 319 323 322 322 327 328 325 328 332 333 334 332 330 329 329 328 328 329 330 331 331 333 335 338 337 340 341 341 344 348 348
305 306 308 309 307 307 308 311 311 311 313 314 314 315 318 321 324 324 326 329 325 325 328 330 331 331 330 329 329 328 328 328 331 330 329 331 333 335 336 336 337 339 341 343 347
307 310 311 310 308 307 309 312 312 312 313 311 312 316 319 320 321 324 326 328 328 324 329 331 330 330 330 329 329 329 329 328 328 329 329 329 330 331 335 335 337 337 339 342 344
308 311 312 310 308 309 312 311 311 311 310 309 310 311 312 314 316 320 327 326 328 325 326 329 331 330 330 330 328 329 330 329 330 333 334 332 336 334 335 337 337 338 338 340 341
311 311 310 309 309 310 312 310 310 308 308 308 308 309 310 314 315 318 323 324 324 326 328 326 329 331 331 330 329 329 332 330 329 330 332 335 332 337 338 337 338 339 337 339 341
310 314 311 309 310 310 310 309 308 309 308 309 309 309 311 313 314 318 323 324 322 322 326 329 327 331 333 332 330 330 331 332 332 335 332 334 334 334 337 338 337 337 337 338 339
310 312 311 308 311 310 309 309 307 309 309 310 309 308 310 310 313 317 317 319 319 320 323 325 330 333 333 334 332 331 330 331 332 331 336 334 333 334 335 334 337 336 337 337 339
311 312 311 309 308 309 309 307 308 308 309 308 309 309 309 310 311 314 315 317 316 318 321 321 328 333 335 335 335 333 330 331 331 333 333 333 334 334 334 334 336 337 336 337 339
308 311 309 311 310 310 308 308 309 310 308 308 308 309 310 309 310 312 313 313 316 319 320 324 330 331 332 334 334 331 330 331 332 334 335 333 334 336 338 336 337 336 337 338 340
307 308 307 309 309 309 309 308 309 308 307 308 308 309 308 308 309 311 312 312 315 316 317 320 327 330 333 333 333 334 331 331 331 331 332 333 334 335 336 335 336 336 335 337 336
306 304 304 307 309 309 310 309 308 307 308 307 307 307 308 308 308 308 308 309 310 313 315 318 323 327 331 332 334 335 334 332 331 331 332 334 336 336 337 337 336 334 333 333 333

GFSSW_850_thetae_039.txt.gz
Theta_e
302 303 303 303 303 303 304 304 304 304 305 306 309 317 319 317 314 312 314 318 316 316 323 328 323 339 347 353 353 350 351 356 352 351 349 348 351 353 353 352 353 352 350 348 348
302 303 303 303 303 304 304 304 304 305 305 306 310 313 318 319 317 315 317 318 317 318 318 322 330 330 342 350 352 351 352 351 348 347 346 346 349 352 353 352 352 351 350 348 345
303 303 303 303 304 304 304 304 305 305 305 306 309 313 314 317 316 318 321 319 318 318 318 318 330 329 337 345 348 348 351 346 346 346 346 346 347 349 353 353 351 350 350 350 348
303 303 303 303 304 304 304 305 305 305 305 307 310 314 313 316 322 326 322 321 319 318 318 319 327 331 337 343 346 348 347 346 346 346 345 345 345 345 353 352 351 351 350 350 349
303 303 303 304 304 304 305 305 305 305 306 307 310 315 313 315 320 325 321 320 320 318 318 320 324 332 335 343 344 345 348 347 345 344 344 342 345 351 353 352 350 350 349 349 350
303 303 303 304 304 304 305 305 306 306 306 309 309 315 314 318 325 324 321 321 320 319 318 321 326 330 337 342 344 344 345 346 343 345 345 344 345 348 353 351 350 350 349 349 349
303 303 303 304 304 305 305 307 311 311 311 312 311 313 316 317 325 326 325 324 321 319 318 321 326 328 335 337 342 343 345 347 347 345 345 344 345 344 353 351 351 351 349 349 349
303 303 303 304 304 306 310 311 312 312 313 315 314 315 317 317 326 325 326 325 323 322 319 321 325 325 328 335 339 342 341 344 345 343 343 344 348 347 350 352 351 351 350 350 349
303 303 303 304 304 308 311 311 310 311 317 320 320 319 322 324 326 324 323 324 325 324 324 323 324 325 326 333 337 339 343 340 343 342 343 336 338 345 345 350 351 351 351 350 350
303 303 303 303 304 310 312 310 309 322 317 321 323 322 320 322 326 327 321 320 322 325 326 325 327 324 325 329 336 340 340 339 341 343 341 338 335 346 347 350 347 351 351 350 351
303 303 303 304 305 311 312 310 308 313 311 309 311 316 316 325 327 327 326 325 322 326 327 328 327 327 326 328 331 338 340 337 337 340 340 340 335 348 349 350 350 349 350 351 350
303 303 304 304 305 310 313 309 308 308 308 309 310 311 314 319 317 324 326 325 322 326 327 329 329 328 328 328 329 335 339 339 334 336 336 338 336 336 347 350 349 348 348 349 350
304 304 304 305 306 311 312 308 307 308 308 309 311 311 312 312 315 318 323 325 322 326 329 331 332 331 332 329 329 332 335 337 337 333 334 337 337 337 346 345 346 348 345 350 349
306 304 304 304 306 309 311 308 307 308 309 313 314 316 316 313 316 319 322 324 324 325 330 332 333 333 333 331 330 332 333 336 338 336 334 336 338 337 342 345 348 349 347 347 348
307 306 304 305 307 310 309 307 308 309 313 319 317 316 314 315 317 318 325 323 324 325 330 333 334 334 333 333 332 333 331 334 337 336 332 335 339 339 337 343 345 346 344 349 348
309 307 305 307 309 308 308 308 309 310 314 314 314 313 312 314 317 319 320 322 323 324 328 331 335 333 333 333 333 333 331 328 332 332 331 329 336 337 339 338 339 344 347 349 349
310 309 308 308 308 308 307 308 309 310 313 313 311 311 311 315 318 318 320 319 323 323 328 328 331 333 330 332 331 331 325 324 325 329 329 326 329 329 335 337 337 340 346 349 350
309 310 310 311 309 310 308 309 311 312 312 311 310 310 311 312 313 314 315 321 324 323 325 328 330 332 332 328 327 328 326 322 324 325 325 326 327 329 330 332 337 340 344 349 350
309 312 312 312 311 309 309 310 311 311 310 309 308 308 309 310 311 312 314 320 324 326 323 325 328 331 333 330 327 326 325 323 323 325 325 325 324 325 327 330 329 333 340 348 349
307 312 312 310 310 309 310 311 311 310 308 308 308 307 307 310 311 311 314 318 322 321 321 322 322 328 331 332 330 326 325 324 323 324 325 326 326 327 326 327 330 329 331 346 348
308 312 312 311 309 309 310 311 309 309 309 308 309 309 308 311 311 311 313 314 318 318 318 319 322 323 326 329 330 325 325 325 323 322 324 329 329 328 327 327 329 330 332 342 347
308 312 312 311 309 310 309 309 308 307 308 309 309 309 307 308 310 310 312 315 315 315 314 319 321 323 323 326 329 327 325 324 325 324 325 325 327 331 331 329 329 331 333 338 345
308 311 311 310 309 309 309 308 308 308 309 309 308 308 307 309 311 312 314 313 313 313 316 319 321 327 325 324 325 327 326 325 324 325 326 325 327 333 331 329 330 333 334 334 341
310 309 310 309 309 309 309 309 308 308 309 309 309 308 308 309 310 312 312 313 311 312 315 317 320 323 328 325 327 328 328 326 326 327 327 327 330 333 334 332 334 334 336 335 340
308 308 308 309 309 308 309 309 310 309 308 308 308 308 309 309 308 310 310 310 310 313 312 312 318 323 328 329 330 332 328 328 327 327 328 327 331 333 335 336 337 336 338 338 338
307 307 305 305 307 309 309 310 310 309 309 307 307 307 307 308 308 308 308 308 310 310 310 310 317 322 329 330 332 333 333 329 328 328 327 328 328 332 333 337 336 337 336 335 338
306 306 305 305 306 308 309 310 310 309 310 309 308 306 306 307 307 308 307 308 308 309 309 310 314 319 329 330 331 333 333 332 329 328 328 329 329 332 334 336 333 335 333 333 333

GFSSW_850_thetae_042.txt.gz
Theta_e
303 303 303 303 303 304 304 304 305 305 305 305 306 309 313 320 320 317 314 317 316 317 322 318 335 338 347 352 353 345 348 356 353 353 350 350 353 353 352 351 351 350 343 339 337
303 303 303 303 303 304 304 304 305 305 305 305 306 308 312 314 319 321 320 317 315 315 319 319 331 344 350 351 352 351 353 354 348 347 348 348 351 353 352 352 351 346 340 338 334
303 303 303 304 304 304 304 304 305 305 305 305 306 309 313 313 317 323 322 318 315 315 316 322 321 334 334 347 351 352 352 347 345 347 347 346 353 352 352 353 350 347 346 346 339
303 303 304 304 304 304 304 305 305 308 308 305 307 308 315 313 323 323 320 321 316 316 317 321 330 328 329 337 343 349 351 348 344 345 347 345 347 352 352 351 350 347 347 346 343
303 304 304 304 305 305 306 307 309 310 310 310 308 309 315 312 318 324 321 320 317 317 318 317 322 325 329 334 338 344 345 347 347 344 344 343 346 352 352 351 349 348 347 346 346
304 304 305 305 305 305 309 311 312 312 310 312 311 312 313 315 320 324 324 321 319 317 317 318 324 327 329 330 338 343 343 345 344 341 343 342 346 352 351 350 350 349 347 347 347
304 304 305 305 305 306 310 310 309 308 310 311 313 315 313 312 319 325 324 323 320 320 318 318 326 326 328 333 334 337 343 345 342 342 342 343 347 354 351 350 350 350 349 348 347
304 305 305 305 305 307 311 311 309 314 317 319 319 316 313 313 317 321 325 324 323 320 320 318 322 324 324 327 326 336 339 347 345 344 345 344 350 353 350 350 350 349 349 349 349
305 305 305 305 305 309 311 310 308 316 313 311 321 322 318 317 322 324 323 325 325 320 319 318 319 321 324 322 323 331 336 341 346 345 345 345 348 352 350 349 349 349 348 348 349
307 306 307 306 305 307 312 310 307 310 317 310 321 320 317 319 322 324 325 325 324 322 320 319 320 318 320 321 327 332 338 337 340 339 344 346 348 352 350 350 349 348 348 348 348
308 307 307 307 305 308 312 309 307 307 307 307 307 312 310 311 314 324 325 324 326 323 321 322 321 322 322 321 325 330 335 338 337 337 339 344 351 353 351 350 350 350 349 349 349
309 308 308 308 306 309 312 308 308 307 306 309 309 308 308 309 309 319 323 323 323 323 322 324 324 323 324 322 324 327 329 336 337 337 334 336 350 349 349 350 351 351 350 350 349
308 309 309 308 307 306 308 307 307 307 305 308 312 311 312 312 310 313 318 323 322 322 323 325 327 326 326 325 325 326 327 329 336 336 333 335 342 347 348 350 347 348 351 351 350
307 309 310 309 307 308 307 307 308 308 304 310 313 313 312 313 312 316 315 319 323 321 321 323 326 327 328 327 325 325 326 328 332 335 336 333 339 349 350 349 346 347 350 350 350
304 309 310 307 307 308 307 308 308 308 308 314 311 311 310 312 314 314 315 317 320 322 320 325 326 329 328 328 328 326 326 328 331 332 333 335 333 343 350 352 349 346 347 349 350
304 308 310 308 309 309 308 308 309 307 311 312 309 309 309 310 311 312 313 316 321 320 322 323 328 329 330 330 330 329 329 329 329 328 333 334 331 333 352 352 348 345 342 342 346
304 306 311 310 310 309 309 309 305 306 310 309 307 307 307 308 310 311 312 312 316 319 321 323 324 328 331 331 330 330 328 330 331 328 330 331 326 330 337 347 346 346 345 345 343
303 310 312 311 310 310 309 305 309 309 307 307 306 306 306 309 310 310 311 312 316 316 320 321 323 325 329 331 332 330 326 326 332 326 329 322 323 325 326 335 344 346 348 345 343
304 312 311 310 310 310 309 306 307 307 307 307 307 307 306 309 311 309 310 313 315 315 317 319 322 326 327 330 330 330 330 322 319 319 320 322 322 323 324 324 328 341 346 345 346
303 311 312 311 311 309 305 308 308 308 307 307 307 307 306 308 310 310 310 312 315 314 313 315 319 322 327 327 329 325 323 325 317 323 323 322 322 323 323 323 322 326 343 344 348
305 310 312 311 311 309 304 306 307 307 308 308 308 308 305 305 305 310 309 310 313 313 312 312 315 321 320 324 329 328 325 322 321 317 321 322 324 323 322 323 323 323 340 346 348
306 306 310 309 307 305 305 306 308 306 308 307 307 307 305 306 308 309 310 312 313 312 312 313 317 320 322 321 322 331 323 321 323 320 318 320 325 326 324 324 324 325 328 346 348
307 309 309 309 304 304 306 309 308 308 308 308 307 307 307 307 309 311 312 310 311 311 313 313 319 319 322 320 320 321 327 321 318 318 320 324 325 325 324 327 327 328 326 332 346
308 304 307 308 306 306 306 308 309 309 308 308 308 307 307 307 308 309 311 311 310 310 311 311 309 314 321 320 320 322 323 325 321 322 322 323 324 325 325 328 326 325 327 331 344
307 304 306 303 305 305 306 308 309 309 308 308 306 307 307 307 307 308 308 308 308 309 310 309 309 310 310 313 318 323 326 325 322 324 324 324 325 324 324 330 328 330 331 334 344
306 307 305 305 305 305 306 308 310 310 309 309 309 309 306 305 306 308 308 307 309 308 308 308 310 309 312 321 325 328 330 330 324 324 324 322 324 323 327 333 332 335 337 338 340
306 306 306 307 306 306 307 307 307 308 309 309 309 308 307 306 307 307 307 307 307 309 310 309 309 309 315 322 329 330 327 331 327 324 324 324 323 327 335 340 338 330 334 336 343

GFSSW_850_thetae_045.txt.gz
Theta_e
303 303 303 303 303 303 304 304 304 305 305 305 306 306 307 311 315 320 319 315 315 319 321 318 320 328 346 351 352 342 346 353 354 353 353 350 352 353 352 350 349 346 342 341 340
303 303 303 304 304 304 304 305 305 306 307 306 305 306 308 310 312 318 324 321 315 317 320 318 327 339 349 351 352 349 350 351 348 348 348 348 352 353 351 351 343 341 341 340 338
303 304 304 304 304 304 305 308 309 309 309 309 308 307 307 312 313 322 320 321 316 316 317 318 333 346 348 350 351 352 352 348 346 346 346 346 352 352 351 352 344 338 340 338 343
304 304 304 304 305 305 306 310 311 311 311 311 311 308 309 313 322 321 320 321 318 314 316 322 339 334 332 337 344 351 350 351 346 346 348 346 352 352 352 351 350 342 340 338 345
305 305 305 305 305 305 307 310 309 308 309 309 309 311 311 312 313 320 321 320 317 314 317 321 329 330 330 333 337 347 347 347 350 350 347 344 351 352 352 351 347 340 338 337 343
305 305 305 305 306 306 309 311 310 308 315 312 310 312 312 311 315 321 321 321 316 314 317 325 327 328 328 328 338 339 340 342 344 345 341 342 344 352 351 348 343 343 339 337 337
307 307 307 306 306 306 309 310 309 308 315 310 311 316 315 311 315 323 323 322 317 317 317 318 323 326 325 330 330 333 338 337 340 342 343 344 352 353 350 348 346 345 344 341 342
308 308 308 308 306 306 307 310 309 308 317 313 310 317 314 311 312 316 317 324 318 317 317 317 318 325 323 325 324 333 332 337 339 344 341 343 347 351 349 348 347 346 346 344 346
309 309 309 308 307 306 307 309 307 308 316 310 315 320 318 319 319 320 319 325 321 316 317 317 318 319 323 323 321 324 333 340 340 342 344 344 353 351 349 349 348 346 346 346 346
309 309 309 309 308 307 308 308 307 308 310 309 313 315 314 312 312 316 319 322 325 323 318 318 318 315 317 318 328 325 334 334 336 339 344 344 347 351 349 349 349 348 347 347 347
306 307 309 308 309 307 308 307 307 307 307 307 309 307 311 311 313 312 318 322 324 319 316 317 316 318 318 321 323 328 333 336 335 336 341 345 346 353 349 349 349 348 348 347 347
304 304 307 309 309 306 308 307 307 307 305 308 311 309 311 310 310 312 317 322 322 319 318 318 318 317 318 320 321 322 324 329 331 334 334 337 345 352 350 348 348 348 348 347 348
304 305 307 310 308 307 306 308 308 308 304 308 311 310 311 311 310 312 313 317 320 323 321 322 323 321 322 322 322 321 322 325 329 333 333 339 347 352 351 350 348 348 347 347 347
304 304 307 309 307 308 308 308 308 308 303 308 309 310 309 312 311 312 314 313 319 322 323 321 322 323 322 324 322 320 323 325 328 331 334 332 344 355 353 351 349 349 348 348 347
304 304 305 310 308 309 308 309 309 308 307 311 307 309 308 307 309 312 313 316 315 317 319 321 323 323 324 325 324 324 323 324 326 327 330 331 332 343 349 352 351 349 350 349 348
303 307 311 311 309 310 309 309 309 306 309 309 307 307 306 308 309 310 312 316 316 317 317 319 322 323 324 325 325 325 324 325 325 325 329 329 331 330 349 348 350 348 347 348 350
303 311 311 310 310 311 310 309 305 305 307 307 306 305 305 309 308 309 312 314 315 319 318 319 321 320 325 325 325 326 322 325 327 327 331 328 329 332 343 345 346 347 346 344 348
303 312 311 311 311 310 310 304 307 308 306 306 306 306 306 309 309 309 308 313 314 314 316 318 321 321 323 327 327 326 327 325 329 330 331 325 327 327 332 342 344 345 346 345 347
303 311 312 311 310 310 309 305 307 307 307 306 306 306 306 308 309 308 309 313 313 312 314 317 319 315 318 324 328 328 329 325 322 317 322 327 321 320 325 336 343 345 346 346 344
303 310 312 311 311 310 304 306 307 307 307 306 307 307 307 304 305 308 308 312 314 312 312 313 316 315 319 321 325 329 324 327 318 328 322 320 321 326 322 323 333 344 345 345 345
303 310 310 310 310 308 303 303 306 307 308 307 307 307 306 305 306 308 308 311 312 312 312 312 314 317 318 320 323 324 328 325 326 320 331 320 322 319 321 322 324 336 342 343 345
304 304 308 309 306 302 303 305 308 306 308 307 306 305 305 305 307 308 311 311 311 310 313 312 316 321 319 320 318 319 325 318 330 326 316 320 326 322 321 321 320 324 335 337 343
305 308 308 308 304 303 304 307 308 308 307 307 307 306 306 306 307 310 311 310 311 311 311 312 316 313 320 317 317 318 320 321 321 315 318 328 329 320 321 323 325 324 323 330 339
307 303 307 306 305 304 305 307 309 309 308 307 306 306 306 306 306 307 310 311 309 309 313 311 313 311 317 314 312 313 313 314 317 319 320 321 324 322 321 321 322 325 330 328 335
306 303 305 302 303 303 304 306 308 310 309 307 307 308 307 305 305 306 307 307 308 310 309 309 310 310 310 310 311 311 312 313 318 321 322 322 319 321 319 322 327 330 330 325 334
305 306 305 305 305 305 305 307 308 308 308 309 309 309 307 304 304 303 306 306 306 307 308 308 309 309 312 311 312 313 314 318 320 324 320 320 320 320 335 339 340 339 330 327 341
305 305 305 306 306 307 307 308 308 307 308 309 308 308 308 308 307 307 306 306 305 307 308 308 310 310 310 312 314 322 322 323 326 322 324 321 323 332 339 341 341 342 340 332 338

GFSSW_850_thetae_051.txt.gz
Theta_e
305 305 305 305 305 305 305 308 309 309 308 308 309 309 309 307 307 309 314 320 316 314 317 327 335 336 344 348 351 346 349 351 354 355 353 349 352 353 351 345 345 343 343 344 343
307 307 306 306 305 305 305 307 309 309 309 309 312 310 309 309 308 310 313 315 316 314 314 321 338 340 343 348 351 346 353 350 348 348 351 350 352 353 351 347 343 343 343 344 343
308 308 308 307 307 306 306 307 309 309 309 310 310 310 309 309 311 319 321 320 317 314 316 328 334 339 344 348 350 350 353 349 348 347 349 349 351 354 352 352 346 344 345 343 343
308 308 308 308 308 307 307 307 308 308 308 308 310 310 310 310 319 319 319 320 318 313 320 328 335 339 339 346 348 352 350 350 349 347 347 350 351 353 352 352 349 345 345 343 343
307 308 308 308 308 309 308 308 307 308 308 309 312 311 309 310 310 315 317 320 319 313 325 326 334 335 334 339 345 349 351 350 350 349 349 349 349 350 352 349 346 345 344 343 342
305 306 307 307 308 308 309 308 308 308 307 311 310 312 311 312 311 319 320 319 317 320 328 328 332 333 334 343 342 343 345 348 346 345 346 346 346 350 350 346 345 344 344 343 342
305 305 305 306 307 308 308 308 308 308 308 308 310 313 313 313 314 315 320 318 316 326 328 332 330 330 328 332 336 338 342 339 339 341 343 343 347 352 346 345 344 344 343 342 341
304 305 305 306 307 308 308 308 308 308 308 310 312 314 316 316 314 314 313 321 315 322 325 329 327 331 324 324 325 330 332 342 342 341 342 344 350 352 344 345 344 344 343 342 341
304 304 305 306 308 307 308 309 308 308 308 312 311 313 312 311 311 312 316 320 318 326 318 321 322 325 325 327 328 329 332 338 344 341 344 345 348 352 344 344 343 342 342 342 341
304 304 305 305 307 308 308 308 308 308 309 312 310 312 311 310 311 313 315 320 319 323 319 317 322 321 322 326 324 328 329 338 347 343 343 346 347 352 346 345 342 341 342 342 341
304 304 304 308 307 307 307 308 309 309 308 309 309 309 309 311 312 312 316 321 320 317 318 317 319 322 321 323 326 330 332 336 341 342 344 347 347 353 349 348 344 341 340 341 341
303 303 307 310 309 307 307 309 309 308 309 308 309 309 308 309 310 310 317 322 323 320 317 317 318 319 319 319 323 324 329 334 336 336 340 344 346 350 351 350 348 344 341 340 340
302 303 310 310 309 308 309 309 310 309 307 308 308 308 308 309 310 310 312 314 322 323 319 318 319 318 318 318 319 322 325 330 333 330 335 339 343 347 352 350 349 347 345 343 341
302 303 310 309 308 309 309 309 309 308 309 311 309 308 309 310 310 309 313 313 315 324 322 322 322 319 318 318 319 320 321 326 328 329 341 338 349 344 348 353 351 349 348 346 344
302 303 310 309 309 310 309 309 309 307 309 309 308 308 308 309 309 310 312 316 316 317 321 325 322 322 320 320 319 319 320 320 325 330 330 334 341 344 346 352 353 351 350 349 347
302 302 308 310 310 310 309 309 307 309 309 308 308 307 309 309 309 309 313 314 315 319 319 320 322 323 323 321 319 320 322 322 321 324 334 334 336 341 346 349 351 350 350 350 349
303 302 308 310 310 310 309 308 309 309 308 308 308 307 308 308 309 310 314 315 317 319 321 320 319 320 323 324 322 321 322 326 326 324 328 334 335 336 338 342 346 350 349 349 349
305 303 310 309 310 310 309 309 309 309 308 307 307 307 308 307 308 309 312 315 313 314 319 321 319 320 321 323 324 324 324 323 327 325 322 330 335 334 334 333 338 343 346 348 349
304 307 310 310 311 311 309 310 310 308 308 307 307 308 307 307 307 308 311 314 314 311 316 320 321 317 319 320 323 325 326 324 323 325 326 325 330 332 332 333 334 338 344 348 349
305 309 309 310 310 310 310 308 308 307 307 307 308 307 307 307 307 308 308 313 314 310 312 315 319 318 318 319 321 324 325 327 326 326 328 326 327 330 335 334 334 336 340 345 348
305 309 308 309 308 307 310 307 307 307 308 308 307 307 307 307 307 308 308 312 312 310 312 313 313 316 318 322 323 323 325 327 327 327 327 327 327 329 332 336 335 336 336 340 346
305 309 308 310 309 305 309 307 307 308 307 308 307 307 307 307 307 308 308 310 311 309 309 312 314 315 316 319 319 319 323 325 330 331 329 329 327 328 332 333 334 334 335 337 342
305 305 307 309 310 309 307 307 307 309 309 308 308 306 307 307 307 309 310 311 310 310 310 312 314 313 312 317 317 319 318 319 322 325 332 328 327 329 330 330 329 329 331 333 341
305 308 306 306 304 306 305 307 308 308 309 309 308 307 307 307 307 307 310 311 310 310 312 311 311 310 313 314 313 316 315 316 319 329 331 333 331 329 329 331 331 328 328 326 330
305 305 304 308 307 307 306 306 307 308 309 308 309 309 309 308 307 308 308 309 310 310 311 310 309 308 308 309 311 311 312 314 317 322 327 331 330 333 332 332 331 327 331 336 334
306 306 305 306 305 307 306 307 307 308 307 308 308 309 310 311 308 307 307 308 309 310 310 309 308 309 308 308 311 313 313 314 316 318 319 321 324 325 335 337 337 342 342 343 343
305 306 306 307 307 307 308 308 309 308 307 307 308 308 308 306 307 307 307 307 306 308 311 310 310 308 307 311 313 316 316 316 319 321 322 325 326 328 335 342 339 339 339 340 342

GFSSW_850_thetae_054.txt.gz
Theta_e
308 308 308 308 307 307 306 307 308 309 309 308 310 311 310 309 307 308 311 318 315 313 332 342 344 343 345 348 352 350 352 355 355 355 355 351 351 352 352 349 348 349 349 348 347
308 308 308 309 309 308 308 307 308 308 308 308 310 310 310 309 309 311 310 314 318 313 337 341 342 341 343 347 352 350 355 353 349 349 349 350 352 354 354 350 348 347 347 348 346
306 307 308 308 308 309 309 308 307 308 308 308 309 311 310 309 316 321 320 320 318 314 334 337 338 339 340 345 350 352 354 350 348 348 349 351 352 354 354 354 350 349 348 348 346
305 305 306 307 308 308 309 309 308 308 308 308 310 311 310 310 324 318 318 319 318 316 330 331 335 335 336 343 344 350 349 350 348 349 348 349 352 353 353 353 352 349 348 347 346
305 305 305 306 307 308 308 308 308 308 308 308 310 312 309 317 314 316 318 320 318 327 331 331 333 332 333 335 339 346 348 349 349 348 349 349 350 350 352 352 350 349 348 347 346
304 305 305 306 307 307 308 308 308 308 308 308 311 312 315 317 315 317 320 319 320 327 332 328 329 329 330 333 335 340 342 350 349 348 348 350 349 348 351 351 351 349 348 346 345
304 305 305 305 307 307 308 308 309 308 308 310 312 312 318 317 315 318 326 326 327 325 327 326 329 329 326 331 333 336 344 344 345 345 345 347 349 350 352 351 351 350 348 346 345
304 304 304 305 306 307 308 309 309 308 309 312 316 319 318 313 314 318 324 325 331 327 327 328 326 329 325 327 325 330 337 347 347 342 344 346 351 351 351 351 351 350 348 346 345
303 304 304 305 306 307 309 308 308 309 311 312 316 318 315 313 312 312 314 325 330 323 326 327 325 328 328 326 325 326 333 340 346 344 345 347 351 353 350 351 351 350 348 347 346
303 304 304 308 310 308 308 308 309 310 310 312 311 317 312 313 313 312 317 324 325 324 320 321 323 326 327 326 327 329 329 335 341 348 348 349 349 352 349 350 351 350 348 347 346
303 304 305 310 309 308 308 310 315 313 312 312 311 312 311 312 313 315 323 324 323 325 322 320 324 324 324 325 326 329 332 333 344 346 348 349 349 353 350 350 350 350 348 347 346
303 303 307 309 309 308 310 311 310 310 313 309 309 311 310 311 314 314 320 324 323 327 323 321 322 324 324 324 324 326 332 335 338 343 347 348 349 349 353 351 350 349 348 347 346
302 302 308 309 309 310 310 310 309 309 313 311 311 311 310 312 313 313 317 321 325 324 323 323 323 322 322 324 324 325 326 331 336 338 340 346 349 348 352 352 351 348 347 346 346
303 302 305 309 310 310 311 309 309 308 315 314 312 311 311 312 313 312 315 318 321 326 325 324 323 322 322 322 322 323 323 324 331 335 344 344 351 348 349 354 353 351 348 346 345
308 303 303 310 310 312 309 309 308 308 313 312 312 310 311 313 312 313 315 318 320 321 326 326 325 324 323 323 323 323 323 323 323 332 337 340 348 347 347 352 354 352 351 349 346
308 305 303 310 311 310 309 309 308 314 314 312 311 311 313 312 312 313 315 316 318 320 321 324 325 325 326 324 324 323 323 323 323 324 333 338 342 346 346 347 349 351 350 350 349
307 304 305 309 312 310 309 309 314 314 312 312 312 312 312 312 312 313 315 316 318 319 319 321 322 324 325 326 326 324 324 327 326 324 324 332 338 341 341 344 345 348 349 349 350
306 304 309 310 310 311 310 314 315 313 313 311 311 311 312 311 312 311 313 315 316 317 318 321 321 321 324 326 327 326 326 327 329 327 324 324 332 338 338 338 340 344 347 349 350
307 308 311 310 310 311 313 316 315 313 311 311 311 312 312 311 311 311 313 314 315 315 317 319 319 322 322 323 326 328 328 327 328 329 329 326 325 328 335 337 338 338 342 347 348
306 311 310 309 309 310 316 313 313 310 310 311 312 312 313 312 311 312 311 314 315 313 314 318 319 320 322 322 323 326 328 329 328 330 331 329 329 326 334 336 337 338 338 342 346
308 313 310 309 309 313 317 314 311 309 310 311 312 311 312 312 311 312 312 313 314 312 312 314 315 317 319 322 322 325 327 328 329 329 331 331 330 328 330 332 336 337 337 339 344
309 314 310 310 314 312 314 311 308 311 310 310 310 311 312 312 311 311 311 311 311 310 311 312 313 316 315 320 323 323 326 327 330 332 330 331 331 329 329 330 332 335 336 337 339
310 310 310 312 317 315 312 312 310 312 312 312 312 311 311 311 311 311 310 310 311 310 311 313 312 314 313 314 317 321 324 326 327 330 333 333 332 330 330 332 330 332 334 336 338
311 316 312 310 310 311 312 312 312 310 311 311 312 311 311 311 310 310 310 311 310 309 312 311 311 312 312 314 314 318 321 322 324 329 330 332 333 331 332 331 333 333 333 333 337
310 311 309 313 310 310 311 310 309 310 310 310 312 311 311 311 310 310 310 310 310 310 312 312 312 311 311 311 310 312 314 317 319 324 328 330 332 334 331 330 331 331 332 334 333
312 311 310 309 310 311 310 311 310 310 309 309 311 310 310 313 312 312 310 310 310 311 312 312 311 310 310 310 309 309 312 315 317 319 322 326 328 331 331 334 337 334 339 340 339
309 308 310 308 309 309 309 309 309 309 309 309 309 309 308 309 309 309 310 310 311 311 313 312 312 311 310 309 309 312 313 317 318 319 321 325 327 331 332 335 341 341 341 341 342

GFSSW_850_thetae_060.txt.gz
Theta_e
306 306 306 306 307 307 308 309 309 308 308 308 308 308 311 310 309 309 311 322 320 319 319 329 337 345 346 347 346 350 359 360 357 355 355 352 351 351 354 354 354 353 352 350 347
305 305 305 306 306 307 307 308 308 309 309 309 309 309 310 311 309 318 320 320 321 317 323 336 337 343 345 345 345 349 359 357 352 352 356 354 352 355 354 352 353 354 353 350 347
305 305 305 305 306 306 307 307 308 308 309 309 309 310 311 311 320 325 322 319 319 315 331 336 337 342 343 344 346 347 355 353 351 351 352 351 352 353 352 354 352 354 352 349 346
304 305 305 305 306 306 307 307 308 308 308 309 309 310 312 311 332 327 322 315 319 316 338 339 339 340 342 344 344 348 348 350 349 349 349 353 347 345 351 355 352 353 351 349 346
304 304 305 305 306 306 307 308 308 308 309 309 309 312 312 320 325 321 321 320 319 316 335 341 338 339 340 340 342 344 347 347 348 350 349 351 350 349 354 351 354 352 350 348 346
304 304 304 305 306 307 307 307 308 309 310 310 312 312 312 328 320 325 327 326 319 319 335 340 337 337 336 337 338 341 341 345 350 350 350 348 350 350 353 349 354 351 350 348 347
304 304 304 305 306 307 309 309 309 309 309 313 312 315 328 325 319 324 327 331 326 319 330 337 335 334 334 334 333 334 340 343 349 349 352 350 352 350 353 354 353 351 350 349 347
303 304 305 304 307 309 310 310 310 309 309 314 319 325 329 317 318 322 327 326 326 321 327 331 332 332 333 331 331 333 337 340 346 351 349 352 356 353 352 354 352 351 350 349 348
303 304 304 304 308 310 310 309 310 311 312 316 322 326 327 317 317 320 327 328 326 327 330 332 331 330 330 333 331 331 336 340 343 351 351 349 355 349 351 353 352 351 350 349 348
303 304 304 304 309 310 312 313 310 312 313 315 318 323 320 318 318 317 319 327 330 327 328 330 329 330 330 332 333 331 333 335 341 349 350 349 353 352 351 350 352 350 350 350 348
307 308 305 304 309 313 315 317 320 322 321 320 321 320 318 317 317 319 320 327 331 329 331 330 332 332 332 330 332 330 330 332 334 346 350 348 350 349 343 347 350 351 350 350 349
309 309 308 304 309 314 315 317 315 316 318 317 316 316 316 317 319 322 325 327 331 330 328 331 332 331 328 331 331 332 331 330 333 342 349 353 351 349 344 344 348 350 349 350 349
309 308 309 305 309 315 315 316 315 315 317 319 316 317 316 316 319 320 324 325 328 329 329 328 327 328 329 329 329 328 329 329 333 338 346 346 354 348 344 346 351 349 349 349 349
309 307 307 305 313 316 317 315 315 314 319 319 316 316 315 316 318 317 318 323 326 328 327 329 328 328 327 328 329 328 328 328 329 334 340 347 357 354 350 351 353 349 348 348 349
307 305 306 304 309 316 316 315 314 314 319 318 317 314 316 317 318 317 317 320 323 326 327 328 329 328 328 327 328 328 329 329 327 328 332 339 346 351 356 356 347 344 348 347 349
306 307 305 315 314 315 315 315 314 317 317 317 317 316 316 317 317 317 318 318 320 323 324 325 326 327 327 327 327 327 327 329 329 327 328 330 338 342 353 349 347 347 345 348 348
310 307 304 309 317 316 315 316 317 317 319 317 317 316 317 318 317 317 319 319 319 320 319 320 323 326 327 327 326 327 327 329 329 328 328 326 329 339 344 350 347 345 345 350 348
310 307 314 311 314 314 316 319 318 320 318 317 317 316 317 318 317 317 317 318 319 320 320 322 322 321 323 327 328 327 327 329 331 331 329 329 327 329 335 341 347 347 347 349 350
311 315 316 316 314 314 317 320 320 319 318 317 317 316 317 317 316 317 317 318 319 321 321 319 319 322 324 323 325 328 329 327 328 330 332 331 329 329 331 336 345 347 347 349 346
312 317 316 315 314 315 318 320 320 317 317 317 316 318 318 318 317 317 317 319 318 319 319 319 320 321 322 324 324 324 327 329 330 332 334 331 335 331 331 333 340 346 344 342 343
316 319 317 317 315 317 320 321 319 316 315 317 317 318 318 318 318 318 318 318 318 318 317 317 318 319 320 323 323 324 325 326 328 331 332 332 333 335 337 333 337 346 345 342 342
319 320 318 317 319 320 321 319 315 318 317 317 317 317 317 318 318 318 318 318 316 316 317 317 316 317 319 321 322 323 324 324 329 331 332 332 332 333 334 334 333 334 338 344 345
320 319 317 318 322 322 319 318 317 318 318 317 318 317 317 317 317 317 317 317 315 315 316 316 317 317 318 319 320 321 322 323 324 325 332 334 332 331 333 336 332 331 330 345 345
319 321 319 317 317 319 320 318 318 314 316 315 316 316 316 317 317 316 316 316 314 314 313 312 314 317 318 319 318 319 320 320 322 324 325 327 331 334 334 334 334 332 332 333 343
318 317 316 318 318 318 318 317 317 316 315 315 316 315 315 316 316 315 315 316 315 315 313 313 313 314 314 314 315 316 317 318 320 323 327 326 328 331 334 335 334 335 335 333 333
317 319 317 315 315 317 316 316 315 315 314 316 315 315 314 314 315 315 315 315 316 316 315 315 314 314 315 316 315 315 316 316 317 320 323 325 329 330 329 332 332 335 336 343 335
316 316 316 314 315 315 314 314 314 313 313 312 312 313 313 313 312 312 312 312 313 316 315 316 318 318 318 316 316 316 315 315 316 317 320 324 326 327 327 330 333 333 335 341 346

GFSSW_850_thetae_063.txt.gz
Theta_e
305 305 305 305 306 306 307 307 307 308 309 308 309 308 309 310 309 309 310 319 319 319 321 323 323 341 348 351 351 350 354 359 357 355 351 352 351 350 353 353 353 352 349 347 345
304 305 305 305 305 306 306 307 307 308 308 308 308 309 309 311 311 310 311 318 321 319 318 328 333 340 346 348 350 347 356 353 349 352 350 351 350 349 350 351 354 352 349 345 345
304 304 305 305 305 306 306 307 307 307 308 308 308 309 310 312 315 323 315 318 320 320 316 333 335 340 344 346 345 344 350 353 352 351 351 353 352 353 353 354 354 350 349 347 347
304 304 305 305 305 306 306 307 307 308 308 309 309 309 310 312 331 327 324 322 320 319 316 335 336 337 341 342 343 345 346 352 351 351 351 352 348 348 351 353 353 350 348 347 347
304 304 304 305 305 306 307 307 307 308 308 309 309 309 312 319 320 321 322 321 316 318 318 338 340 338 340 340 341 343 345 349 349 349 351 350 349 351 349 346 353 351 348 347 346
303 304 304 305 305 306 308 308 308 309 309 309 312 312 313 325 320 323 326 322 317 316 329 337 340 339 339 339 337 338 340 345 348 350 351 352 351 350 345 352 352 351 348 346 345
303 304 304 305 305 307 309 310 310 309 309 310 313 313 323 326 320 322 326 326 319 317 329 339 340 340 337 334 335 332 332 334 349 349 351 350 355 350 348 351 352 351 348 347 344
303 303 304 305 305 307 310 310 309 309 309 313 317 321 329 319 319 320 327 330 326 321 330 337 337 337 332 333 332 329 330 333 337 350 351 351 357 349 344 349 352 350 348 346 345
303 305 305 306 305 308 310 311 310 310 311 314 320 329 330 319 316 320 326 327 327 325 323 327 327 331 331 329 329 328 328 331 334 348 351 352 357 352 345 352 353 350 349 347 346
308 309 309 308 305 310 313 313 314 310 313 314 315 323 324 319 318 317 325 327 326 323 323 326 331 328 326 325 329 329 328 328 332 347 351 351 358 355 353 353 351 350 350 348 347
309 309 309 309 306 311 315 316 319 318 315 326 324 323 319 317 318 318 319 327 328 327 326 329 328 327 326 326 327 329 330 328 329 335 349 351 357 356 344 339 346 349 350 348 347
309 309 309 308 306 312 315 316 315 314 316 317 319 318 316 317 318 321 321 324 330 329 328 328 328 328 330 329 329 328 329 329 329 328 348 350 355 352 344 347 349 348 349 348 346
308 308 307 307 307 314 315 316 315 315 315 316 319 316 316 316 318 323 324 324 329 331 327 326 329 330 331 330 327 327 327 327 327 327 347 349 351 350 347 347 348 350 349 349 347
308 306 305 307 312 316 317 316 316 315 314 318 316 316 316 316 317 319 321 321 325 327 328 327 326 327 329 329 326 324 326 326 326 325 327 348 356 350 347 349 351 351 349 346 348
306 308 306 306 307 314 315 315 315 314 317 318 316 315 316 316 317 317 317 319 322 324 325 325 326 327 327 326 325 325 326 326 327 324 323 324 329 354 348 349 349 348 345 347 348
309 310 305 312 316 316 316 315 315 315 318 317 316 315 315 316 317 317 317 317 319 320 321 322 324 325 326 327 326 326 325 324 324 323 324 322 324 338 349 348 348 346 345 346 346
311 308 305 313 316 315 314 316 315 316 318 316 315 315 315 315 316 317 317 317 316 317 317 318 320 321 323 325 324 325 324 322 324 324 325 323 322 321 348 347 343 345 345 349 346
311 313 315 313 314 315 315 316 319 318 317 317 316 316 316 317 317 317 316 316 318 317 316 317 319 318 322 324 326 324 321 322 326 327 326 324 324 323 341 349 343 345 347 346 346
312 315 317 315 314 314 315 319 318 317 317 316 316 316 315 316 316 316 317 315 317 317 318 317 319 319 320 321 322 324 324 322 322 323 324 325 326 325 325 346 349 345 342 341 345
315 316 318 317 316 314 316 318 317 316 317 317 316 317 318 317 315 315 315 317 318 317 317 316 315 317 318 318 320 319 322 323 321 323 325 326 326 328 328 325 344 344 345 344 350
318 320 318 318 316 316 319 320 318 317 317 317 317 317 317 317 317 317 317 316 316 317 316 316 314 314 316 318 318 319 320 320 320 322 324 325 325 325 328 329 342 343 346 347 342
319 322 317 318 319 321 319 318 317 318 317 317 318 317 317 317 317 318 318 317 315 315 315 314 313 313 314 315 316 316 316 319 320 322 323 326 328 327 326 328 333 344 345 348 343
318 320 318 318 320 320 319 317 315 316 316 316 317 316 316 316 316 317 317 316 315 315 314 312 312 313 314 313 316 316 317 317 318 318 320 323 326 328 329 329 330 334 342 347 344
319 320 319 317 317 317 318 318 316 315 315 315 316 316 316 316 315 316 316 316 315 315 314 313 311 312 312 313 313 314 314 315 315 316 318 320 322 322 328 328 329 332 340 347 344
320 317 317 316 316 316 316 316 316 315 315 314 316 314 314 314 314 315 314 315 316 316 315 312 311 312 311 312 313 313 313 314 314 315 317 318 320 324 326 326 329 333 338 340 345
316 317 317 315 315 315 315 315 314 314 314 314 314 313 313 313 313 313 312 312 313 313 315 313 314 314 315 313 313 314 315 316 315 315 315 316 318 322 323 323 327 329 334 339 338
317 317 315 314 314 314 314 314 314 313 314 313 312 313 313 312 312 312 311 311 311 310 313 315 315 316 315 315 315 316 315 315 315 314 314 314 315 320 325 322 326 338 339 337 334

GFSSW_850_thetae_066.txt.gz
Theta_e
305 304 305 305 305 305 306 306 307 307 308 308 308 309 309 309 310 310 310 317 318 320 319 321 318 327 348 350 350 350 351 358 354 355 355 353 352 354 353 350 350 351 346 344 347
305 305 305 305 305 305 306 306 307 307 307 308 308 308 309 310 311 312 312 314 319 320 323 320 322 341 340 349 350 351 354 355 349 352 353 352 351 354 353 352 351 350 346 347 347
304 304 304 305 305 305 306 306 307 307 307 308 309 308 309 310 313 321 315 314 318 319 318 322 327 339 337 342 347 350 352 351 350 351 350 352 352 351 351 354 353 350 347 346 346
305 304 304 304 305 305 306 307 307 307 308 308 309 309 309 312 330 326 322 318 320 320 318 329 332 335 338 343 345 345 344 345 351 352 353 349 349 350 352 353 352 352 346 346 343
307 305 304 305 305 305 306 308 308 308 308 308 309 309 310 316 317 322 322 321 321 319 318 332 333 336 336 339 341 340 341 344 348 352 353 350 350 351 349 351 351 349 347 346 344
306 305 304 304 305 306 306 308 309 309 309 308 310 312 312 318 320 323 323 321 318 320 317 328 337 336 338 339 338 338 337 337 350 352 352 351 350 350 346 348 351 349 347 347 345
304 304 304 305 305 306 306 309 310 309 309 309 313 315 315 316 319 320 324 326 322 318 316 335 337 338 339 333 337 335 330 332 350 351 352 351 353 352 348 353 352 350 347 347 344
304 305 306 306 307 306 307 310 311 309 309 309 315 320 322 322 321 322 321 327 330 319 320 336 337 334 336 337 329 329 326 329 348 350 351 350 357 350 351 350 352 350 347 347 345
308 309 308 308 308 307 308 312 312 311 310 312 317 327 326 322 317 315 320 327 326 322 318 326 324 324 327 328 325 324 328 327 331 349 350 351 355 349 351 352 351 351 347 346 345
309 309 309 309 309 307 311 314 315 312 310 315 315 321 320 318 317 321 321 325 326 326 321 320 322 325 323 323 327 329 328 326 327 342 350 352 356 348 350 352 352 351 348 346 346
308 308 308 308 308 307 315 315 316 317 313 316 322 318 321 317 317 317 323 322 325 322 320 325 326 327 327 324 325 326 326 327 328 328 351 353 356 351 351 348 349 349 349 347 345
308 308 307 306 308 307 313 316 315 314 314 315 317 317 320 317 317 318 324 322 325 325 324 325 325 325 325 326 326 327 326 326 326 332 343 355 357 350 351 347 347 349 349 348 346
307 306 305 305 308 312 315 316 315 315 313 315 316 318 317 316 316 320 320 323 328 327 326 326 327 327 328 328 329 327 326 327 326 341 351 353 357 356 350 345 348 349 349 349 348
305 308 308 307 312 315 315 315 315 315 308 313 315 316 316 316 316 323 322 321 324 329 329 324 326 326 328 329 328 325 323 325 325 322 340 349 359 352 346 345 351 351 349 349 347
309 310 306 306 311 315 315 315 315 314 316 317 314 315 316 315 317 316 319 319 320 321 322 323 325 325 325 325 326 326 324 323 325 323 321 332 336 340 347 350 352 352 349 347 348
310 310 305 313 315 314 314 315 316 310 317 315 314 314 313 314 316 317 317 318 317 318 318 319 321 323 323 325 324 324 323 320 319 319 321 321 321 331 349 348 351 350 346 346 348
311 310 306 311 314 314 315 316 312 313 315 314 313 313 312 313 314 315 316 315 314 314 315 316 317 317 320 322 321 323 317 319 321 320 322 320 320 319 345 345 346 351 349 349 347
314 314 315 314 314 314 315 314 316 316 314 313 314 312 312 313 314 315 314 312 315 315 312 314 316 316 317 319 323 323 318 319 323 322 323 321 323 322 327 342 344 349 347 345 345
312 316 316 316 315 314 314 313 313 313 315 315 313 313 313 314 314 315 313 313 316 313 314 314 317 316 316 315 317 318 322 318 319 319 320 320 322 323 324 337 342 343 344 344 346
317 317 317 318 316 315 311 315 315 316 315 313 314 314 314 315 314 312 314 314 316 314 313 314 315 313 315 315 314 313 317 319 315 322 323 321 323 323 327 334 343 341 345 346 346
320 319 317 317 316 316 314 317 316 316 316 315 314 314 314 315 314 313 314 314 314 314 312 311 310 312 313 312 313 312 312 313 314 317 320 321 321 324 330 330 333 341 345 344 345
320 313 317 318 318 315 312 314 315 314 315 313 314 314 314 313 314 314 313 314 314 314 313 310 308 311 313 313 313 313 312 309 313 317 317 320 322 325 327 328 332 341 342 344 344
319 319 316 317 312 312 314 314 314 314 313 313 313 312 312 312 313 314 314 314 313 312 312 310 308 310 311 310 309 311 312 310 308 310 316 318 319 322 325 327 336 341 344 344 346
318 312 316 315 315 313 313 313 314 314 313 314 312 311 311 311 309 312 313 313 314 315 316 312 306 308 310 311 310 310 312 312 308 309 311 315 315 316 320 323 333 339 344 346 344
317 315 314 310 311 310 311 312 314 313 312 312 312 312 310 310 310 311 310 310 312 314 313 307 309 310 309 311 311 311 312 313 312 312 312 313 314 316 322 330 338 339 339 341 342
316 316 315 313 312 310 309 310 313 312 311 311 311 311 309 310 311 311 309 308 309 309 310 309 312 311 313 313 313 314 314 314 314 314 314 312 313 320 326 330 333 334 334 335 335
316 316 313 311 310 308 310 311 312 312 312 311 311 310 310 310 311 311 311 310 310 309 307 311 311 311 313 312 313 313 313 314 314 317 319 314 319 319 321 325 328 327 328 329 332

GFSSW_850_thetae_069.txt.gz
Theta_e
305 304 305 304 305 305 305 306 306 307 307 307 308 308 308 309 309 310 310 313 317 318 319 322 319 321 345 346 350 350 354 354 353 355 356 352 352 352 351 348 345 350 345 348 349
310 306 304 305 305 305 305 306 306 307 307 307 307 308 309 309 310 312 312 312 318 320 320 320 320 331 348 349 350 351 354 353 349 351 354 352 352 353 351 350 350 346 345 346 348
312 309 306 304 304 305 305 306 307 307 307 307 307 308 309 309 312 324 314 312 318 320 320 320 325 341 337 341 350 349 352 349 350 351 352 352 353 352 351 352 349 345 346 344 345
309 308 306 305 304 305 306 306 307 308 307 307 308 308 308 310 328 321 316 313 319 319 321 321 332 337 336 341 343 347 345 350 348 352 352 352 351 351 350 352 346 346 346 346 343
307 306 305 305 304 305 305 306 308 308 309 308 308 309 310 312 313 321 322 316 318 319 318 327 331 335 336 338 341 343 342 341 341 348 352 349 349 352 352 352 352 346 346 346 346
304 304 305 305 305 306 306 305 308 309 309 308 308 311 311 313 320 322 324 320 319 320 318 327 333 338 336 336 338 338 339 338 336 351 351 350 350 349 350 351 351 347 346 346 346
306 307 307 307 307 307 307 306 309 310 309 308 309 314 313 314 320 323 325 325 320 319 318 328 336 336 337 336 336 336 337 329 350 351 352 350 351 351 347 348 350 350 346 344 345
309 309 309 309 308 308 308 306 310 311 309 308 312 318 319 321 322 324 324 327 325 316 319 323 333 336 332 335 329 328 325 326 351 351 351 351 357 349 351 348 349 348 347 346 344
308 308 308 308 308 308 308 309 313 313 309 311 314 324 324 324 322 320 320 326 329 319 316 320 325 329 325 326 324 323 329 327 349 348 351 351 355 350 351 353 351 349 347 347 344
308 307 307 308 308 308 307 313 317 314 310 313 316 320 318 320 317 316 319 322 326 323 320 319 320 320 321 323 329 329 328 326 327 348 350 352 352 350 351 351 352 350 347 347 345
307 307 306 306 306 308 311 313 315 316 313 315 317 316 320 319 317 318 319 321 325 323 318 319 322 325 326 324 325 325 325 326 326 329 350 350 353 349 350 351 352 351 348 346 346
306 305 306 306 306 307 313 315 315 314 313 314 315 316 318 318 318 316 317 326 323 322 322 322 325 324 326 325 325 326 327 326 325 332 335 345 355 348 350 351 352 351 348 346 346
305 308 309 306 307 312 315 315 315 314 312 314 315 316 317 317 316 318 319 323 324 325 324 324 325 325 326 327 327 326 326 326 327 335 349 352 354 351 349 348 346 347 349 347 346
309 309 308 307 313 314 315 314 315 314 307 310 314 317 317 315 315 319 321 324 325 325 324 325 325 327 327 327 326 327 324 326 325 321 323 346 352 356 351 351 345 347 349 349 347
310 310 306 309 313 314 314 315 315 313 315 315 314 315 315 314 317 317 319 320 320 322 325 329 325 324 324 325 325 327 326 323 323 321 332 337 334 338 348 350 348 348 348 349 348
311 311 308 314 314 314 314 315 315 311 317 314 314 313 312 314 315 316 316 318 317 317 316 318 320 321 322 323 323 324 322 317 316 316 320 322 321 328 351 348 347 346 349 348 349
313 313 310 313 314 313 315 316 310 312 313 313 313 312 311 312 314 315 315 313 313 314 316 316 316 315 317 319 320 318 317 319 320 320 321 318 319 319 336 345 343 345 349 349 349
315 315 314 314 313 314 314 310 313 315 314 313 312 311 312 312 313 313 311 310 313 312 310 313 316 315 314 316 318 320 317 317 322 320 322 318 322 322 320 328 342 344 346 349 349
316 317 317 316 315 315 314 310 314 313 314 313 313 313 313 314 312 313 312 312 313 312 313 314 315 313 315 313 314 317 317 317 315 315 319 318 320 321 327 331 340 343 347 348 348
317 317 316 317 317 316 313 313 314 314 313 312 313 313 313 314 314 310 312 313 314 311 311 312 314 312 313 313 313 312 313 317 314 320 323 319 321 321 328 329 340 340 345 348 348
318 317 317 318 317 316 314 315 315 314 315 313 312 313 313 313 313 313 312 313 313 313 310 309 309 312 311 312 313 310 310 308 311 314 318 320 320 325 327 326 328 336 341 344 346
318 312 316 317 314 310 310 312 314 313 313 312 312 312 312 310 311 311 313 312 313 311 311 308 305 310 312 309 311 309 309 306 309 312 313 316 322 317 318 325 337 341 342 342 343
318 315 315 317 312 310 312 313 313 312 311 311 311 311 309 310 312 312 312 313 314 311 312 310 306 310 310 309 307 309 309 309 304 306 309 315 316 317 322 337 337 338 340 344 344
316 310 314 314 312 311 311 311 313 312 312 311 311 310 309 309 308 311 311 311 311 316 315 310 304 308 310 310 308 310 310 309 307 308 310 310 311 321 328 335 334 333 335 338 342
315 312 311 308 310 309 309 311 313 311 311 310 311 310 310 310 310 310 309 308 310 310 311 305 307 310 310 311 312 313 313 313 313 311 311 311 312 320 321 328 329 328 331 334 335
317 315 313 310 310 308 307 310 312 312 310 310 310 310 308 309 310 311 309 309 308 308 307 307 311 312 311 312 312 312 312 312 313 313 313 315 314 317 321 325 325 325 326 329 328
316 314 312 309 307 307 308 311 310 311 311 311 310 309 310 310 310 310 310 310 309 309 306 309 309 309 312 310 310 310 311 311 317 318 318 315 318 317 317 320 320 322 323 324 325

GFSSW_850_thetae_072.txt.gz
Theta_e
316 314 310 306 304 304 305 306 306 307 307 307 307 307 308 308 309 309 310 312 316 318 323 324 322 334 342 345 349 350 355 356 353 354 355 352 351 351 350 345 348 349 346 347 345
312 311 310 308 305 304 305 305 306 307 307 307 307 307 308 309 309 310 312 311 318 317 321 323 320 336 346 347 348 350 353 351 349 350 353 353 351 351 349 346 346 347 348 347 345
309 308 308 307 307 305 305 305 306 307 307 307 307 307 308 308 311 323 317 311 318 319 318 321 321 342 343 343 349 351 352 349 349 352 352 352 352 351 351 353 346 348 348 348 348
308 306 306 306 306 306 305 306 305 307 308 308 308 308 308 309 323 321 314 312 318 319 320 320 329 340 338 340 342 348 347 347 349 352 352 352 351 351 350 351 346 345 347 347 345
306 306 306 306 307 307 306 306 305 307 308 309 308 308 309 310 312 321 312 315 319 319 320 320 335 337 337 338 340 345 344 343 342 350 351 351 351 351 352 348 346 344 347 347 344
308 308 308 308 308 308 307 307 306 307 309 309 308 308 311 310 316 321 318 317 319 321 322 322 337 340 336 335 337 338 340 338 337 343 350 349 351 351 353 349 347 346 345 345 344
308 308 308 308 308 308 308 308 306 308 310 309 308 311 312 312 321 323 323 318 318 318 317 325 334 338 336 337 336 335 332 331 350 350 348 349 352 351 351 352 350 348 346 344 343
308 308 307 307 308 308 308 308 307 311 311 309 308 316 318 315 321 323 324 320 319 319 319 324 334 335 335 334 328 325 324 326 349 350 350 349 355 350 349 350 351 348 346 346 346
306 307 306 307 307 307 307 308 313 313 312 309 311 318 322 323 322 323 324 326 321 319 318 317 327 332 324 324 324 323 328 326 345 349 351 349 353 349 351 348 351 350 346 344 346
305 306 305 305 306 306 307 311 317 313 309 311 315 321 320 324 322 322 323 327 322 316 317 321 321 318 320 322 331 329 326 325 326 349 350 352 351 349 352 351 349 348 344 344 345
304 305 307 308 306 306 308 312 313 316 312 314 315 315 318 317 316 315 319 326 322 319 315 317 319 321 322 324 325 325 325 326 325 332 349 349 349 350 350 352 351 347 346 345 344
306 308 309 306 306 307 314 314 314 313 313 314 314 314 316 317 317 315 320 325 321 318 319 321 324 322 324 324 324 325 326 325 325 325 333 339 352 348 350 351 352 350 347 346 344
309 309 309 306 307 313 314 314 314 313 312 313 314 315 316 317 317 316 319 324 320 321 321 323 325 324 325 326 326 325 325 325 328 324 347 349 352 351 347 350 348 351 349 346 345
310 310 306 310 313 314 314 314 315 313 306 309 313 316 317 315 314 316 322 324 324 323 321 324 324 326 325 327 325 327 324 327 327 321 324 345 351 349 348 349 346 346 348 348 345
311 311 307 313 314 314 313 314 315 312 311 313 313 315 316 314 316 316 320 322 321 326 324 326 324 325 326 325 324 326 323 325 324 320 334 335 333 336 348 348 347 346 345 348 347
313 310 313 314 314 313 313 314 315 311 316 313 312 312 312 313 314 315 317 318 318 315 317 322 318 321 323 322 324 322 318 314 314 314 319 325 323 321 345 344 343 345 346 344 348
314 314 313 312 313 313 314 315 310 312 312 314 311 311 311 312 313 314 312 311 313 314 316 315 315 314 315 319 319 317 316 317 319 319 320 316 319 319 320 326 333 340 345 346 344
316 316 317 316 316 314 314 310 314 314 314 312 311 311 312 311 311 311 311 312 311 310 310 313 316 313 313 315 318 317 317 317 321 320 321 317 321 325 324 329 336 338 344 346 347
316 317 316 317 316 315 314 311 314 313 313 313 313 313 313 313 311 311 310 311 311 310 313 312 315 312 313 312 313 317 316 314 314 314 317 317 319 319 323 327 331 337 343 344 348
317 317 316 317 317 316 313 313 313 313 312 312 313 312 314 312 312 311 311 312 312 309 310 311 313 312 312 312 311 311 311 317 314 320 322 319 323 323 320 322 333 339 340 341 346
317 317 316 317 317 315 311 314 314 313 313 312 312 313 312 312 311 311 311 312 312 311 308 308 308 312 310 309 308 309 309 307 310 312 317 319 324 319 318 327 335 335 338 342 342
316 311 315 317 312 308 309 312 313 312 312 312 311 311 311 310 311 312 313 313 313 310 311 307 304 308 310 308 308 308 309 305 312 314 310 316 318 323 331 332 331 334 336 341 342
316 314 315 317 310 308 311 312 311 311 310 310 311 310 308 309 312 311 312 312 312 314 311 310 305 307 311 308 307 309 309 306 303 304 309 318 317 321 326 328 327 331 334 335 340
315 309 314 313 310 309 310 310 312 311 310 310 309 309 308 308 307 310 310 311 310 315 314 309 305 307 307 309 307 311 312 310 306 309 309 310 311 319 324 326 324 325 329 330 333
313 309 309 307 308 307 308 310 312 311 309 310 310 309 309 309 309 309 308 308 309 309 310 305 309 309 310 311 311 312 312 312 312 310 311 309 316 319 321 324 323 323 324 326 327
316 312 311 308 309 307 306 309 310 310 309 309 310 309 307 308 309 310 309 308 308 308 306 306 311 310 311 311 311 311 311 311 311 312 310 312 317 316 319 321 320 320 321 322 324
314 312 311 308 306 306 308 310 310 310 310 310 309 308 309 309 309 309 309 308 308 308 305 307 307 307 310 309 309 311 310 311 317 317 318 316 317 315 315 318 315 316 317 318 319

GFSSW_850_thetae_075.txt.gz
Theta_e
315 314 313 312 312 308 305 305 305 306 307 306 307 307 307 308 309 309 310 312 314 321 323 321 324 340 343 345 349 350 355 357 354 355 355 351 350 349 348 348 347 348 346 345 343
313 312 311 310 310 310 306 305 306 306 307 307 307 307 307 308 309 310 311 311 315 319 324 322 330 345 344 346 349 351 356 353 350 352 354 351 351 350 348 349 350 349 348 344 344
310 309 308 307 308 309 308 306 306 306 307 307 307 307 307 308 310 319 321 311 317 318 324 323 325 344 344 346 348 351 356 350 350 352 352 351 351 350 347 350 349 350 349 346 344
307 308 308 307 307 307 308 307 306 306 307 308 308 307 308 308 319 322 317 311 317 318 321 321 332 341 344 346 345 352 348 348 349 352 352 352 351 351 351 349 348 349 347 346 345
308 308 308 308 308 308 308 307 307 306 307 308 308 307 308 309 310 321 312 311 317 317 320 326 329 338 344 345 343 347 347 344 344 351 351 352 351 351 351 347 349 349 348 348 347
308 308 308 308 308 308 308 308 307 307 307 309 309 307 309 312 313 319 311 315 319 319 320 324 328 335 341 340 341 339 340 336 337 343 352 352 352 350 350 347 348 348 348 347 347
305 306 307 307 307 307 308 308 308 307 308 310 309 308 311 311 321 319 313 318 319 319 321 324 331 337 337 340 337 336 334 341 349 346 350 350 354 353 350 347 347 347 347 345 344
305 305 306 306 306 307 307 307 307 308 311 311 308 310 316 314 321 319 315 320 322 322 321 325 333 336 335 334 329 329 329 332 352 350 350 350 355 350 350 348 348 347 347 347 346
304 304 305 305 306 306 306 307 312 313 311 310 308 314 322 321 322 321 316 318 319 318 318 323 331 334 328 333 333 330 337 331 353 351 352 353 354 350 352 350 350 348 347 346 346
305 305 307 307 307 306 306 311 314 311 309 311 315 318 319 322 322 322 320 322 319 319 318 319 324 332 331 333 343 337 332 330 343 354 352 354 353 351 350 350 351 350 348 347 346
307 307 308 308 306 306 307 314 313 316 310 313 313 317 316 317 320 322 324 321 318 319 320 319 328 332 337 332 329 329 330 331 329 345 347 348 351 354 353 350 351 350 349 347 347
309 308 309 305 306 312 314 314 313 313 314 314 314 314 315 316 316 323 325 324 318 320 320 321 328 330 330 328 329 329 331 331 329 332 335 339 350 352 352 352 351 350 348 347 346
311 310 307 308 310 313 313 313 314 313 314 313 314 315 315 316 316 322 325 322 319 320 322 324 329 328 329 328 330 330 332 330 330 328 351 351 355 353 351 352 352 349 347 347 346
311 310 306 312 313 314 313 314 314 313 313 313 314 315 316 317 315 318 326 324 322 320 323 327 326 332 329 330 330 334 328 329 330 330 330 350 346 353 353 353 351 352 349 348 347
312 309 312 313 314 313 313 314 314 312 313 313 314 315 315 315 316 319 321 322 325 324 326 328 328 334 332 331 329 332 328 329 330 329 334 345 342 344 352 354 352 349 351 350 347
314 313 312 313 313 313 314 314 314 314 317 314 313 315 315 315 315 316 318 320 321 325 326 325 323 327 328 328 329 327 325 323 323 325 330 340 334 331 338 336 336 346 348 350 349
315 316 316 315 314 314 314 315 315 316 316 315 313 314 315 314 315 318 317 318 322 327 327 320 318 316 316 324 325 326 327 328 328 327 332 324 331 334 334 335 339 342 340 348 350
316 316 316 316 316 316 315 316 318 317 316 315 313 315 314 314 314 315 316 317 316 317 323 328 323 317 315 318 325 327 327 328 330 329 329 323 330 332 328 334 341 343 344 343 349
317 317 316 317 316 315 315 318 316 315 314 315 315 316 316 315 316 316 315 315 314 314 323 320 317 315 315 315 317 321 326 321 324 321 328 326 326 325 332 338 338 339 341 344 347
317 317 316 317 316 316 316 315 315 314 314 314 316 315 316 315 316 316 315 314 315 313 312 316 318 314 314 314 315 319 316 325 325 329 329 327 330 329 338 336 336 337 339 341 344
317 317 316 317 316 315 316 315 315 313 313 315 315 315 314 316 315 315 315 314 314 314 313 313 317 316 315 314 314 317 319 319 323 323 328 329 329 334 334 332 334 335 336 338 344
316 317 315 317 316 311 314 314 312 313 312 313 313 313 314 313 314 316 316 314 313 313 314 312 315 315 314 312 311 313 314 314 327 326 322 327 327 329 331 329 329 332 333 335 338
315 314 314 316 316 314 313 313 312 313 312 313 312 312 311 312 315 314 315 312 314 316 315 313 313 316 315 314 313 315 314 312 313 317 323 327 325 327 329 328 326 328 330 331 333
313 315 313 312 309 313 314 314 314 311 311 311 312 312 313 313 313 313 313 312 311 316 314 312 313 315 317 316 314 316 314 314 315 321 319 319 318 329 329 328 326 326 327 328 329
313 312 309 313 312 312 312 312 312 312 310 311 312 312 313 315 314 313 312 313 312 311 312 314 316 315 314 314 314 314 314 314 314 315 319 318 321 327 326 326 323 323 324 324 324
315 312 310 309 308 311 311 312 312 311 311 311 311 311 312 313 312 314 312 312 312 312 313 313 316 315 314 313 313 313 313 313 313 313 314 315 321 322 323 323 321 319 319 318 318
312 311 311 308 310 311 311 311 312 311 311 310 310 311 312 311 310 309 309 309 310 311 313 314 315 315 315 313 313 312 313 313 315 318 317 317 319 319 319 320 317 314 312 312 313

GFSSW_850_thetae_078.txt.gz
Theta_e
316 315 314 312 311 311 310 307 306 306 307 307 307 307 307 308 308 309 310 313 314 318 329 338 340 346 346 347 350 352 357 357 357 354 354 350 349 350 348 349 349 351 348 344 344
312 311 311 310 309 310 310 309 306 306 306 307 307 307 308 308 309 310 310 311 315 322 334 332 341 346 346 346 350 353 357 355 352 353 353 350 349 349 349 349 351 350 346 344 344
308 309 309 309 308 308 308 309 307 306 306 307 308 307 307 308 313 317 312 311 315 322 333 329 338 345 346 346 350 353 354 349 350 353 351 351 349 349 348 353 352 351 346 344 344
308 308 308 309 309 308 308 308 308 307 306 307 308 308 307 308 321 324 320 311 316 325 330 328 338 343 344 347 348 354 350 347 348 351 352 353 348 353 350 352 351 351 345 344 344
306 307 308 308 308 308 308 308 308 307 307 307 309 308 308 316 315 321 316 312 316 328 328 328 333 334 342 345 346 351 348 343 342 351 351 353 352 351 349 351 350 349 345 344 344
305 305 305 307 307 307 308 308 308 308 307 308 309 308 311 317 317 319 313 314 327 325 324 325 327 333 338 344 346 346 345 340 338 345 349 352 352 350 351 351 349 348 346 346 345
304 304 305 305 306 306 307 308 308 308 307 309 310 308 315 316 324 319 326 325 324 322 323 324 326 331 337 341 343 343 342 342 344 341 348 351 355 353 350 350 349 348 346 346 346
305 304 305 305 306 306 307 307 308 308 308 310 310 311 320 314 325 321 326 328 322 323 323 326 329 332 336 340 340 343 339 341 348 346 348 352 358 354 350 349 348 348 347 346 344
309 307 307 308 308 307 306 307 312 314 312 311 310 321 320 315 326 323 323 325 321 320 323 326 328 332 336 339 341 343 347 340 351 350 353 353 356 353 350 349 347 345 343 340 340
311 308 308 309 307 306 306 312 315 313 311 310 316 320 322 322 325 322 321 322 321 320 320 323 329 332 336 339 341 347 344 338 350 354 353 353 354 355 349 350 348 347 346 341 343
312 309 309 308 305 306 309 314 317 322 317 317 316 319 321 322 324 324 323 321 321 321 322 322 329 330 331 337 337 343 341 341 342 351 351 348 347 356 353 351 350 349 347 347 344
311 310 310 306 307 314 314 316 315 314 317 317 316 317 318 322 324 324 325 324 322 324 323 323 327 326 330 336 335 338 338 337 334 338 338 336 342 350 353 353 352 352 351 350 346
311 310 306 309 313 313 314 314 314 313 317 317 316 316 318 318 322 324 324 326 323 324 323 324 325 327 332 337 336 337 341 336 336 333 342 344 353 353 352 352 352 352 352 351 349
310 309 309 313 314 314 315 314 314 313 318 317 316 316 317 319 319 323 323 325 323 324 324 323 329 330 334 335 335 337 337 335 333 334 343 343 353 355 353 356 353 352 352 351 350
313 312 313 314 314 315 314 314 314 313 319 315 317 316 319 319 320 323 323 325 325 323 324 326 330 332 333 334 333 334 335 335 333 335 333 339 343 349 352 353 354 352 351 349 350
315 316 315 312 313 313 313 314 313 318 320 317 317 318 319 318 319 324 326 323 326 324 324 328 328 333 333 332 332 332 332 333 333 333 335 339 340 341 345 343 343 343 351 352 350
316 316 316 316 317 315 315 316 318 320 319 317 317 318 318 319 320 322 325 324 328 327 327 328 331 329 328 334 333 332 331 335 336 332 334 337 337 342 340 346 346 346 346 347 353
316 316 316 317 316 316 316 320 320 319 319 318 316 317 317 319 321 322 323 325 323 325 327 327 328 327 322 329 332 332 331 332 335 333 333 333 337 338 342 342 344 345 347 341 350
317 317 318 316 316 315 318 320 320 318 317 317 317 317 318 319 321 323 322 322 319 322 328 329 323 319 319 320 324 331 331 330 332 332 333 333 336 338 338 341 342 340 342 346 348
318 319 318 317 316 317 321 319 319 316 316 317 318 318 319 319 322 323 322 319 319 318 319 325 323 320 318 319 321 327 330 330 330 333 335 332 336 341 341 340 339 337 339 344 348
318 319 317 317 317 319 321 319 317 316 316 318 317 319 319 319 320 320 319 318 318 319 319 322 324 320 320 322 324 324 327 328 329 330 333 335 337 338 337 335 336 335 336 340 343
318 320 316 317 321 319 320 318 315 315 316 317 317 317 318 318 319 320 319 318 317 318 320 319 323 323 322 317 317 320 324 327 330 331 331 332 341 335 335 332 333 333 333 335 336
318 316 316 317 321 320 318 316 315 317 315 316 317 316 316 318 319 318 317 314 317 319 321 319 322 322 320 319 318 322 321 322 324 328 330 330 338 334 334 334 333 332 331 332 332
316 317 316 317 317 319 319 318 317 314 315 315 316 316 318 318 318 317 317 315 315 317 316 317 320 323 323 323 322 321 320 320 323 329 330 329 336 335 333 334 333 333 329 327 328
316 315 313 317 317 318 317 316 316 316 314 315 316 317 319 319 318 318 317 316 316 315 317 320 322 321 319 318 319 319 318 318 322 324 328 328 335 333 332 330 329 329 328 327 326
316 316 314 314 314 315 313 316 314 315 315 314 316 317 318 319 320 319 319 319 318 316 317 318 321 320 320 317 317 318 318 317 317 319 322 326 330 328 328 326 324 322 322 321 320
313 311 314 312 314 314 314 314 314 314 313 312 313 316 316 315 314 314 314 315 315 318 318 318 319 319 319 316 315 316 317 317 318 318 319 323 326 324 326 325 322 320 319 318 317

GFSSW_850_thetae_081.txt.gz
Theta_e
313 313 312 312 311 311 312 312 309 306 307 307 307 307 308 308 308 309 314 318 318 315 329 339 344 348 348 350 351 353 360 359 359 357 355 352 353 352 353 351 352 351 346 344 344
307 309 310 310 310 309 309 311 311 307 306 307 308 307 307 308 308 317 317 315 316 316 333 337 340 347 348 349 351 355 358 357 354 353 355 350 351 349 351 352 352 350 345 344 345
308 308 308 309 309 309 308 309 310 310 307 307 308 308 308 308 320 320 318 311 316 317 335 333 340 346 347 347 351 354 354 351 354 353 351 350 348 349 350 353 352 348 346 344 344
305 306 307 308 308 308 308 308 309 310 308 307 308 308 308 309 327 330 318 311 316 323 333 331 338 344 346 348 352 355 351 349 354 352 351 351 349 350 350 353 353 349 346 344 344
304 305 305 306 307 308 308 308 308 309 308 307 308 308 308 320 319 321 321 314 316 330 333 329 336 341 345 346 349 353 349 345 348 349 353 352 352 353 352 352 352 349 346 344 343
305 304 305 305 306 306 307 308 308 309 308 307 308 309 310 319 321 321 317 316 321 330 330 329 334 338 339 346 347 349 350 343 343 344 354 353 352 353 351 353 353 348 346 344 342
307 305 305 305 306 306 307 307 308 308 308 307 309 309 319 319 323 322 320 320 325 328 329 327 328 333 337 344 348 347 347 343 345 347 351 352 356 353 352 351 350 348 346 344 342
310 306 306 307 307 307 307 307 308 308 308 308 310 312 324 317 323 323 322 323 327 326 325 325 326 329 335 341 344 348 347 347 346 347 350 353 359 354 353 351 350 348 346 344 343
312 309 308 308 308 306 306 308 314 314 312 311 313 321 322 320 325 324 327 326 326 324 324 326 329 329 335 341 345 347 349 346 349 348 352 354 359 353 352 350 350 347 346 345 343
313 310 309 309 306 305 307 314 315 314 312 314 321 320 322 322 324 325 327 326 323 324 325 327 329 331 336 341 344 347 347 345 350 351 352 354 355 355 351 349 348 347 345 344 342
313 311 310 306 306 307 310 318 322 325 321 323 321 320 321 320 324 324 325 325 323 323 326 324 330 331 334 335 338 340 343 347 349 348 353 352 355 355 351 350 350 346 344 342 340
311 310 306 307 314 314 316 319 317 317 318 320 318 318 322 325 325 324 323 325 324 325 325 325 329 331 331 334 338 341 343 340 345 347 353 354 355 357 352 350 349 348 348 342 342
310 308 309 311 314 315 317 316 316 316 319 320 320 317 320 324 324 325 324 324 325 325 326 326 327 329 329 332 339 342 343 340 339 343 342 339 348 355 352 352 349 347 347 348 344
313 312 312 313 316 316 317 316 316 316 320 321 319 319 319 320 323 324 325 325 326 327 326 327 327 327 328 332 337 341 339 338 338 339 344 343 357 352 356 354 353 352 351 351 349
316 316 312 314 316 317 317 316 316 317 322 318 319 318 319 320 322 325 324 326 327 325 327 327 327 328 330 334 335 334 337 339 337 337 342 345 352 350 354 356 354 351 353 353 351
316 316 315 316 314 315 315 317 316 319 322 319 319 319 321 321 322 324 324 325 325 325 326 327 325 331 331 332 333 333 336 337 337 336 339 338 344 352 352 355 355 350 352 352 350
315 315 316 316 319 318 317 318 321 322 323 319 319 320 322 322 322 325 325 327 328 327 326 327 328 332 331 333 333 334 337 339 339 337 337 335 343 348 347 348 348 346 347 351 350
317 317 318 319 319 318 318 322 325 324 322 320 319 320 321 321 322 325 327 327 327 327 326 328 333 333 333 334 334 334 335 336 337 336 334 335 345 349 346 346 345 347 346 348 351
317 320 320 320 317 318 320 325 325 321 320 319 318 319 320 321 323 325 326 326 327 328 327 329 331 329 332 333 331 334 335 332 333 334 333 340 346 345 344 345 342 343 348 350 344
319 321 322 319 319 319 322 323 322 319 319 319 318 320 321 322 323 324 325 323 325 324 325 328 330 327 325 325 328 330 333 333 332 336 334 340 346 347 345 345 340 339 342 347 352
318 320 321 319 319 321 326 323 320 318 318 319 319 321 320 321 322 324 325 322 322 324 325 328 329 326 325 327 329 330 332 333 332 334 335 341 348 345 343 341 339 337 338 340 342
319 322 319 318 321 321 323 322 317 319 318 320 318 321 321 322 323 323 323 322 320 322 326 326 327 327 326 326 324 327 331 332 333 335 333 334 348 339 340 339 336 335 336 337 339
320 317 317 318 322 322 321 320 318 320 319 320 319 318 320 322 320 321 321 318 320 322 325 325 326 327 326 324 325 326 327 329 331 331 334 334 347 339 338 338 335 333 332 333 335
319 320 318 318 319 321 322 321 320 317 318 319 319 318 320 320 322 322 319 318 319 319 316 321 325 326 327 326 326 327 326 327 329 331 332 337 342 340 338 340 336 333 332 331 331
317 317 318 320 319 320 320 318 319 319 318 319 321 321 320 319 321 321 320 320 319 318 321 323 324 325 323 323 325 326 326 325 327 329 331 340 341 339 337 336 335 334 332 331 331
319 318 316 316 317 317 314 318 317 317 318 318 321 320 321 321 322 321 321 321 322 320 322 321 324 324 323 320 322 322 321 321 324 325 328 335 337 335 332 331 330 329 328 327 326
317 315 317 315 317 318 317 317 316 316 315 315 318 321 321 319 319 320 320 321 321 323 321 322 323 323 322 321 319 320 321 321 322 322 327 334 336 332 331 327 326 325 325 324 323

GFSSW_850_thetae_084.txt.gz
Theta_e
307 308 310 311 312 312 311 311 312 312 307 307 307 307 307 308 308 309 310 317 319 320 319 325 328 337 348 349 350 352 360 362 359 358 359 354 354 353 354 351 352 349 344 344 344
308 308 308 308 309 310 310 310 310 312 310 307 307 308 307 308 308 310 316 315 318 317 326 335 338 345 350 349 351 353 360 359 354 353 356 352 351 351 352 351 350 345 344 343 344
306 306 306 308 308 309 309 309 309 310 312 308 307 308 308 308 319 322 321 316 314 316 334 339 341 346 348 350 351 355 355 355 354 353 352 352 351 349 351 353 348 345 344 343 343
306 305 305 305 307 308 308 308 308 309 311 309 307 308 308 308 330 329 323 317 313 315 337 337 336 345 347 349 350 355 352 354 353 351 350 350 349 350 351 353 348 346 344 343 342
308 305 305 305 305 307 307 308 308 308 310 309 307 308 308 322 319 326 320 312 315 317 337 334 336 343 347 349 351 356 350 352 353 351 350 349 350 350 353 353 349 347 344 343 342
310 307 305 305 305 306 306 307 308 308 309 309 307 309 309 320 322 324 320 317 317 325 337 332 333 340 343 345 350 350 349 346 348 353 352 351 353 352 353 350 352 347 345 343 342
312 308 306 306 307 307 307 307 308 308 309 308 308 309 318 320 321 326 322 319 320 326 334 331 331 338 339 343 348 348 352 345 347 353 354 352 355 355 353 354 351 348 345 343 342
313 310 307 307 308 307 307 307 308 310 308 308 309 311 319 321 319 324 322 320 321 325 331 330 330 331 336 339 348 351 349 348 347 352 353 353 360 353 352 353 350 347 345 343 342
313 311 308 308 307 306 307 308 314 314 311 310 313 318 323 324 320 324 322 322 325 328 328 327 327 328 331 338 346 349 352 350 348 350 353 355 359 354 351 350 349 347 345 343 342
312 310 310 308 306 306 308 313 315 313 312 311 323 323 320 327 321 323 327 325 327 327 326 326 327 330 332 338 346 346 346 348 350 352 353 356 356 354 352 350 350 347 346 344 343
310 309 307 307 307 308 311 319 322 325 324 324 324 324 323 324 323 325 327 327 326 327 327 327 330 331 332 335 341 342 343 349 348 346 355 356 357 353 353 351 350 347 346 345 344
311 308 308 311 313 315 318 322 318 318 319 324 323 321 322 322 325 325 326 327 325 327 327 329 329 329 329 333 336 339 341 346 346 346 354 356 357 355 352 350 349 348 346 345 344
313 310 311 313 314 316 317 318 316 317 318 319 319 321 321 324 326 325 325 326 325 326 327 328 327 328 330 331 334 336 340 344 347 343 344 347 358 346 352 351 350 348 348 346 343
316 314 311 314 317 318 320 317 318 317 320 321 321 321 319 322 327 325 324 325 326 326 326 326 327 327 330 331 332 336 339 343 347 349 357 348 364 360 355 353 351 349 349 348 342
316 315 314 311 312 318 319 316 317 318 322 321 321 320 320 321 324 325 326 324 327 326 326 326 327 327 328 330 330 336 339 341 340 340 339 341 345 359 354 357 345 346 347 347 348
316 315 316 322 320 318 316 317 319 320 323 321 320 320 320 321 322 324 326 325 325 328 326 327 326 328 328 329 330 335 337 340 340 339 338 343 344 357 355 350 351 348 350 344 346
317 315 317 317 320 320 319 318 322 322 325 323 320 320 319 321 323 325 327 326 328 328 327 326 327 327 329 330 332 335 336 339 342 341 338 336 342 353 345 353 352 350 350 343 346
316 317 318 320 320 320 319 322 326 326 325 323 321 321 319 321 323 323 326 326 327 328 326 327 327 328 331 331 333 334 334 338 340 338 337 336 342 353 343 349 349 347 351 344 344
317 316 320 322 321 319 320 327 326 324 322 321 321 320 321 322 322 324 325 326 326 328 328 326 327 329 329 332 333 334 335 336 337 336 335 347 351 349 347 345 345 347 351 351 353
315 321 323 322 320 321 324 323 324 323 320 320 321 320 322 322 322 324 325 326 327 325 327 328 328 330 331 332 334 334 333 335 336 339 338 350 352 352 350 346 342 343 343 343 344
315 322 322 321 318 321 325 323 323 319 319 321 320 322 323 323 325 326 327 327 326 326 327 327 331 333 332 332 333 333 333 334 334 335 336 350 353 347 348 344 342 340 340 341 341
321 325 322 319 319 323 326 324 318 320 318 321 321 321 323 324 325 325 327 324 322 323 326 327 332 333 329 328 330 331 333 333 335 339 336 348 351 342 343 340 339 337 338 341 340
323 319 318 318 324 326 322 321 320 321 321 321 320 319 321 324 323 324 324 323 321 323 325 326 329 332 329 327 327 327 329 330 332 334 338 342 348 341 341 339 337 335 336 338 338
322 321 320 319 319 323 323 323 322 319 319 320 320 319 319 322 322 322 320 320 320 321 317 324 326 331 329 327 327 327 328 329 331 332 335 345 346 343 343 340 337 334 333 334 335
322 318 318 321 320 320 320 321 320 320 319 320 321 319 318 321 321 321 320 320 320 320 322 323 325 327 328 325 327 326 327 327 329 330 343 344 343 343 341 340 337 335 334 333 332
318 321 317 318 319 319 315 318 319 318 319 319 321 322 321 320 321 322 321 322 323 321 323 323 325 327 324 323 325 326 326 327 327 328 333 337 341 337 336 335 335 333 332 330 329
320 318 320 316 319 320 318 318 317 317 316 318 320 322 323 320 321 321 321 321 322 323 324 323 325 325 326 323 322 324 324 323 324 326 338 342 338 335 334 332 330 329 328 327 326

GFSSW_850_thetae_087.txt.gz
Theta_e
307 307 308 308 309 311 313 313 311 312 315 309 307 307 307 307 308 308 310 315 317 321 321 325 318 339 342 351 351 352 357 361 358 357 357 354 354 353 353 350 345 345 345 346 347
308 307 306 307 308 309 310 311 311 310 312 314 307 307 308 308 308 309 313 313 319 319 318 328 325 331 334 347 350 352 357 360 354 354 356 354 353 352 352 351 348 345 345 346 346
309 306 305 305 306 307 308 309 309 309 310 312 309 307 308 308 310 319 323 314 315 318 316 330 331 335 338 347 352 353 358 354 353 354 353 352 350 350 351 351 344 344 344 346 344
312 308 305 305 305 306 307 308 308 308 309 311 310 308 308 308 329 329 323 318 314 317 317 336 338 341 345 349 352 356 352 353 353 353 351 351 350 350 353 351 344 343 344 347 346
312 310 306 305 305 306 306 307 307 308 309 311 310 307 309 318 314 320 322 319 314 316 322 336 338 338 344 346 350 345 350 353 352 351 350 348 350 352 351 350 345 342 343 347 346
313 312 308 306 306 306 306 307 307 308 309 310 309 307 309 316 325 325 323 317 313 316 330 338 338 336 343 344 352 351 350 353 351 350 349 349 350 350 349 349 348 343 343 343 344
313 313 310 307 307 307 307 307 308 309 309 309 308 308 312 313 326 326 323 319 314 316 335 336 336 333 339 341 348 349 352 349 352 351 351 350 353 353 347 349 351 344 343 342 342
313 313 310 308 308 307 306 307 308 312 310 309 308 309 312 321 320 323 322 320 317 317 334 335 333 330 331 335 343 348 350 355 351 352 353 353 360 354 347 348 350 345 343 342 342
311 310 309 309 308 306 306 308 314 313 311 309 311 311 322 322 320 321 323 321 319 322 330 331 331 329 328 329 334 346 352 352 350 353 353 352 358 352 353 353 349 346 344 342 340
309 309 309 307 306 307 308 312 315 313 312 311 323 321 322 325 323 322 323 321 321 324 326 329 328 324 324 325 334 346 350 351 351 354 353 354 352 351 352 352 349 347 345 343 341
311 307 307 307 308 309 311 317 324 324 321 320 320 323 324 324 324 323 324 322 325 328 326 327 323 323 326 327 330 337 342 350 350 351 356 353 355 355 352 351 348 346 345 343 342
314 309 308 311 312 316 318 319 320 317 317 318 321 322 323 322 322 324 326 326 327 326 325 324 324 326 328 329 331 332 339 346 350 351 350 342 352 354 352 351 348 347 346 343 343
315 314 311 312 313 315 316 318 317 317 317 318 318 322 323 321 324 325 326 327 325 325 326 325 326 327 328 327 329 330 335 339 349 349 345 345 352 353 353 351 350 348 346 346 343
316 315 314 310 315 318 318 320 317 318 315 319 318 318 321 321 325 326 325 327 326 323 324 325 326 327 327 326 327 326 331 335 344 346 349 347 359 350 352 353 350 348 348 347 346
318 315 315 314 314 317 317 316 317 318 319 321 319 320 321 321 323 327 325 325 325 324 323 323 325 325 325 326 328 328 333 342 344 344 348 345 354 351 352 355 352 348 347 347 347
317 316 315 316 319 321 321 320 318 319 322 325 320 320 319 320 320 323 325 324 324 324 324 324 325 324 324 326 327 329 328 340 340 344 348 345 346 359 356 355 352 348 348 345 347
312 316 315 316 318 320 320 319 320 321 325 325 324 322 318 318 319 320 325 324 324 323 324 326 325 324 326 325 325 326 327 337 341 342 341 333 347 354 352 352 346 344 347 347 347
313 315 315 318 319 321 321 320 326 325 323 323 324 323 322 318 319 321 323 325 324 324 324 326 324 324 326 323 325 325 330 333 342 341 336 335 353 351 347 348 349 344 346 347 345
312 312 316 318 321 320 321 326 327 324 323 322 320 319 320 320 321 320 323 324 325 324 324 324 324 325 325 327 328 328 331 330 330 333 332 352 350 347 346 346 348 349 347 341 340
312 313 319 323 323 322 323 321 325 323 323 321 320 322 324 323 324 326 326 325 325 325 326 327 328 324 326 328 329 328 331 330 328 336 336 356 354 357 349 344 344 343 344 344 344
314 320 323 323 323 322 324 324 322 322 322 320 321 322 323 324 324 326 328 326 324 326 324 325 328 328 326 325 328 331 332 331 328 331 333 353 354 348 344 342 340 341 342 343 345
316 324 323 321 322 323 323 323 322 321 318 321 320 322 324 325 325 327 327 325 322 323 322 327 324 329 331 331 330 332 331 330 329 331 335 347 352 342 340 338 338 340 341 342 343
319 323 320 317 324 325 324 323 323 321 320 320 320 319 322 325 325 323 325 322 321 322 322 325 325 330 329 329 327 328 328 328 327 327 331 341 351 340 339 338 338 339 339 340 340
321 324 320 320 322 322 322 323 323 319 319 320 320 319 319 322 322 322 323 321 320 323 320 323 324 329 331 328 325 326 326 325 326 327 339 347 347 342 340 337 336 336 337 338 337
323 320 317 317 319 318 319 320 319 320 319 320 322 321 319 322 322 322 321 320 320 320 322 323 325 324 326 327 327 325 325 326 327 339 345 344 345 343 338 335 334 333 334 334 333
318 319 320 317 319 320 317 318 318 317 317 319 321 322 320 321 321 323 321 321 322 322 321 321 324 325 328 327 323 323 325 326 326 338 340 341 343 338 337 335 335 333 332 332 332
320 321 324 324 319 318 317 317 317 319 317 316 319 324 321 320 319 319 319 321 322 322 323 322 323 325 326 323 322 325 325 323 326 337 339 342 339 338 336 332 330 329 328 328 327

GFSSW_850_thetae_090.txt.gz
Theta_e
311 309 307 306 307 308 309 311 312 312 313 314 311 307 308 308 308 309 310 313 315 321 321 324 318 337 342 346 350 350 356 358 357 355 355 352 352 347 345 345 345 345 348 346 346
312 310 307 305 305 306 307 309 310 310 310 313 314 308 308 308 309 310 312 312 316 321 320 323 318 333 338 339 347 351 356 354 352 349 354 353 353 353 346 344 345 347 348 347 347
312 311 307 305 305 305 306 308 308 308 309 311 313 310 307 308 309 321 321 312 317 319 319 319 319 331 329 336 350 351 357 350 349 352 354 353 352 351 349 352 345 346 348 349 348
312 312 309 306 305 305 306 306 307 308 308 310 312 311 308 308 329 328 322 315 314 318 317 320 328 328 336 338 351 353 353 354 350 354 352 352 350 353 351 348 345 346 347 348 348
312 313 310 307 306 306 306 306 307 307 308 309 311 309 308 310 311 321 322 318 314 317 316 325 332 335 337 344 352 354 351 353 352 351 351 350 352 352 349 345 346 346 347 347 346
312 313 312 308 307 307 307 307 307 308 308 309 310 308 308 312 323 324 323 320 315 316 316 328 337 338 337 340 349 348 353 353 351 349 349 350 352 349 349 344 345 346 346 344 344
313 313 311 308 308 307 307 307 307 308 309 309 309 308 308 313 322 326 324 323 314 316 319 335 337 337 336 332 348 347 351 351 350 350 349 349 352 351 348 345 344 347 346 345 344
311 310 310 309 308 307 306 307 308 313 311 309 308 307 311 316 319 322 323 320 314 315 320 335 336 336 334 331 330 350 352 355 351 350 350 348 355 349 347 347 346 343 346 346 344
310 308 308 308 307 306 307 308 314 312 310 308 309 310 314 320 319 320 323 320 315 317 321 334 329 330 329 326 326 337 352 353 355 351 351 352 350 349 346 348 347 343 342 342 346
311 309 307 307 307 308 309 314 319 316 313 310 318 321 321 322 322 319 321 321 319 321 321 323 325 324 320 321 327 332 348 350 352 354 352 351 352 353 347 349 348 343 342 342 343
315 311 309 310 312 313 316 316 321 321 318 317 317 322 322 323 324 321 322 321 320 320 322 326 321 321 322 322 324 327 329 334 351 350 345 350 350 350 352 349 349 345 343 342 343
315 314 310 311 312 314 315 317 317 318 315 317 317 319 318 321 322 322 322 321 320 323 325 323 322 321 324 325 326 328 330 346 352 345 346 346 348 343 349 351 350 347 345 342 341
316 316 312 311 315 316 318 317 318 318 317 317 317 317 318 322 322 322 323 322 323 324 324 322 322 323 326 325 327 326 329 334 352 345 344 345 345 345 348 350 349 347 346 342 341
314 317 314 312 312 317 317 317 317 318 311 315 317 317 318 319 321 324 324 325 324 323 323 322 324 325 325 326 326 323 326 328 350 349 351 343 351 349 351 352 349 348 346 343 341
311 315 316 315 316 318 320 321 320 317 316 322 316 319 320 319 323 324 325 325 325 322 320 321 324 324 325 326 324 324 326 327 346 345 345 346 353 349 350 355 350 348 348 345 343
311 311 316 315 317 319 319 320 319 314 318 324 320 321 319 318 320 321 325 325 325 323 322 321 323 321 323 323 323 324 327 336 342 344 348 343 348 353 350 353 351 348 347 347 344
310 311 313 315 317 318 319 321 316 319 322 324 322 321 319 316 317 317 320 321 321 322 321 321 323 322 322 322 320 322 323 330 338 345 346 338 346 349 347 350 350 349 347 347 345
309 311 311 315 318 319 319 317 324 323 323 320 321 317 320 317 316 317 319 322 321 320 320 323 324 323 322 321 322 321 322 329 339 341 342 345 349 353 347 349 350 348 347 347 346
310 311 312 318 318 320 321 320 324 322 322 322 319 318 320 320 322 322 323 321 322 320 322 323 323 323 322 322 321 322 326 324 331 335 331 351 348 346 346 347 346 344 347 347 345
311 315 320 320 321 322 317 319 320 322 321 321 318 321 322 321 322 324 326 325 323 321 320 322 324 323 325 323 323 324 325 329 324 332 334 351 351 350 350 349 346 347 344 343 344
312 319 322 322 323 322 318 318 321 320 321 320 319 321 322 323 324 325 327 325 322 321 320 322 322 324 326 323 323 325 327 325 324 325 332 350 351 346 344 343 344 343 343 344 344
317 317 322 323 320 318 317 321 321 322 322 318 318 322 323 325 324 325 327 324 323 321 321 321 319 324 326 326 324 326 327 325 326 328 332 346 352 341 340 340 341 342 342 343 346
318 320 321 322 317 318 320 321 321 322 320 319 319 319 321 322 322 324 325 324 323 320 320 319 320 324 325 324 323 324 326 323 321 322 329 342 347 340 339 339 340 341 341 341 344
320 318 320 320 320 317 320 322 321 321 320 319 319 318 318 321 320 321 323 323 321 320 322 322 319 322 324 323 323 325 324 323 320 323 341 344 347 344 340 339 338 339 339 339 340
322 316 318 312 313 314 318 320 318 317 316 318 319 320 320 319 320 320 320 319 319 322 321 318 322 322 321 323 325 325 324 322 327 331 337 344 343 342 338 336 337 336 336 335 337
320 321 323 319 316 313 313 313 315 314 313 315 321 319 317 318 318 321 317 318 321 319 320 317 321 321 322 324 322 321 321 322 333 339 342 341 342 336 334 334 334 334 332 330 331
319 321 323 322 312 312 313 315 316 317 315 317 319 321 317 317 317 318 318 317 319 319 319 319 319 324 325 322 320 320 319 324 335 339 341 343 339 334 334 333 333 332 331 330 328

GFSSW_850_thetae_093.txt.gz
Theta_e
312 312 309 307 306 306 307 308 310 312 312 312 314 313 308 308 308 308 310 312 313 321 320 321 321 338 341 344 347 350 355 356 356 355 353 351 346 346 347 346 344 346 343 344 343
312 312 311 307 305 305 306 307 308 309 311 311 313 314 309 308 309 309 311 311 314 321 321 321 321 329 339 342 348 350 355 354 351 350 352 350 347 346 347 346 347 345 345 345 344
312 312 311 307 306 305 306 306 307 308 309 310 311 314 311 308 309 319 320 311 315 320 321 322 321 333 331 334 345 350 356 350 348 349 349 351 350 345 345 348 346 346 346 345 345
312 312 312 308 306 306 306 306 306 307 308 309 310 313 310 308 318 323 320 314 315 320 319 321 321 326 332 337 347 352 349 350 350 349 352 351 350 344 345 346 346 346 346 346 345
312 312 312 309 307 306 306 306 306 307 308 309 310 312 310 310 311 323 320 316 316 318 318 319 325 329 336 337 351 352 351 353 352 352 352 350 351 348 350 346 347 347 346 346 347
311 311 311 309 307 307 307 307 307 307 308 308 310 311 309 308 315 323 321 316 314 317 317 318 327 331 336 336 350 351 351 352 351 351 350 351 350 349 347 345 347 347 347 348 347
310 309 309 309 308 308 306 306 307 308 309 309 309 310 309 315 319 325 323 321 316 316 316 317 336 337 336 334 343 351 354 351 349 348 350 349 352 350 347 346 347 347 347 347 346
312 310 308 307 307 306 306 307 309 313 312 310 309 308 312 314 323 325 323 320 317 315 315 317 329 335 335 334 329 351 352 355 351 350 349 347 354 349 345 346 346 346 346 346 345
314 311 309 307 308 307 307 310 314 312 310 308 308 309 314 317 318 323 322 320 318 314 313 328 328 329 329 324 324 338 356 353 354 350 349 347 350 349 346 346 346 346 345 344 344
315 314 310 310 311 311 311 314 318 318 315 310 312 320 321 322 320 319 321 321 314 316 318 320 324 323 318 320 328 333 344 351 353 352 350 351 346 348 348 346 347 345 346 345 344
315 315 311 311 311 316 315 315 319 318 317 317 316 317 317 322 322 320 319 322 318 320 319 322 322 323 323 321 324 327 328 341 354 349 348 348 349 350 348 347 347 344 341 343 344
316 316 313 311 312 314 315 316 316 318 316 318 318 317 317 318 319 321 320 321 319 319 322 322 323 322 321 321 325 328 329 353 349 347 349 349 349 346 347 347 348 345 342 344 345
311 315 315 311 314 316 317 315 319 319 316 317 316 317 317 320 321 322 320 321 319 321 323 324 324 322 323 324 325 326 328 347 350 346 345 345 346 344 345 348 348 345 347 343 344
310 311 315 315 314 317 316 319 319 318 310 315 316 317 318 319 320 321 321 321 322 320 321 323 323 324 323 325 324 326 326 328 349 347 351 344 350 346 344 350 349 346 347 340 342
311 309 312 314 315 317 319 320 319 317 319 321 318 317 318 319 321 322 323 323 323 322 320 323 324 323 324 324 323 325 327 325 346 342 344 346 351 347 349 353 350 349 348 344 341
310 309 310 313 316 318 319 320 319 314 320 323 320 320 318 317 319 321 324 325 325 323 320 321 322 322 322 323 323 324 324 332 339 341 344 343 348 351 352 352 351 348 348 346 340
309 309 310 312 317 318 319 320 316 317 320 321 321 319 317 316 317 318 319 322 322 322 321 320 321 321 321 321 320 321 321 326 342 343 344 340 346 345 346 348 349 348 348 344 340
310 310 310 312 317 317 318 316 323 323 322 319 320 316 319 318 318 318 318 318 320 319 319 322 323 322 321 321 321 318 318 325 339 340 340 341 344 343 345 344 348 348 347 346 345
311 312 313 316 318 318 321 318 321 321 321 321 317 318 319 319 322 322 322 319 320 319 320 320 322 321 322 321 319 321 320 320 328 330 333 343 345 345 347 346 346 347 347 347 345
312 319 317 317 319 322 315 317 319 321 320 320 318 319 322 321 320 323 324 323 321 321 318 320 322 322 324 322 320 320 320 325 322 336 337 343 349 347 350 348 345 344 344 345 345
313 321 320 320 322 322 317 316 319 320 320 319 318 321 321 322 323 323 325 324 321 320 319 320 320 322 324 322 321 323 325 322 321 325 333 342 344 345 345 344 345 341 343 344 344
318 317 321 318 320 315 316 319 320 320 321 319 319 321 322 322 323 323 325 323 321 320 321 318 317 323 323 323 323 321 321 322 324 327 335 339 343 340 341 340 342 341 340 343 343
319 320 319 321 315 315 316 320 320 321 320 317 318 319 319 322 321 322 323 323 323 319 318 318 319 323 323 322 320 321 321 321 319 321 340 342 341 340 339 339 341 340 343 342 343
320 312 317 320 318 315 320 320 319 320 318 317 317 316 319 320 319 319 320 322 321 322 322 321 316 321 323 322 320 323 324 321 319 322 331 335 345 341 340 339 339 340 338 341 342
318 313 318 311 311 314 316 319 316 315 314 317 318 318 319 318 318 320 318 317 320 326 319 318 321 321 320 319 321 323 323 319 320 324 334 339 343 342 338 338 339 339 338 338 339
320 319 322 318 313 311 308 313 314 313 313 315 320 318 317 317 318 319 316 316 320 319 320 315 320 322 323 323 321 320 319 320 333 340 340 340 342 337 336 337 337 335 334 335 337
319 321 322 316 309 311 312 315 315 314 315 316 318 319 317 316 316 316 316 316 315 319 316 317 317 322 325 322 320 318 318 318 332 339 339 340 337 333 335 336 334 331 331 331 333

GFSSW_850_thetae_096.txt.gz
Theta_e
312 312 312 310 307 306 305 306 308 310 312 312 312 315 315 308 308 308 309 311 312 317 322 322 321 328 342 342 346 350 354 356 354 354 351 350 347 346 345 343 345 345 344 343 342
312 312 312 310 307 306 306 306 306 308 310 311 311 313 316 311 309 310 311 311 312 317 319 321 323 339 340 342 347 350 353 355 350 350 351 348 347 346 343 346 344 343 344 343 340
311 312 312 311 308 306 305 305 306 307 308 309 311 312 314 312 309 318 317 311 312 321 319 320 322 339 334 333 345 350 353 349 349 347 349 347 346 346 345 346 343 344 344 341 339
312 312 312 311 308 307 306 306 306 306 307 308 309 311 314 310 314 322 320 311 315 320 322 322 321 331 335 335 343 351 350 351 349 348 349 349 347 346 345 346 340 341 341 342 343
310 310 310 310 308 307 307 307 307 306 307 308 309 310 313 311 311 323 319 313 319 320 322 323 324 331 338 337 343 351 350 351 351 349 350 350 347 345 347 345 342 343 344 344 344
311 309 308 308 308 308 307 306 306 307 307 308 309 310 311 310 311 322 319 314 316 319 319 321 324 337 334 336 347 350 350 353 351 350 350 350 348 345 347 345 345 345 345 345 345
313 311 308 307 307 306 306 306 307 308 310 310 309 310 311 315 317 323 319 314 315 318 317 319 332 331 336 334 334 351 352 351 351 351 350 350 350 349 348 346 346 346 345 345 345
314 313 309 308 308 306 306 307 313 312 311 310 309 309 313 315 317 324 319 315 314 316 317 320 331 334 335 335 326 351 350 354 351 350 349 349 356 350 347 347 347 347 346 346 346
315 315 312 310 311 309 309 313 315 315 310 308 308 308 313 314 317 324 322 319 317 317 317 321 318 330 328 323 323 335 353 353 354 349 349 348 353 348 347 347 347 346 347 346 346
315 315 314 311 311 313 314 314 317 319 315 311 310 318 320 320 319 321 322 320 316 315 316 320 323 322 318 320 329 333 345 351 353 352 349 348 348 347 346 346 347 346 346 346 345
312 315 316 311 312 313 314 314 317 316 317 317 317 316 316 320 321 319 317 318 314 317 317 320 322 324 323 322 324 327 332 348 351 349 350 350 349 349 347 346 346 346 344 344 344
311 311 315 312 313 314 316 316 318 317 316 317 318 317 317 317 318 319 318 320 318 317 320 320 323 322 321 321 324 327 344 353 349 348 347 348 349 347 348 346 345 347 344 344 343
311 310 312 314 313 315 316 318 317 317 315 316 316 317 317 318 319 320 320 319 317 320 322 323 324 322 322 322 325 325 330 350 351 345 345 344 346 346 345 345 347 346 346 343 343
312 310 309 313 314 315 316 318 319 318 311 316 316 317 319 319 319 321 320 321 319 319 321 324 323 322 323 324 323 325 328 344 347 345 344 343 345 345 344 349 347 346 344 345 344
312 310 309 311 314 316 318 318 319 316 318 321 318 317 318 318 320 320 320 321 321 320 321 324 322 323 323 323 323 325 328 340 346 342 343 344 348 345 343 345 349 348 346 344 344
310 309 308 310 315 317 318 319 318 313 324 322 320 319 316 316 317 321 321 323 323 321 320 322 321 321 322 322 322 324 326 335 337 336 344 342 344 345 350 344 347 348 347 345 344
310 310 309 310 317 317 318 319 315 319 319 321 320 316 316 318 315 315 321 321 321 322 322 320 321 320 321 321 319 321 325 331 345 345 343 337 346 343 346 346 346 348 345 346 346
312 311 310 311 316 317 319 316 322 322 320 319 318 317 319 318 319 318 317 316 318 318 317 321 322 320 319 320 319 317 321 327 341 343 341 340 345 341 345 346 348 348 347 346 346
313 312 313 316 318 319 320 316 319 320 320 320 317 318 319 319 320 321 320 318 319 318 320 320 322 320 320 319 318 318 318 319 325 327 338 340 340 342 346 346 347 347 346 345 343
315 317 316 317 319 321 314 316 318 319 319 318 320 319 320 320 319 322 323 322 321 319 317 318 321 320 323 321 319 319 318 322 320 332 338 334 344 340 350 347 345 346 345 345 343
317 320 318 320 321 320 315 315 318 319 319 318 318 320 320 321 322 322 323 322 320 319 318 318 318 321 321 321 320 321 321 319 320 326 332 335 337 342 344 346 346 344 344 345 344
319 316 320 319 319 313 314 317 319 320 320 318 318 320 321 321 322 322 323 322 321 319 320 317 316 321 321 321 320 322 321 319 323 326 328 330 335 340 342 344 342 342 343 343 344
319 320 318 320 316 312 314 320 320 319 318 316 316 318 319 321 320 320 322 322 322 320 317 317 317 321 321 321 320 321 321 319 316 324 336 334 334 340 341 341 341 340 342 343 343
319 312 317 320 317 314 318 318 319 319 315 316 317 315 318 319 319 319 318 321 320 321 322 319 315 319 321 322 319 322 322 322 318 322 327 332 339 343 341 340 340 339 339 341 344
318 314 315 312 311 314 314 313 314 313 312 317 317 317 318 317 318 319 316 315 321 325 318 316 320 320 320 319 320 321 319 318 318 319 328 330 338 339 339 339 340 339 339 340 340
320 319 320 314 311 311 308 313 313 313 313 313 318 318 316 317 318 318 316 315 318 318 317 313 321 321 323 322 321 319 319 323 323 335 338 336 340 334 337 339 338 336 336 336 338
319 322 318 313 308 310 311 314 315 313 314 314 315 318 316 316 316 316 315 314 314 315 316 315 319 321 324 320 319 318 319 319 320 335 336 338 335 336 337 337 334 334 335 334 335

GFSSW_850_thetae_099.txt.gz
Theta_e
312 312 312 311 309 307 306 306 306 307 309 311 313 314 315 314 308 309 309 311 312 318 322 320 328 338 338 343 347 349 356 357 356 351 352 349 348 347 345 344 345 345 343 344 342
311 312 312 312 309 307 306 306 306 306 308 309 310 312 315 317 312 310 310 310 311 318 322 321 324 339 341 341 345 350 355 355 350 350 350 349 347 344 345 345 346 345 345 343 342
312 312 312 312 310 307 306 306 306 306 307 308 309 310 313 316 310 315 316 311 311 317 322 322 327 336 337 338 346 351 354 350 349 349 349 347 347 343 345 346 345 345 345 344 344
310 309 309 310 309 307 307 306 306 306 307 308 309 310 312 314 314 323 319 310 311 318 320 320 333 337 341 338 341 352 350 349 346 348 349 347 346 344 344 345 343 344 341 342 340
311 309 308 308 308 307 307 307 307 306 307 308 309 310 312 313 312 317 319 311 311 321 321 321 328 338 345 341 341 349 350 349 346 348 350 347 346 344 348 343 344 344 343 342 340
313 311 308 307 307 307 306 306 306 306 307 308 309 309 311 314 311 321 318 310 318 321 324 322 329 340 338 338 343 349 350 351 351 350 349 348 346 344 347 343 344 344 344 344 343
314 313 309 309 307 306 306 307 308 310 311 311 309 310 312 316 316 321 315 311 320 321 322 324 330 335 336 337 337 349 352 350 349 350 349 347 346 349 347 344 345 345 345 345 344
314 314 311 309 310 307 308 311 315 313 310 310 310 310 313 314 316 320 312 311 319 319 318 322 328 333 335 335 331 352 350 356 351 350 349 348 352 347 347 345 346 346 346 346 346
313 315 314 311 311 313 313 314 316 319 311 309 308 308 314 314 316 320 313 314 316 317 319 320 327 331 330 330 333 347 356 354 356 350 351 344 349 348 346 347 347 347 347 347 347
311 312 315 311 311 313 313 314 317 319 317 315 311 317 319 320 317 322 319 318 316 316 318 319 323 332 329 331 340 345 351 352 355 352 347 346 347 348 348 347 347 347 347 347 346
311 310 312 312 312 313 316 315 317 316 317 317 316 316 316 318 319 320 320 315 315 316 322 322 331 339 337 329 329 331 339 352 354 349 350 350 351 350 347 347 347 346 347 347 346
312 311 309 313 313 314 316 317 317 318 318 317 317 317 316 317 318 317 320 318 316 317 321 325 330 332 328 326 328 338 348 353 352 349 349 350 351 350 348 347 347 347 346 346 345
312 311 310 309 313 315 316 317 317 317 317 316 315 316 317 317 319 318 319 318 317 321 322 323 327 327 324 325 327 328 335 350 352 347 344 347 349 348 349 347 347 346 347 346 344
312 311 309 309 313 314 316 317 318 317 318 322 317 317 319 319 321 319 320 319 320 321 325 327 324 329 325 325 326 328 329 348 349 347 348 346 353 349 349 350 347 345 346 346 345
311 309 309 308 311 315 317 317 318 315 322 322 319 316 319 318 320 319 320 321 321 323 325 326 326 327 327 326 326 328 329 345 347 347 347 347 350 348 349 351 350 347 346 347 345
310 311 310 309 313 316 317 318 317 318 324 322 320 319 317 318 317 320 320 321 321 323 324 325 322 326 327 324 326 328 339 342 342 345 348 342 344 352 351 350 347 347 346 346 346
313 312 309 311 316 317 317 319 319 324 321 322 321 318 320 319 320 320 322 323 325 326 326 324 324 323 323 325 323 325 332 342 343 342 341 342 347 343 347 346 343 348 347 346 346
315 311 310 314 316 317 320 321 324 322 322 321 320 319 322 321 322 320 323 324 321 325 326 325 323 324 323 324 325 326 328 337 344 344 342 345 348 346 345 347 345 344 347 347 347
315 313 314 316 317 319 320 322 322 322 322 321 320 321 321 321 322 322 321 323 323 323 327 326 325 322 322 323 324 323 326 329 336 336 343 347 344 342 348 348 347 345 348 348 347
317 316 317 318 320 321 320 318 320 320 320 319 322 321 322 323 322 324 324 323 323 321 320 324 325 323 324 323 321 324 325 326 328 338 341 342 347 343 353 351 350 349 347 347 346
318 319 319 320 321 320 322 319 319 319 319 320 321 321 322 323 323 323 325 323 321 321 321 323 325 325 325 326 326 325 325 326 327 331 335 338 342 345 349 349 350 350 349 348 346
319 323 319 319 321 316 321 319 319 320 319 319 320 322 323 323 323 324 325 324 321 320 324 322 325 326 325 323 323 326 326 327 328 331 332 334 337 344 345 347 347 348 347 347 347
320 319 318 320 322 320 318 321 321 321 318 318 318 320 321 322 323 322 323 322 322 322 322 323 325 326 326 326 324 327 325 325 325 330 334 333 333 340 342 345 345 344 345 346 346
318 320 317 320 316 319 321 320 320 317 316 317 319 319 321 322 322 322 320 321 319 322 323 322 324 327 325 326 325 328 324 324 325 328 330 334 338 344 344 345 342 344 344 345 345
318 318 314 321 316 316 317 315 316 316 314 317 320 319 320 320 321 321 319 319 322 323 321 322 327 325 324 324 323 323 322 327 324 328 330 329 340 343 344 342 342 341 342 343 343
320 321 315 313 311 315 313 316 316 316 316 316 316 318 318 320 321 321 319 319 320 321 322 320 327 325 327 324 324 322 322 327 330 325 326 337 337 339 340 340 340 340 340 341 343
320 320 315 311 313 316 316 316 316 315 314 314 314 317 319 317 316 316 315 316 317 320 322 323 326 327 327 324 323 325 323 325 330 332 336 340 340 341 340 340 340 339 339 339 340

GFSSW_850_thetae_102.txt.gz
Theta_e
311 312 312 312 310 308 307 306 306 306 308 311 314 314 315 316 312 309 310 311 311 317 326 340 343 344 341 344 349 349 357 359 356 355 355 351 350 349 348 347 346 346 343 345 346
312 312 312 312 311 308 306 306 306 306 307 309 311 313 314 316 317 313 311 309 311 318 328 334 342 343 343 345 347 351 358 356 353 350 353 350 349 348 348 348 346 345 345 346 346
310 309 309 310 310 308 307 306 306 306 306 308 309 311 313 316 315 315 318 310 311 318 327 329 337 342 344 344 348 352 356 353 350 350 351 350 348 347 347 349 348 347 346 346 345
311 309 308 308 308 307 307 307 307 307 307 308 308 310 312 315 319 323 319 311 310 321 327 325 333 340 344 347 346 353 352 350 348 350 350 350 347 345 344 345 346 345 344 343 342
313 310 308 307 307 307 307 307 307 307 307 308 309 309 312 318 317 317 319 310 310 325 325 324 331 342 349 347 346 351 352 348 348 350 349 348 346 346 346 345 345 344 342 340 340
314 312 309 308 307 306 306 306 306 307 307 308 309 310 313 319 314 316 319 311 323 323 322 322 329 343 348 344 345 349 350 348 348 350 350 349 346 345 345 345 344 342 340 340 338
314 314 310 309 309 306 307 308 311 312 312 311 310 310 316 318 315 322 322 323 323 323 323 323 328 342 341 340 339 349 354 351 349 352 348 348 350 349 344 343 342 342 342 341 341
313 315 313 311 311 311 312 314 317 316 310 311 311 310 317 314 318 321 320 325 326 322 322 324 332 341 339 338 337 352 353 358 351 351 348 347 355 349 345 342 344 344 343 344 344
311 311 314 311 311 314 313 314 316 318 312 310 311 314 318 314 320 319 316 319 322 320 319 322 328 339 338 338 344 355 359 356 356 349 347 343 352 347 347 344 345 346 345 345 346
311 310 311 313 312 313 315 315 317 319 317 316 312 320 320 321 319 319 318 318 319 319 319 321 327 339 341 340 344 352 354 355 356 350 342 343 348 346 348 345 345 346 346 345 345
312 311 310 311 312 314 316 316 320 322 321 321 319 319 320 319 321 321 319 318 318 318 322 321 328 342 347 341 336 343 349 355 354 346 344 345 347 348 347 349 347 346 346 346 346
312 312 311 309 313 315 317 319 319 318 321 319 319 319 319 319 320 322 318 319 319 320 323 323 327 338 341 336 334 345 351 357 352 349 351 350 351 348 346 347 347 346 346 345 345
312 312 310 309 312 315 318 318 317 317 321 319 318 319 320 319 321 322 320 320 319 320 323 324 323 334 338 336 334 338 344 351 355 349 348 345 348 351 346 345 346 346 346 346 346
312 310 309 308 313 314 318 318 318 317 323 322 320 320 320 321 322 320 321 321 320 321 322 324 327 332 336 334 331 336 338 344 352 350 351 347 354 348 351 351 345 342 346 346 347
311 311 311 308 311 316 318 317 318 316 323 323 320 318 321 323 323 322 321 322 322 321 324 325 327 331 332 334 331 331 333 338 342 343 345 349 348 348 349 354 352 345 345 346 346
313 314 310 309 312 317 317 318 317 322 326 323 321 322 321 321 323 322 322 322 323 323 323 326 327 330 332 329 329 335 340 340 338 339 345 343 345 354 352 351 352 348 348 346 346
315 310 309 313 318 317 317 319 322 325 323 323 322 322 323 322 323 324 324 324 326 325 323 326 327 328 329 332 329 333 336 343 347 344 346 344 346 346 350 349 350 350 348 346 346
311 311 313 316 316 318 320 323 323 323 324 323 322 323 323 323 324 324 324 325 326 327 325 326 327 327 326 330 333 333 332 339 345 347 341 344 346 348 346 346 346 348 348 348 347
313 314 315 317 318 320 322 322 324 324 323 323 323 323 323 323 323 324 325 325 325 327 328 326 325 325 326 326 328 331 334 334 336 339 341 343 342 345 345 348 347 346 346 349 347
316 319 319 319 320 321 322 321 323 322 323 323 323 323 323 323 323 323 324 325 325 325 326 328 327 325 325 325 326 327 328 333 335 339 340 342 343 343 351 350 349 346 347 349 348
318 321 319 320 321 322 323 322 322 322 322 323 322 323 324 324 325 324 325 325 324 325 325 327 327 327 326 325 326 326 327 327 329 332 334 339 340 347 349 350 351 348 348 349 349
321 323 319 320 322 322 323 323 321 322 321 322 322 322 324 323 324 324 326 326 323 324 325 326 327 328 327 327 327 328 327 328 328 330 332 335 341 347 349 350 350 350 348 348 347
324 323 320 320 322 323 323 322 322 322 321 321 321 321 322 323 324 323 324 324 324 325 326 327 326 328 328 328 327 327 328 329 328 329 331 332 333 345 347 350 350 351 352 351 350
322 324 322 322 322 322 323 322 321 318 321 321 321 321 321 322 323 324 323 324 322 324 321 323 327 327 327 328 328 328 329 329 329 329 329 331 331 346 347 350 350 349 349 350 351
322 322 320 322 320 320 320 319 319 320 318 319 322 321 322 323 323 323 323 323 323 325 325 327 327 327 326 326 326 328 328 328 329 329 329 329 331 333 344 348 349 348 347 348 348
324 323 320 319 319 319 316 319 318 318 317 317 317 319 322 323 324 324 323 324 325 325 326 326 328 328 326 327 327 327 327 327 330 330 328 329 331 339 343 345 347 346 346 346 348
321 319 320 317 319 319 319 318 318 317 317 316 316 316 322 322 320 320 320 321 322 325 325 325 326 328 326 327 328 329 328 327 329 333 333 331 333 342 346 345 345 345 345 346 345

GFSSW_850_thetae_105.txt.gz
Theta_e
312 312 312 312 312 309 308 307 307 306 307 309 313 315 316 316 316 312 316 316 314 315 332 343 346 346 344 341 349 348 357 360 355 355 355 349 350 349 349 348 347 347 345 346 344
310 309 310 311 311 309 307 307 306 307 307 308 310 313 315 315 317 320 317 312 311 315 333 341 346 346 344 345 349 353 360 357 353 351 354 351 350 350 348 348 347 346 346 345 345
310 309 308 308 308 308 307 307 307 307 307 308 309 311 313 315 323 321 318 311 311 315 332 335 345 345 345 348 348 353 358 354 353 352 349 349 349 346 346 347 346 348 347 346 344
313 310 308 307 307 307 307 307 307 307 307 307 309 310 313 315 325 326 319 313 312 317 329 332 338 346 346 348 348 354 353 352 352 352 350 349 348 346 344 346 347 347 345 344 343
314 312 309 309 307 307 306 306 306 307 307 307 309 310 312 323 322 323 320 313 311 324 329 329 334 344 347 348 348 352 352 349 348 351 350 348 347 347 345 346 346 346 344 342 340
314 314 310 309 309 306 306 307 308 308 308 308 309 310 316 324 319 326 324 310 317 327 328 327 332 340 348 349 349 350 351 351 351 352 350 348 347 345 344 346 345 344 342 340 339
314 315 313 311 310 310 311 313 316 312 312 312 311 311 320 322 319 327 322 318 319 325 326 325 327 339 347 347 344 351 353 351 350 352 351 349 348 346 344 344 344 342 338 339 339
311 311 314 311 310 314 314 315 316 318 310 311 311 315 323 318 323 325 324 324 323 325 324 323 326 335 345 343 345 354 352 357 351 352 350 352 354 346 344 344 341 340 339 339 340
311 310 310 312 311 314 315 315 317 318 314 313 318 322 321 317 323 323 323 326 324 325 324 325 327 340 345 345 348 354 360 356 356 349 349 350 354 346 342 341 342 341 341 341 342
312 312 310 310 312 314 316 316 317 318 318 318 320 322 321 321 324 320 319 323 324 322 322 323 328 344 346 346 346 353 356 357 357 347 347 348 352 350 343 342 343 342 343 343 343
312 312 311 310 312 314 317 321 325 327 325 325 321 322 322 322 322 322 321 320 321 322 323 322 328 342 345 344 342 351 356 357 353 345 346 349 350 348 349 347 345 344 344 344 345
312 312 311 310 311 315 317 322 320 320 324 321 320 321 322 321 324 322 321 321 320 323 324 324 326 332 342 345 340 342 353 354 350 345 346 348 349 346 345 349 347 345 345 345 345
312 312 310 309 310 315 319 320 319 320 324 320 319 321 321 321 323 323 321 322 322 322 324 326 326 328 342 345 340 342 352 351 351 349 347 348 347 347 345 345 347 348 347 345 346
312 310 312 308 314 318 320 320 319 320 327 322 322 323 322 322 323 324 321 322 322 322 324 326 327 326 340 342 340 340 349 350 346 352 351 347 352 348 347 347 346 344 347 346 343
311 314 313 308 319 318 321 319 320 321 327 323 321 322 323 324 324 322 321 323 324 322 323 324 326 327 333 339 338 337 338 349 350 349 344 350 350 348 350 351 347 344 345 348 345
316 313 309 308 311 319 319 320 321 324 328 324 323 323 324 323 324 323 322 323 325 324 323 326 326 329 332 333 335 336 340 341 343 344 346 349 349 349 350 354 349 342 342 343 347
311 309 310 317 320 319 319 321 325 326 324 323 323 323 323 323 325 325 325 325 327 326 325 325 328 328 330 332 334 339 343 346 346 344 344 345 346 351 348 348 350 348 343 341 345
311 313 316 318 319 319 323 327 326 324 325 324 323 323 324 323 325 325 325 326 327 327 326 324 328 329 330 334 333 337 339 346 350 348 345 346 345 352 348 347 349 349 345 341 344
315 317 321 321 320 320 323 328 325 325 324 323 323 324 324 323 324 324 326 326 327 328 330 327 327 327 328 329 332 333 338 338 342 343 347 347 348 348 348 348 348 349 349 346 347
322 322 321 321 322 323 326 321 324 324 324 324 325 324 325 324 323 324 326 326 326 327 328 331 329 327 327 327 327 331 332 335 337 341 346 343 346 351 349 349 348 348 349 350 348
321 324 320 321 323 325 325 324 323 322 323 324 323 323 324 324 324 324 326 326 325 327 326 329 329 329 327 327 328 327 329 331 334 335 337 339 343 348 351 349 350 349 348 349 349
324 326 320 322 325 324 324 324 322 322 321 323 323 324 324 325 325 324 325 327 325 324 326 327 328 330 329 328 326 328 327 328 330 333 333 335 350 347 347 347 348 348 347 350 350
326 322 320 322 326 325 323 323 323 323 323 323 323 323 324 325 325 324 325 326 325 325 327 328 326 330 330 329 328 327 329 328 328 329 331 332 343 347 348 350 350 349 349 350 351
323 325 322 321 320 324 325 324 323 320 322 322 323 322 323 324 325 326 325 325 324 325 324 325 327 328 329 330 330 330 328 329 329 331 330 331 336 347 346 350 351 352 351 350 350
322 324 323 324 321 322 322 321 321 322 320 320 323 321 323 325 325 326 324 324 324 325 325 325 327 327 329 329 329 329 329 328 330 330 331 331 331 333 345 347 351 352 353 354 353
325 322 320 320 319 321 315 321 319 320 318 320 318 318 321 325 326 326 324 325 326 326 326 326 327 330 330 327 327 328 329 330 329 329 329 329 330 335 345 347 351 350 349 351 351
324 322 322 318 321 321 322 320 319 318 318 317 317 317 319 324 323 323 322 323 325 327 327 326 326 327 329 325 327 327 328 328 328 328 329 330 330 341 344 346 348 349 348 348 351

GFSSW_850_thetae_108.txt.gz
Theta_e
310 310 310 311 312 311 309 307 307 307 307 307 309 313 316 316 316 315 314 317 317 316 324 331 343 349 346 347 350 348 357 362 356 352 348 343 350 347 347 347 345 346 344 344 343
310 309 308 308 309 309 308 307 307 307 307 307 309 311 314 316 316 318 318 318 316 315 330 343 346 348 347 344 350 353 358 358 354 349 347 347 349 349 348 346 347 345 345 343 342
313 310 308 308 307 307 307 307 307 307 307 307 308 310 312 315 320 325 322 320 312 314 334 342 347 348 346 346 349 351 358 352 354 351 348 349 349 347 346 349 346 346 343 342 342
314 312 309 309 308 307 307 307 307 307 307 307 308 310 312 314 329 327 321 317 312 315 333 336 343 348 346 348 348 352 352 348 352 351 351 346 344 345 344 346 346 347 343 342 342
314 314 311 309 309 307 306 306 307 307 307 307 309 310 312 325 323 324 320 316 312 316 331 333 337 346 347 347 348 352 352 351 351 352 348 345 344 348 346 347 347 347 344 342 341
313 314 313 311 310 310 310 312 314 312 310 308 309 310 312 325 322 326 323 315 313 320 328 331 333 341 345 349 349 350 351 351 350 351 350 347 347 344 347 346 345 345 343 342 340
311 311 313 311 310 314 315 316 318 318 311 312 311 311 321 324 321 325 325 315 316 323 329 330 331 336 343 349 349 352 355 351 353 353 354 349 349 344 344 345 344 344 341 340 339
311 310 310 312 311 314 315 316 316 317 314 312 312 312 325 321 322 327 324 319 317 323 327 328 328 328 335 346 347 354 353 357 350 351 352 351 354 344 344 344 343 342 339 340 340
312 312 311 310 312 313 315 315 316 317 315 315 322 320 325 319 319 325 325 323 325 325 326 325 325 329 336 347 350 354 356 357 354 349 350 352 354 345 343 343 342 340 339 340 340
312 312 312 311 311 313 316 317 318 318 319 317 318 324 324 321 322 324 324 326 325 326 326 325 327 330 339 349 352 355 351 349 356 351 349 352 351 345 343 342 341 340 340 340 342
313 312 312 311 310 314 316 322 327 325 327 327 324 324 323 322 324 321 321 325 326 324 325 324 326 332 344 346 346 347 349 353 350 346 349 351 351 350 347 342 342 341 341 343 343
312 312 311 310 310 313 316 322 321 321 324 326 320 321 323 323 324 323 321 323 324 324 325 325 324 328 338 344 347 350 352 353 347 347 348 349 351 347 346 348 345 345 344 343 345
312 311 310 309 309 313 317 322 321 321 325 321 320 321 321 322 324 324 322 322 322 322 324 326 326 326 329 339 350 349 350 350 349 347 346 348 348 348 345 344 346 347 349 346 345
311 311 314 308 317 320 321 321 320 322 327 323 321 323 322 322 324 324 322 323 324 323 323 324 327 327 328 336 342 352 347 346 348 351 353 346 354 345 344 345 344 347 348 347 345
313 316 313 308 321 320 323 319 320 322 331 324 322 324 324 324 324 324 323 323 324 323 323 324 325 328 327 338 340 345 345 345 349 350 347 349 351 352 346 346 345 345 347 346 347
316 310 309 309 312 320 319 320 321 325 331 325 323 324 324 324 325 324 324 323 324 326 323 324 326 327 328 332 336 341 345 343 343 349 357 351 351 347 349 346 345 341 341 345 347
310 310 310 319 322 320 320 322 327 328 327 324 324 323 325 324 325 325 323 325 326 327 325 324 327 327 329 332 336 338 346 351 355 359 355 346 352 350 347 346 344 341 340 343 343
313 315 316 319 321 320 322 328 331 329 324 323 323 324 325 323 325 325 325 325 325 327 326 325 325 328 328 331 333 335 338 342 346 348 352 348 350 351 344 344 344 342 342 342 342
316 317 322 322 320 322 325 329 328 326 324 324 323 323 326 324 325 324 326 325 326 328 329 331 326 327 329 330 333 334 336 337 343 342 344 350 347 348 344 346 346 347 345 343 344
320 325 321 321 322 325 328 325 324 323 323 324 326 326 327 326 322 323 326 326 327 328 327 330 333 328 328 328 329 332 333 335 335 347 349 347 346 355 352 352 353 350 347 346 342
318 325 319 323 324 326 329 324 323 322 323 325 325 326 326 325 326 326 327 327 328 328 327 329 331 331 328 328 327 327 330 332 333 335 339 351 350 350 347 350 350 352 350 347 343
322 327 321 323 326 327 326 324 323 323 321 324 323 324 326 326 324 325 326 328 326 325 326 327 329 332 331 329 328 328 328 330 332 336 335 337 347 343 346 347 347 347 350 348 345
324 326 321 322 326 326 324 323 324 325 323 324 324 324 324 325 326 327 327 326 325 324 328 329 329 329 331 331 329 327 328 328 327 329 334 333 345 341 339 344 348 348 349 352 351
325 327 324 322 323 325 325 325 324 321 322 322 323 323 324 325 325 326 328 325 324 323 325 325 329 329 330 332 332 331 326 327 330 328 329 330 349 349 349 347 347 349 352 353 352
323 326 325 326 323 323 324 323 322 323 321 321 323 322 323 325 328 328 327 324 325 324 324 324 327 327 329 330 330 331 331 331 329 330 330 332 334 347 347 347 347 351 352 354 353
327 327 322 321 321 322 317 322 320 321 320 321 320 320 318 323 326 327 326 327 328 326 325 325 326 327 330 329 329 329 329 331 330 328 330 331 332 342 347 350 350 354 356 355 352
326 325 323 321 321 323 323 321 320 319 320 318 318 318 318 323 324 323 324 324 326 328 329 330 326 328 328 328 327 329 329 330 331 330 330 330 338 335 344 349 345 351 353 354 354

GFSSW_850_thetae_111.txt.gz
Theta_e
310 309 308 308 308 309 309 308 307 307 308 307 308 310 313 316 316 316 312 313 317 318 318 328 347 349 349 346 350 348 353 356 354 353 346 347 350 348 344 343 342 344 341 344 345
313 310 309 308 307 307 307 307 307 307 307 308 308 309 311 315 316 317 314 316 317 316 318 334 342 346 349 346 349 351 354 355 351 352 350 349 349 345 347 346 345 344 343 345 345
314 313 310 309 308 307 307 307 307 307 307 308 308 309 311 314 315 323 321 315 317 316 319 340 344 348 348 345 347 352 353 346 347 350 348 349 348 346 348 347 345 344 343 341 340
314 314 311 309 309 307 306 306 307 307 307 307 308 309 310 313 329 327 323 319 320 315 317 337 338 344 347 346 346 353 349 347 345 347 347 350 349 346 347 346 344 342 343 341 339
313 313 313 311 310 310 310 311 312 310 308 307 308 309 310 320 320 324 322 319 316 313 319 335 336 341 349 346 348 351 345 343 345 347 349 349 347 346 347 345 343 342 342 341 339
311 310 312 311 310 314 315 316 318 316 312 311 309 309 311 321 326 324 326 316 313 314 326 333 334 338 346 346 349 351 348 347 349 351 352 348 346 348 348 347 344 343 341 341 339
311 311 310 311 311 313 315 315 316 317 312 312 313 311 312 319 322 324 327 319 313 315 324 331 331 332 338 348 349 349 354 352 352 353 351 350 348 348 347 347 345 344 341 340 342
312 312 312 310 311 312 315 315 315 316 315 312 312 312 314 323 322 325 327 321 315 319 326 329 330 330 328 346 351 355 352 355 351 352 348 351 352 346 346 345 345 342 342 339 340
312 312 312 312 310 312 315 316 316 317 318 317 320 325 326 321 320 323 326 322 317 319 325 327 327 327 326 335 349 348 353 346 349 349 346 350 349 345 345 344 343 342 341 339 341
313 313 312 312 311 311 315 317 320 320 320 318 317 323 324 324 321 323 325 323 322 323 326 326 326 324 326 334 351 353 350 347 348 350 349 352 349 347 344 343 342 340 340 340 341
312 312 312 311 310 310 315 317 325 325 320 325 326 324 323 324 324 324 324 325 325 325 325 326 323 324 326 333 348 347 349 353 349 348 350 350 351 349 347 343 341 339 340 341 341
312 312 311 309 309 310 315 320 323 321 322 324 325 321 322 323 323 322 322 324 326 323 324 322 321 323 327 345 347 349 350 348 348 346 347 349 349 348 346 346 346 346 340 342 343
311 310 311 310 309 311 315 320 321 321 322 325 325 320 321 321 323 323 322 321 324 323 322 322 323 323 324 345 350 348 349 349 349 345 344 348 348 346 346 344 344 346 348 343 343
311 315 314 309 317 319 321 321 321 321 323 322 320 322 322 321 322 324 323 322 322 320 320 320 323 325 323 332 345 350 346 346 346 346 350 345 352 345 345 344 343 343 346 345 345
316 311 310 311 320 320 320 320 320 322 331 327 322 324 324 322 324 324 323 323 322 322 321 320 321 323 325 336 344 346 341 347 345 345 349 347 352 348 343 345 344 341 343 347 346
313 309 309 309 312 319 320 320 321 323 331 328 323 323 323 323 325 324 324 322 322 323 323 321 324 323 326 339 340 345 348 346 345 346 352 348 351 346 348 345 343 341 342 346 347
312 311 310 314 322 321 320 323 327 328 327 326 323 323 323 323 324 323 324 322 322 324 324 322 322 325 327 337 342 343 345 348 351 352 353 346 351 350 344 343 342 340 340 342 346
314 315 316 319 318 321 322 325 333 330 327 323 322 323 325 325 324 325 322 320 322 323 323 322 322 326 326 330 341 342 342 345 349 352 352 349 355 351 341 342 340 342 339 342 346
316 318 320 322 320 322 323 329 329 324 323 324 324 326 325 325 325 324 324 322 323 322 324 327 329 325 326 326 328 333 338 334 343 343 341 349 348 350 345 343 343 342 341 341 345
318 320 323 324 322 323 326 327 322 322 323 325 326 326 327 326 324 324 326 326 327 327 326 327 330 330 326 327 327 332 331 331 333 348 350 348 346 352 346 347 344 342 339 341 343
318 322 324 323 324 325 328 326 324 321 323 323 324 326 325 326 325 326 327 328 327 326 324 325 328 329 329 326 326 326 326 328 328 331 342 352 348 344 342 344 344 345 344 342 341
321 327 322 324 326 327 325 323 323 323 322 323 322 324 326 326 325 327 327 327 325 324 325 326 326 327 329 328 325 325 325 326 328 329 331 336 344 338 340 343 342 340 344 346 344
319 323 326 322 324 326 323 323 323 323 322 323 324 322 323 323 326 327 327 326 326 323 326 324 326 327 328 328 329 326 325 325 323 321 324 330 341 341 340 336 342 342 344 349 345
322 328 325 323 322 324 325 326 324 322 322 321 323 322 323 324 325 328 325 326 324 323 324 323 324 327 327 330 330 330 330 328 324 322 323 325 348 342 339 339 338 335 339 350 347
323 326 327 327 323 323 322 323 322 322 321 321 322 322 320 321 326 326 326 326 326 324 323 322 323 326 327 329 329 328 329 330 329 327 328 335 347 345 342 342 344 340 345 349 347
323 327 328 324 321 322 319 322 321 320 320 320 320 319 318 317 325 327 326 324 327 326 327 324 323 326 327 328 329 330 330 329 329 330 327 340 345 340 341 343 344 343 351 353 352
328 327 328 327 324 322 323 321 320 321 321 319 319 319 318 323 323 323 319 321 322 327 328 327 329 330 328 327 328 328 332 331 331 336 340 348 346 343 337 336 339 334 340 345 351

GFSSW_850_thetae_114.txt.gz
Theta_e
312 310 308 308 307 307 307 307 307 307 308 308 308 308 310 314 316 316 314 313 315 318 319 322 340 345 345 347 349 347 352 354 353 354 350 345 343 343 343 345 344 345 346 346 345
314 312 309 309 308 307 307 307 307 307 307 308 308 308 309 312 315 317 316 313 316 317 317 336 346 347 344 348 348 349 352 353 349 348 351 343 346 344 342 342 344 343 345 345 345
313 313 310 309 309 307 306 306 306 307 307 307 308 308 310 311 316 325 322 314 315 317 317 334 337 337 343 346 349 349 351 344 344 346 348 346 341 345 344 345 341 345 346 345 345
312 312 312 310 310 311 310 310 310 308 307 307 307 308 310 312 328 326 323 320 316 315 316 328 338 338 344 346 348 350 343 342 343 343 346 348 347 346 346 344 341 344 345 346 345
310 310 311 311 310 314 315 315 316 315 312 309 308 309 310 315 318 323 322 319 319 315 316 327 338 336 347 346 348 347 346 344 345 344 346 347 351 348 346 343 343 344 344 345 345
311 311 310 310 310 312 315 315 315 316 312 312 311 310 310 317 325 324 326 319 315 315 316 322 336 334 343 346 347 348 346 344 344 347 351 351 348 347 346 343 343 341 341 343 343
312 312 312 311 310 311 314 315 315 315 315 312 312 312 312 314 323 329 326 326 315 314 320 335 333 330 331 349 350 347 349 347 349 349 352 350 349 347 344 342 342 341 340 338 341
312 312 312 312 311 310 313 315 315 316 316 314 313 319 313 321 321 323 324 323 313 314 327 332 329 327 327 346 348 346 351 357 349 349 348 350 353 346 343 342 343 340 340 340 344
312 312 312 312 311 310 313 315 317 317 318 317 317 323 322 323 321 322 326 325 314 319 317 327 324 326 326 342 351 347 354 349 349 348 347 350 350 348 345 343 343 341 341 342 344
312 312 312 312 311 310 312 318 322 323 320 322 320 321 323 323 322 320 324 324 319 318 318 318 323 320 320 328 349 352 349 347 348 349 349 350 349 348 344 344 343 341 341 340 344
311 311 311 310 309 310 315 319 322 323 320 321 322 324 323 322 323 324 325 325 322 319 321 325 321 322 322 326 343 347 349 352 349 348 350 350 348 347 347 344 341 341 340 341 343
311 310 310 309 309 310 317 319 320 321 320 322 323 324 322 323 323 322 323 323 323 321 322 320 321 321 326 343 347 348 348 347 347 348 348 348 350 346 344 346 344 343 339 341 343
311 314 313 310 310 313 318 320 321 320 319 322 325 324 321 321 322 322 321 321 324 324 321 319 321 323 337 346 343 348 348 346 349 344 344 347 349 346 343 344 344 344 346 340 341
315 311 309 314 316 320 320 320 320 320 318 322 320 321 321 321 320 323 322 321 320 322 320 318 321 322 323 347 344 349 345 346 346 345 346 345 352 345 342 343 344 343 345 341 340
314 310 309 315 319 319 319 320 320 320 328 326 322 323 323 321 322 322 323 322 321 320 319 317 319 320 321 345 340 342 344 345 344 346 346 346 347 345 343 344 345 342 344 346 342
315 311 309 310 317 319 320 321 321 320 329 327 322 321 322 322 322 323 323 322 322 320 319 320 322 320 322 341 338 340 346 345 343 346 349 345 350 348 343 344 343 343 343 346 344
314 313 313 317 320 320 321 322 323 324 325 327 323 321 321 321 323 322 322 321 319 321 320 320 321 327 341 341 343 343 342 350 349 349 350 345 349 347 342 340 339 340 342 345 346
315 317 317 320 318 321 322 321 330 329 327 323 320 321 323 323 323 323 321 320 319 320 319 321 321 328 331 342 344 342 339 347 352 352 350 348 352 349 343 341 341 340 342 342 346
317 319 322 320 319 321 321 323 324 320 320 323 322 322 323 322 323 322 321 319 321 318 320 324 325 326 329 332 341 341 341 337 339 341 344 348 344 345 343 340 340 340 341 341 342
318 320 323 322 322 321 320 324 321 320 322 321 323 323 323 323 322 324 325 325 326 324 320 323 325 326 327 326 337 334 332 332 331 345 346 349 346 349 346 345 340 339 341 340 341
318 322 322 322 323 323 321 323 322 320 322 321 321 324 325 324 323 323 324 326 324 322 323 321 323 325 323 323 322 323 324 324 326 335 340 347 345 343 343 344 345 342 340 340 343
317 319 324 323 322 320 320 319 323 320 321 320 319 323 324 322 323 325 326 326 326 322 324 322 320 324 325 323 325 322 323 321 323 327 327 337 333 338 340 340 343 344 343 339 340
318 319 326 325 317 316 319 321 322 319 319 319 321 319 318 322 324 324 325 326 325 324 323 321 323 324 325 324 325 327 326 323 318 316 320 323 324 338 336 336 340 341 344 345 340
318 319 326 326 321 320 320 322 321 321 320 319 319 319 317 321 321 325 323 325 325 324 323 322 319 325 324 325 327 329 327 326 320 319 320 321 329 340 344 343 344 348 341 343 347
321 321 326 322 319 318 318 320 319 320 318 318 317 315 315 313 320 324 324 322 323 325 322 318 319 324 326 324 328 328 328 328 326 329 325 330 345 343 346 340 338 342 340 346 346
320 330 329 328 325 318 316 319 317 318 317 317 316 316 313 319 323 324 319 319 321 321 325 321 323 325 325 325 325 329 331 339 339 339 343 345 346 340 341 339 337 341 340 337 340
325 327 329 327 324 323 316 318 319 319 320 319 317 315 316 319 318 319 319 319 320 321 322 321 323 324 324 325 324 330 334 339 339 342 343 344 341 336 336 341 343 340 338 338 334

GFSSW_850_thetae_117.txt.gz
Theta_e
313 310 309 309 307 307 307 307 307 307 307 308 308 308 309 311 315 316 315 313 318 320 320 325 333 340 343 345 349 346 349 352 350 351 350 344 344 343 344 345 344 345 344 343 343
313 312 310 309 308 306 306 306 306 307 307 307 308 308 309 310 314 316 316 313 316 317 321 331 334 343 344 346 348 348 348 352 348 348 349 342 343 344 344 344 345 344 345 343 345
311 311 310 310 311 311 311 310 309 307 307 307 307 308 309 311 315 324 322 315 316 317 321 328 338 340 340 348 349 349 348 345 345 346 346 349 344 342 343 345 345 345 344 345 345
310 310 310 310 310 314 315 315 316 314 311 307 307 308 309 311 322 323 321 315 314 316 319 329 337 338 339 344 349 349 347 345 345 345 346 347 347 342 342 344 343 345 344 345 344
311 311 311 310 310 312 314 314 315 315 313 311 309 309 310 312 319 323 324 318 316 316 323 331 336 339 337 345 348 349 345 344 344 345 345 346 348 345 344 342 343 344 345 344 344
312 312 312 311 310 310 313 314 315 315 314 311 312 311 311 313 325 325 325 319 318 315 317 322 339 337 333 340 348 347 346 345 344 345 346 350 350 350 345 342 343 344 344 344 343
312 312 312 312 311 310 312 314 315 315 315 314 312 313 312 316 323 328 327 324 317 315 316 325 335 331 328 342 348 347 349 345 347 347 346 348 350 347 344 343 344 345 345 345 344
312 312 312 312 312 310 311 314 316 316 317 316 315 321 316 317 322 323 324 323 314 314 315 322 327 327 326 344 345 347 348 352 347 345 346 347 352 346 343 342 344 344 345 345 345
311 312 312 312 311 310 311 315 319 320 319 318 317 318 321 323 321 323 324 324 313 314 314 321 322 324 330 341 347 347 352 348 348 342 348 349 351 346 343 342 341 340 340 343 344
311 311 311 311 310 310 314 319 321 324 323 321 323 320 322 323 321 320 323 325 316 317 318 319 320 318 318 326 342 350 351 348 349 345 348 348 350 347 342 342 340 339 340 342 344
310 309 309 309 309 313 319 318 320 320 320 321 321 322 323 322 322 321 321 323 322 318 318 322 321 321 320 324 341 346 349 350 347 345 349 349 349 348 345 344 341 339 341 344 344
311 313 312 310 309 319 319 319 318 319 318 322 322 322 321 322 323 323 324 323 321 318 320 319 320 320 322 333 345 346 348 348 346 347 348 348 349 347 344 345 343 343 337 343 343
314 311 309 309 311 318 319 320 318 318 318 321 323 324 321 320 321 321 321 323 322 321 321 321 322 321 342 345 347 345 348 347 348 345 344 347 350 349 345 343 343 344 341 341 343
314 310 309 314 318 320 319 319 320 319 317 321 319 322 322 320 320 322 321 321 319 322 321 319 320 322 344 343 342 348 344 344 346 345 347 346 350 347 347 343 342 343 344 340 343
314 311 310 318 320 318 320 320 321 320 321 323 323 322 321 321 321 322 323 321 320 320 318 318 318 320 322 344 338 340 343 343 343 346 344 346 348 344 346 348 344 340 344 342 342
314 312 310 317 318 319 320 322 322 320 326 325 322 320 321 321 321 322 322 322 321 320 318 317 321 317 319 330 338 342 342 342 343 342 346 344 348 347 346 346 344 339 343 344 339
316 315 314 319 318 320 322 323 321 323 323 325 324 320 320 320 322 321 321 319 318 320 320 319 321 337 339 343 342 342 342 346 348 349 347 346 347 344 341 340 341 339 343 344 341
318 319 319 320 319 320 321 320 324 326 326 322 320 320 322 320 322 322 320 320 318 319 318 320 331 339 338 340 342 340 339 344 349 351 348 348 350 345 341 339 339 341 343 344 344
318 320 319 317 319 320 322 321 319 319 319 321 321 321 322 321 323 322 320 317 322 318 319 321 323 322 338 338 338 341 340 335 340 340 344 349 346 340 342 340 339 338 340 343 345
319 321 322 321 321 321 319 322 322 318 320 320 323 322 324 322 321 322 323 324 324 321 318 322 323 324 328 339 338 336 333 338 335 343 345 346 346 346 345 342 339 339 339 341 344
319 321 324 323 322 322 320 320 322 319 320 319 322 322 323 323 322 323 324 324 323 321 321 321 321 324 323 325 338 323 325 323 327 332 337 344 342 340 340 341 339 339 340 341 342
317 315 324 323 321 316 318 319 321 319 320 319 319 320 320 321 322 323 324 324 325 323 322 320 318 323 325 322 321 323 322 319 323 326 326 330 325 335 340 340 343 343 340 340 343
317 318 323 323 319 314 316 319 321 319 318 319 319 318 320 321 323 323 323 325 324 323 321 320 321 328 325 321 322 326 326 323 314 314 318 321 323 342 343 345 346 342 343 341 340
318 316 325 325 321 316 317 319 320 320 318 317 315 314 315 315 318 322 322 324 323 323 322 320 319 325 329 323 323 328 327 325 318 323 323 320 340 345 340 342 339 343 344 344 343
319 319 323 322 323 317 315 317 319 318 317 316 315 314 313 320 321 322 320 318 321 321 322 316 319 322 325 324 324 327 336 337 334 334 327 338 345 343 343 338 340 338 341 344 344
323 329 328 327 324 320 313 317 316 317 316 316 315 314 317 319 321 320 318 316 319 318 321 317 320 323 323 325 327 337 337 337 339 342 342 343 343 335 340 341 340 339 336 333 338
322 325 327 325 323 321 319 317 316 318 319 317 315 313 317 318 317 317 318 321 321 322 320 320 321 321 323 322 327 329 334 338 338 340 339 337 336 335 338 335 333 336 337 335 340

GFSSW_850_thetae_120.txt.gz
Theta_e
312 310 309 309 308 306 306 306 307 307 307 308 308 308 309 310 314 315 315 313 318 321 320 325 333 338 343 346 348 345 347 352 350 348 347 343 345 344 345 344 342 345 342 343 342
311 310 310 309 311 311 311 310 308 307 307 307 308 308 309 310 313 315 316 313 318 320 322 329 334 341 345 346 348 345 348 351 347 347 349 343 343 344 344 344 344 344 342 342 343
310 310 310 310 311 314 315 315 315 313 309 307 307 308 309 310 315 323 322 313 316 317 321 330 339 344 343 347 348 348 347 346 346 346 346 348 343 343 344 345 344 343 342 343 344
311 311 311 310 309 312 314 314 315 315 312 311 308 308 310 312 319 322 320 316 316 317 318 335 340 339 340 344 348 348 348 345 346 345 345 347 345 342 343 344 342 343 343 342 343
311 312 312 311 310 310 313 314 314 314 314 312 312 310 310 311 320 323 323 315 316 316 319 336 339 338 338 344 348 348 346 345 345 344 345 346 347 343 343 344 341 343 344 343 343
312 312 312 312 311 310 311 313 314 314 315 314 312 312 311 312 324 325 322 317 315 316 318 330 339 340 334 332 347 347 345 344 345 345 345 345 348 345 343 343 342 342 344 344 342
312 312 312 312 312 310 310 313 315 316 316 315 315 318 313 319 325 326 325 321 317 317 317 323 336 330 327 342 348 346 348 346 346 346 346 345 349 350 344 343 344 343 344 344 343
311 312 312 312 311 310 311 314 317 319 317 317 317 319 317 320 324 323 324 325 316 316 316 317 330 326 327 345 345 349 347 352 347 345 346 346 350 346 343 344 344 344 344 344 343
310 311 311 311 310 310 313 317 319 323 322 320 321 320 320 321 321 321 323 323 313 313 316 321 324 323 338 341 343 345 349 348 348 343 346 347 349 344 344 344 344 344 344 344 343
309 309 309 309 310 312 316 318 320 323 321 321 322 321 322 323 322 321 322 320 315 316 316 318 320 317 317 325 334 348 348 345 346 344 347 348 349 345 343 344 344 344 344 344 344
312 313 311 309 310 317 318 319 319 320 319 321 320 320 322 322 321 319 322 324 320 318 319 319 319 320 319 321 336 345 348 347 347 345 348 348 349 346 343 342 341 339 341 342 344
313 311 309 309 315 317 319 318 318 319 317 321 322 322 321 322 322 320 320 322 321 319 320 318 320 319 321 326 345 346 348 349 347 345 347 348 349 347 345 345 340 338 339 339 343
314 310 309 310 316 318 319 319 320 319 317 321 323 324 321 321 321 321 322 322 320 320 320 320 322 320 340 344 346 346 347 347 348 346 344 347 348 349 346 344 344 341 339 340 340
314 309 311 314 318 319 319 320 321 320 315 320 319 322 323 320 320 321 321 321 319 321 319 320 319 329 342 344 343 346 342 345 346 343 351 345 353 347 348 346 342 342 342 341 342
314 310 315 319 319 318 319 321 322 320 320 322 323 321 320 320 320 321 321 321 319 319 317 319 318 320 343 341 337 343 342 342 343 344 343 347 349 343 346 349 346 341 343 340 342
316 312 315 319 318 319 321 322 321 318 325 323 323 320 320 320 320 321 321 321 320 319 317 317 318 317 321 332 338 339 340 340 340 339 344 344 347 345 347 346 346 343 341 342 340
318 316 315 317 317 319 321 323 316 321 321 322 322 318 319 319 321 320 319 319 317 320 320 318 321 337 339 341 340 339 336 341 343 346 349 344 347 341 339 341 344 343 342 343 340
317 320 319 317 319 319 320 315 319 321 322 320 319 319 321 320 321 320 319 319 317 318 317 319 326 339 336 340 342 338 334 339 347 350 347 347 350 342 338 340 343 344 343 341 343
320 321 317 317 318 319 322 317 317 319 318 320 321 321 321 320 321 320 319 317 318 316 317 319 322 325 336 338 338 339 338 334 337 339 342 343 344 338 340 338 339 342 341 341 344
321 321 321 321 322 322 318 321 322 317 318 319 322 321 323 321 321 321 322 324 323 319 316 320 323 323 334 338 336 335 334 336 334 344 344 340 345 343 341 341 337 337 339 341 344
320 322 323 322 322 322 319 319 321 319 318 319 321 321 321 320 321 322 324 323 323 321 319 320 320 324 323 332 336 330 334 324 329 333 338 339 332 340 342 339 339 338 339 339 343
318 317 322 321 320 314 317 318 320 319 319 319 318 318 320 319 321 322 323 323 323 322 321 319 317 322 325 321 320 323 322 319 327 326 326 327 325 341 343 343 341 341 340 339 342
316 318 321 322 318 315 314 316 319 318 316 318 317 318 318 320 322 322 321 323 322 321 320 319 320 326 325 323 320 325 325 319 312 314 319 321 324 339 340 339 341 341 341 340 341
317 316 324 322 319 315 316 317 318 318 316 315 314 313 314 317 318 320 318 321 320 324 320 320 320 323 325 324 321 326 326 322 318 318 318 318 344 343 340 340 339 341 343 341 340
319 318 322 322 321 319 316 315 318 317 315 315 314 315 314 321 320 320 319 314 318 320 321 314 321 321 324 325 323 326 334 337 338 335 326 336 344 341 340 340 339 336 342 343 342
324 326 326 325 323 320 313 316 316 316 315 315 314 315 317 319 318 319 318 315 317 319 320 317 320 322 322 324 331 337 335 335 340 341 340 340 340 336 338 337 336 338 335 340 343
318 322 325 324 321 320 321 322 316 317 317 316 314 315 316 317 317 316 318 318 319 320 319 319 320 321 320 321 328 329 332 337 337 337 336 337 337 338 336 334 332 332 331 334 336

GFSSW_850_thetae_123.txt.gz
Theta_e
310 310 309 310 311 311 310 308 307 307 307 308 308 309 309 310 313 315 315 313 318 320 321 322 334 339 344 348 346 344 351 351 347 346 345 344 346 345 345 343 343 345 342 343 339
310 310 309 309 312 314 315 315 314 311 308 307 308 309 309 310 312 315 316 313 318 320 320 323 335 341 345 348 348 345 352 351 347 348 345 343 344 345 343 343 345 345 344 338 337
311 311 311 310 309 313 314 314 314 314 312 309 308 308 309 311 317 322 320 313 318 320 322 327 338 342 345 348 349 347 350 347 347 347 347 344 344 344 343 343 345 343 345 342 342
311 312 312 311 310 310 313 314 314 314 313 311 310 309 310 314 323 322 320 314 317 317 325 333 340 343 345 347 348 350 347 346 346 346 347 346 346 344 343 343 343 344 344 343 344
311 312 312 312 311 310 312 313 314 314 315 313 312 311 310 314 318 322 322 316 316 317 326 337 342 340 343 343 348 349 347 346 345 346 347 347 347 343 343 344 343 344 344 344 345
312 312 312 312 312 310 311 314 315 316 316 314 314 313 311 318 324 323 317 314 316 316 323 339 341 340 333 340 349 346 346 345 345 346 346 348 348 344 345 344 345 344 344 344 344
311 311 312 312 312 310 311 314 316 318 317 317 316 316 314 320 325 325 321 317 316 316 320 337 337 330 327 348 348 346 348 346 346 346 346 346 350 347 345 344 345 345 345 344 344
310 310 311 311 311 310 313 316 319 321 321 320 320 318 316 321 324 324 325 322 317 317 317 329 338 328 333 346 346 347 345 353 343 345 345 347 352 349 346 344 345 345 345 344 344
309 309 310 310 310 311 315 317 320 322 321 321 322 320 321 321 320 321 323 315 316 315 316 318 323 325 344 345 346 348 349 350 347 342 346 349 350 347 346 344 345 345 345 345 345
312 312 311 309 311 316 318 319 320 321 320 321 321 321 321 322 321 321 322 315 314 315 317 320 320 325 334 338 344 347 350 346 347 343 346 348 349 347 346 344 345 345 345 345 344
313 311 309 309 315 318 319 319 319 319 320 320 320 320 321 322 319 319 322 322 316 317 322 320 328 330 327 331 330 339 348 346 343 342 345 348 350 348 345 345 345 345 345 345 345
313 310 308 312 317 319 319 319 319 319 319 321 322 321 321 321 320 320 323 322 321 322 322 326 330 326 323 325 338 344 349 349 347 343 345 348 349 348 346 345 344 345 345 345 345
313 309 310 315 318 319 319 319 320 319 319 320 321 322 321 321 321 321 321 322 323 323 324 331 325 322 326 331 341 345 346 348 349 347 345 347 349 347 346 346 344 343 343 344 344
313 309 312 316 319 318 319 320 322 320 324 324 321 322 322 319 320 321 322 321 321 324 323 325 321 328 332 332 341 343 342 345 347 349 352 346 354 348 348 347 345 343 341 342 343
315 310 316 319 318 318 319 321 322 320 324 325 324 320 320 320 320 320 320 320 323 322 323 325 320 328 332 331 341 343 343 345 344 346 348 349 351 349 346 350 348 345 343 341 342
317 312 315 319 319 318 319 320 320 324 325 325 324 320 322 320 321 320 321 321 319 321 321 322 319 321 325 338 340 342 343 343 343 345 350 346 349 347 350 351 347 346 344 343 341
317 318 315 319 316 318 319 322 324 324 323 324 323 320 321 323 322 322 322 323 322 323 323 322 322 334 333 338 342 341 344 348 350 350 350 344 348 346 342 344 346 345 345 344 341
317 320 319 316 318 319 320 322 324 322 323 321 322 322 325 323 322 321 322 323 321 321 323 323 330 338 339 336 339 340 335 341 347 350 347 347 350 346 342 340 341 345 344 344 343
319 319 318 318 319 320 322 322 322 321 319 322 323 325 325 323 323 323 322 322 322 321 324 324 326 336 338 340 339 341 339 337 340 341 342 343 345 344 342 342 343 343 344 343 343
320 320 321 321 321 322 324 323 325 321 318 322 324 323 325 324 325 326 326 325 324 321 319 324 327 328 339 339 336 340 338 343 341 344 342 340 345 348 349 348 343 343 344 343 343
320 322 322 322 322 322 326 324 323 321 318 322 323 323 323 324 324 325 326 325 324 323 322 323 326 328 337 341 341 340 341 336 335 338 340 340 339 345 347 346 345 340 342 344 343
319 324 321 321 323 316 324 322 320 320 319 320 320 321 324 323 326 326 326 325 323 323 323 322 325 329 328 325 323 332 336 338 338 336 336 337 336 342 343 343 343 343 341 340 342
315 318 321 322 325 324 320 319 320 320 319 320 320 321 321 324 326 325 324 322 321 323 323 323 327 331 330 328 326 330 329 325 323 325 332 331 332 342 342 342 343 344 343 342 340
317 322 323 321 318 321 321 320 320 316 317 315 316 318 319 323 322 323 323 321 319 325 319 323 326 330 329 330 327 330 334 329 325 328 329 327 338 346 344 343 341 341 343 343 343
318 320 322 327 325 324 321 318 320 319 316 315 318 317 320 324 323 323 321 320 320 322 324 322 327 326 326 327 326 336 339 341 338 339 330 332 343 345 342 341 339 339 342 343 345
322 326 325 325 323 324 314 318 319 318 318 318 319 319 320 322 323 323 321 320 321 323 326 324 327 327 325 326 328 335 334 335 342 341 341 342 343 339 339 339 338 335 334 336 340
315 320 324 325 324 324 324 324 319 318 317 316 318 319 319 319 319 316 318 319 321 324 326 327 327 328 326 325 329 332 332 332 338 340 341 344 342 340 338 335 332 333 332 333 335